[[{"header":{"parameterUnit":"m.s-1","parameterCategory":1,"la1":30.6,"la2":28.766,"lo1":-90.7593,"lo2":-88.6598,"dy":0.0162,"dx":0.0183,"nx":116,"ny":114,"refTime":"2024-06-22T00:00:00:Z","depth":0,"parameterNumber":2,"parameterNumberName":"U-component_of_WINDS"},"data":[0.0,0.0,0.0,0.0,0.0,0.0,0.0,0.0,0.0,0.0,0.0,0.0,0.0,0.0,0.0,0.0,0.0,0.0,0.0,0.0,0.0,0.0,0.0,0.0,0.0,0.0,0.0,0.0,0.0,0.0,0.0,0.0,0.0,0.0,0.0,0.0,0.0,0.0,0.0,0.0,0.0,0.0,0.0,0.0,0.0,0.0,0.0,0.0,0.0,0.0,0.0,0.0,0.0,0.0,0.0,0.0,0.0,0.0,0.0,0.0,0.0,0.0,0.0,0.0,0.0,0.0,0.0,0.0,0.0,0.0,0.0,0.0,0.0,0.0,0.0,0.0,0.0,0.0,0.0,0.0,0.0,0.0,0.0,0.0,0.0,0.0,0.0,0.0,0.0,0.0,0.0,0.0,0.0,0.0,0.0,0.0,0.0,0.0,0.0,0.0,0.0,0.0,0.0,0.0,0.0,0.0,0.0,0.0,0.0,0.0,0.0,0.0,0.0,0.0,0.0,0.0,0.0,0.0,0.0,0.0,0.0,0.0,0.0,0.0,0.0,0.0,0.0,0.0,0.0,0.0,0.0,0.0,0.0,0.0,0.0,0.0,0.0,0.0,0.0,0.0,0.0,0.0,0.0,0.0,0.0,0.0,0.0,0.0,0.0,0.0,0.0,0.0,0.0,0.0,0.0,0.0,0.0,0.0,0.0,0.0,0.0,0.0,0.0,0.0,0.0,0.0,0.0,0.0,0.0,0.0,0.0,0.0,0.0,0.0,0.0,0.0,0.0,0.0,0.0,0.0,0.0,0.0,0.0,0.0,0.0,0.0,0.0,0.0,0.0,0.0,0.0,0.0,0.0,0.0,0.0,0.0,0.0,0.0,0.0,0.0,0.0,0.0,0.0,0.0,0.0,0.0,0.0,0.0,0.0,0.0,0.0,0.0,0.0,0.0,0.0,0.0,0.0,0.0,0.0,0.0,0.0,0.0,0.0,0.0,0.0,0.0,0.0,0.0,0.0,0.0,0.0,0.0,0.0,0.0,0.0,0.0,0.0,0.0,0.0,0.0,0.0,0.0,0.0,0.0,0.0,0.0,0.0,0.0,0.0,0.0,0.0,0.0,0.0,0.0,0.0,0.0,0.0,0.0,0.0,0.0,0.0,0.0,0.0,0.0,0.0,0.0,0.0,0.0,0.0,0.0,0.0,0.0,0.0,0.0,0.0,0.0,0.0,0.0,0.0,0.0,0.0,0.0,0.0,0.0,0.0,0.0,0.0,0.0,0.0,0.0,0.0,0.0,0.0,0.0,0.0,0.0,0.0,0.0,0.0,0.0,0.0,0.0,0.0,0.0,0.0,0.0,0.0,0.0,0.0,0.0,0.0,0.0,0.0,0.0,0.0,0.0,0.0,0.0,0.0,0.0,0.0,0.0,0.0,0.0,0.0,0.0,0.0,0.0,0.0,0.0,0.0,0.0,0.0,0.0,0.0,0.0,0.0,0.0,0.0,0.0,0.0,0.0,0.0,0.0,0.0,0.0,0.0,0.0,0.0,0.0,0.0,0.0,0.0,0.0,0.0,0.0,0.0,0.0,0.0,0.0,0.0,0.0,0.0,0.0,0.0,0.0,0.0,0.0,0.0,0.0,0.0,0.0,0.0,0.0,0.0,0.0,0.0,0.0,0.0,0.0,0.0,0.0,0.0,0.0,0.0,0.0,0.0,0.0,0.0,0.0,0.0,0.0,0.0,0.0,0.0,0.0,0.0,0.0,0.0,0.0,0.0,0.0,0.0,0.0,0.0,0.0,0.0,0.0,0.0,0.0,0.0,0.0,0.0,0.0,0.0,0.0,0.0,0.0,0.0,0.0,0.0,0.0,0.0,0.0,0.0,0.0,0.0,0.0,0.0,0.0,0.0,0.0,0.0,0.0,0.0,0.0,0.0,0.0,0.0,0.0,0.0,0.0,0.0,0.0,0.0,0.0,0.0,0.0,0.0,0.0,0.0,0.0,0.0,0.0,0.0,0.0,0.0,0.0,0.0,0.0,0.0,0.0,0.0,0.0,0.0,0.0,0.0,0.0,0.0,0.0,0.0,0.0,0.0,0.0,0.0,0.0,0.0,0.0,0.0,0.0,0.0,0.0,0.0,0.0,0.0,0.0,0.0,0.0,0.0,0.0,0.0,0.0,0.0,0.0,0.0,0.0,0.0,0.0,0.0,0.0,0.0,0.0,0.0,0.0,0.0,0.0,0.0,0.0,0.0,0.0,0.0,0.0,0.0,0.0,0.0,0.0,0.0,0.0,0.0,0.0,0.0,0.0,0.0,0.0,0.0,0.0,0.0,0.0,0.0,0.0,0.0,0.0,0.0,0.0,0.0,0.0,0.0,0.0,0.0,0.0,0.0,0.0,0.0,0.0,0.0,0.0,0.0,0.0,0.0,0.0,0.0,0.0,0.0,0.0,0.0,0.0,0.0,0.0,0.0,0.0,0.0,0.0,0.0,0.0,0.0,0.0,0.0,0.0,0.0,0.0,0.0,0.0,0.0,0.0,0.0,0.0,0.0,0.0,0.0,0.0,0.0,0.0,0.0,0.0,0.0,0.0,0.0,0.0,0.0,0.0,0.0,0.0,0.0,0.0,0.0,0.0,0.0,0.0,0.0,0.0,0.0,0.0,0.0,0.0,0.0,0.0,0.0,0.0,0.0,0.0,0.0,0.0,0.0,0.0,0.0,0.0,0.0,0.0,0.0,0.0,0.0,0.0,0.0,0.0,0.0,0.0,0.0,0.0,0.0,0.0,0.0,0.0,0.0,0.0,0.0,0.0,0.0,0.0,0.0,0.0,0.0,0.0,0.0,0.0,0.0,0.0,0.0,0.0,0.0,0.0,0.0,0.0,0.0,0.0,0.0,0.0,0.0,0.0,0.0,0.0,0.0,0.0,0.0,0.0,0.0,0.0,0.0,0.0,0.0,0.0,0.0,0.0,0.0,0.0,0.0,0.0,0.0,0.0,0.0,0.0,0.0,0.0,0.0,0.0,0.0,0.0,0.0,0.0,0.0,0.0,0.0,0.0,0.0,0.0,0.0,0.0,0.0,0.0,0.0,0.0,0.0,0.0,0.0,0.0,0.0,0.0,0.0,0.0,0.0,0.0,0.0,0.0,0.0,0.0,0.0,0.0,0.0,0.0,0.0,0.0,0.0,0.0,0.0,0.0,0.0,0.0,0.0,0.0,0.0,0.0,0.0,0.0,0.0,0.0,0.0,0.0,0.0,0.0,0.0,0.0,0.0,0.0,0.0,0.0,0.0,0.0,0.0,0.0,0.0,0.0,0.0,0.0,0.0,0.0,0.0,0.0,0.0,0.0,0.0,0.0,0.0,0.0,0.0,0.0,0.0,0.0,0.0,0.0,0.0,0.0,0.0,0.0,0.0,0.0,0.0,0.0,0.0,0.0,0.0,0.0,0.0,0.0,0.0,0.0,0.0,0.0,0.0,0.0,0.0,0.0,0.0,0.0,0.0,0.0,0.0,0.0,0.0,0.0,0.0,0.0,0.0,0.0,0.0,0.0,0.0,0.0,0.0,0.0,0.0,0.0,0.0,0.0,0.0,0.0,0.0,0.0,0.0,0.0,0.0,0.0,0.0,0.0,0.0,0.0,0.0,0.0,0.0,0.0,0.0,0.0,0.0,0.0,0.0,0.0,0.0,0.0,0.0,0.0,0.0,0.0,0.0,0.0,0.0,0.0,0.0,0.0,0.0,0.0,0.0,0.0,0.0,0.0,0.0,0.0,0.0,0.0,0.0,0.0,0.0,0.0,0.0,0.0,0.0,0.0,0.0,0.0,0.0,0.0,0.0,0.0,0.0,0.0,0.0,0.0,0.0,0.0,0.0,0.0,0.0,0.0,0.0,0.0,0.0,0.0,0.0,0.0,0.0,0.0,0.0,0.0,0.0,0.0,0.0,0.0,0.0,0.0,0.0,0.0,0.0,0.0,0.0,0.0,0.0,0.0,0.0,0.0,0.0,0.0,0.0,0.0,0.0,0.0,0.0,0.0,0.0,0.0,0.0,0.0,0.0,0.0,0.0,0.0,0.0,0.0,0.0,0.0,0.0,0.0,0.0,0.0,0.0,0.0,0.0,0.0,0.0,0.0,0.0,0.0,0.0,0.0,0.0,0.0,0.0,0.0,0.0,0.0,0.0,0.0,0.0,0.0,0.0,0.0,0.0,0.0,0.0,0.0,0.0,0.0,0.0,0.0,0.0,0.0,0.0,0.0,0.0,0.0,0.0,0.0,0.0,0.0,0.0,0.0,0.0,0.0,0.0,0.0,0.0,0.0,0.0,0.0,0.0,0.0,0.0,0.0,0.0,0.0,0.0,0.0,0.0,0.0,0.0,0.0,0.0,0.0,0.0,0.0,0.0,0.0,0.0,0.0,0.0,0.0,0.0,0.0,0.0,0.0,0.0,0.0,0.0,0.0,0.0,0.0,0.0,0.0,0.0,0.0,0.0,0.0,0.0,0.0,0.0,0.0,0.0,0.0,0.0,0.0,0.0,0.0,0.0,0.0,0.0,0.0,0.0,0.0,0.0,0.0,0.0,0.0,0.0,0.0,0.0,0.0,0.0,0.0,0.0,0.0,0.0,0.0,0.0,0.0,0.0,0.0,0.0,0.0,0.0,0.0,0.0,0.0,0.0,0.0,0.0,0.0,0.0,0.0,0.0,0.0,0.0,0.0,0.0,0.0,0.0,0.0,0.0,0.0,0.0,0.0,0.0,0.0,0.0,0.0,0.0,0.0,0.0,0.0,0.0,0.0,0.0,0.0,0.0,0.0,0.0,0.0,0.0,0.0,0.0,0.0,0.0,0.0,0.0,0.0,0.0,0.0,0.0,0.0,0.0,0.0,0.0,0.0,0.0,0.0,0.0,0.0,0.0,0.0,0.0,0.0,0.0,0.0,0.0,0.0,0.0,0.0,0.0,0.0,0.0,0.0,0.0,0.0,0.0,0.0,0.0,0.0,0.0,0.0,0.0,0.0,0.0,0.0,0.0,0.0,0.0,0.0,0.0,0.0,0.0,0.0,0.0,0.0,0.0,0.0,0.0,0.0,0.0,0.0,0.0,0.0,0.0,0.0,0.0,0.0,0.0,0.0,0.0,0.0,0.0,0.0,0.0,0.0,0.0,0.0,0.0,0.0,0.0,0.0,0.0,0.0,0.0,0.0,0.0,0.0,0.0,0.0,0.0,0.0,0.0,0.0,0.0,0.0,0.0,0.0,0.0,0.0,0.0,0.0,0.0,0.0,0.0,0.0,0.0,0.0,0.0,0.0,0.0,0.0,0.0,0.0,0.0,0.0,0.0,0.0,0.0,0.0,0.0,0.0,0.0,0.0,0.0,0.0,0.0,0.0,0.0,0.0,0.0,0.0,0.0,0.0,0.0,0.0,0.0,0.0,0.0,0.0,0.0,0.0,0.0,0.0,0.0,0.0,0.0,0.0,0.0,0.0,0.0,0.0,0.0,0.0,0.0,0.0,0.0,0.0,0.0,0.0,0.0,0.0,0.0,0.0,0.0,0.0,0.0,0.0,0.0,0.0,0.0,0.0,0.0,0.0,0.0,0.0,0.0,0.0,0.0,0.0,0.0,0.0,0.0,0.0,0.0,0.0,0.0,0.0,0.0,0.0,0.0,0.0,0.0,0.0,0.0,0.0,0.0,0.0,0.0,0.0,0.0,0.0,0.0,0.0,0.0,0.0,0.0,0.0,0.0,0.0,0.0,0.0,0.0,0.0,0.0,0.0,0.0,0.0,0.0,0.0,0.0,0.0,0.0,0.0,0.0,0.0,0.0,0.0,0.0,0.0,0.0,0.0,0.0,0.0,0.0,0.0,0.0,0.0,0.0,0.0,0.0,0.0,0.0,0.0,0.0,0.0,0.0,0.0,0.0,0.0,0.0,0.0,0.0,0.0,0.0,0.0,0.0,0.0,0.0,0.0,0.0,0.0,0.0,0.0,0.0,0.0,0.0,0.0,0.0,0.0,0.0,0.0,0.0,0.0,0.0,0.0,0.0,0.0,0.0,0.0,0.0,0.0,0.0,0.0,0.0,0.0,0.0,0.0,-0.1941,0.0,0.0,0.0,0.0,0.0,0.0,0.0,0.0,0.0,0.0,0.0,0.0,0.0,0.0,0.0,0.0,0.0,0.0,0.0,0.0,0.0,0.0,0.0,0.0,-0.3699,-0.3826,-0.4024,-0.4127,-0.4217,-0.4312,0.0,0.0,0.0,0.0,0.0,-0.3834,-0.383,-0.383,-0.383,-0.4053,-0.4272,-0.4528,-0.4473,-0.4149,-0.357,0.0,0.0,0.0,0.0,0.0,0.0,0.0,0.0,0.0,0.0,0.0,0.0,0.0,0.0,0.0,0.0,0.0,0.0,0.0,0.0,0.0,0.0,0.0,0.0,0.0,0.0,0.0,0.0,0.0,0.0,0.0,0.0,0.0,0.0,0.0,0.0,0.0,0.0,0.0,0.0,0.0,0.0,0.0,0.0,0.0,0.0,0.0,0.0,0.0,0.0,0.0,0.0,0.0,0.0,0.0,0.0,0.0,0.0,0.0,0.0,0.0,0.0,0.0,0.0,0.0,0.0,0.0,0.0,0.0,0.0,0.0,-0.1848,0.0,0.0,0.0,0.0,0.0,0.0,0.0,0.0,0.0,0.0,0.0,0.0,0.0,0.0,0.0,0.0,0.0,0.0,0.0,0.0,0.0,-0.3526,-0.3585,-0.3792,-0.3995,-0.4093,-0.4268,-0.4353,-0.4325,-0.4321,0.0,0.0,0.0,-0.4223,-0.4071,-0.4067,-0.4122,-0.4154,-0.4254,-0.4534,-0.4875,-0.5012,-0.4696,-0.3953,-0.3443,0.0,0.0,0.0,0.0,0.0,0.0,0.0,0.0,0.0,0.0,0.0,0.0,0.0,0.0,0.0,0.0,0.0,0.0,0.0,0.0,0.0,0.0,0.0,0.0,0.0,0.0,0.0,0.0,0.0,0.0,0.0,0.0,0.0,0.0,0.0,0.0,0.0,0.0,0.0,0.0,0.0,0.0,0.0,0.0,0.0,0.0,0.0,0.0,0.0,0.0,0.0,0.0,0.0,0.0,0.0,0.0,0.0,0.0,0.0,0.0,0.0,0.0,0.0,-0.1898,-0.1855,-0.1913,-0.1711,-0.1827,-0.2048,-0.1827,-0.1948,-0.2094,-0.1819,0.0,0.0,0.0,0.0,0.0,0.0,0.0,0.0,0.0,0.0,0.0,0.0,0.0,0.0,0.0,0.0,0.0,0.0,0.0,-0.3648,-0.3847,-0.409,-0.4276,-0.4413,-0.4633,-0.467,-0.4473,-0.4465,0.0,0.0,-0.4316,-0.4337,-0.4429,-0.4429,-0.4501,-0.4698,-0.4495,-0.429,-0.4032,-0.4048,-0.4032,-0.3906,-0.4241,-0.447,-0.4458,0.0,0.0,0.0,0.0,0.0,0.0,0.0,0.0,0.0,0.0,0.0,0.0,0.0,0.0,0.0,0.0,0.0,0.0,0.0,0.0,0.0,0.0,0.0,0.0,0.0,0.0,0.0,0.0,0.0,0.0,0.0,0.0,0.0,0.0,0.0,0.0,0.0,0.0,0.0,0.0,0.0,-0.2061,-0.2183,0.0,0.0,0.0,0.0,0.0,0.0,0.0,0.0,0.0,0.0,0.0,0.0,0.0,-0.2067,-0.1913,-0.2018,-0.1972,-0.1774,-0.1834,-0.1978,-0.2097,-0.1876,-0.1879,-0.2212,-0.196,0.0,-0.1984,-0.1894,0.0,0.0,0.0,0.0,0.0,0.0,0.0,0.0,0.0,0.0,0.0,0.0,0.0,0.0,0.0,0.0,0.0,0.0,0.0,0.0,0.0,-0.4164,-0.4386,-0.4666,-0.4857,-0.4881,-0.4702,-0.469,-0.4613,-0.4434,-0.4426,-0.4417,-0.4497,-0.4743,-0.4773,-0.4685,-0.4484,-0.4266,-0.4139,-0.4262,-0.432,-0.431,-0.4535,-0.4281,-0.3753,-0.2717,0.0,0.0,0.0,0.0,0.0,0.0,0.0,0.0,0.0,0.0,0.0,0.0,0.0,0.0,0.0,0.0,0.0,0.0,0.0,0.0,0.0,0.0,0.0,0.0,0.0,0.0,0.0,0.0,0.0,0.0,0.0,0.0,0.0,0.0,0.0,0.0,0.0,0.0,0.0,-0.2068,-0.2236,-0.2217,-0.2257,-0.2109,0.0,0.0,0.0,0.0,0.0,0.0,0.0,0.0,0.0,-0.1858,-0.2049,-0.2115,-0.2045,-0.213,-0.2183,-0.2088,-0.2018,-0.205,-0.2189,-0.2068,-0.2068,-0.2189,-0.2068,-0.2016,-0.2035,-0.1889,-0.1682,-0.1511,0.0,0.0,0.0,0.0,-0.173,-0.183,0.0,0.0,0.0,0.0,0.0,0.0,0.0,0.0,0.0,0.0,0.0,0.0,-0.4049,-0.4361,-0.4658,-0.4922,-0.5113,-0.5141,0.0,-0.4901,-0.4796,-0.4574,-0.4566,-0.4586,-0.4634,-0.508,-0.5189,-0.4935,-0.4795,-0.4664,-0.4608,-0.4774,-0.4693,-0.4456,-0.4456,-0.4063,-0.3383,-0.2621,-0.2258,0.0,0.0,0.0,0.0,0.0,0.0,0.0,0.0,0.0,0.0,0.0,0.0,0.0,0.0,0.0,0.0,0.0,0.0,0.0,0.0,0.0,0.0,0.0,0.0,0.0,0.0,0.0,0.0,0.0,0.0,0.0,0.0,0.0,0.0,0.0,0.0,0.0,0.0,-0.2275,-0.2328,-0.2388,-0.239,-0.2242,0.0,0.0,0.0,0.0,0.0,0.0,-0.1849,-0.1822,-0.1791,-0.1869,-0.2048,-0.2096,-0.2122,-0.2179,-0.2221,-0.2371,-0.2145,-0.2042,-0.2064,-0.2064,-0.2064,-0.2064,-0.2064,-0.2039,-0.1987,-0.1827,-0.1727,-0.1669,-0.1615,-0.1567,-0.1538,-0.1629,-0.1756,-0.1862,0.0,0.0,0.0,0.0,0.0,0.0,0.0,0.0,0.0,0.0,0.0,-0.4057,-0.4239,-0.4881,-0.5253,-0.5269,-0.5486,-0.551,0.0,0.0,-0.4987,-0.48,-0.4792,-0.4873,-0.5052,-0.5575,-0.5883,-0.5956,-0.5912,-0.5758,-0.5405,-0.5416,-0.5007,-0.4095,-0.4095,-0.4308,-0.4632,-0.375,-0.3352,-0.3234,0.0,0.0,0.0,0.0,0.0,0.0,0.0,0.0,0.0,0.0,0.0,0.0,0.0,0.0,0.0,0.0,0.0,0.0,0.0,0.0,0.0,0.0,0.0,0.0,0.0,0.0,0.0,0.0,0.0,0.0,0.0,0.0,0.0,0.0,0.0,0.0,0.0,0.0,0.0,-0.2466,-0.2674,0.0,0.0,0.0,0.0,-0.1791,-0.1695,-0.1791,-0.2218,-0.1952,-0.2002,-0.2275,-0.2099,-0.2008,-0.2009,-0.2041,-0.2058,-0.2059,-0.2061,-0.2063,-0.2064,-0.2064,-0.2064,-0.2064,-0.2064,-0.2062,-0.2052,-0.1958,-0.1884,-0.1826,-0.1794,-0.178,-0.1778,-0.1784,-0.1804,-0.1824,0.0,0.0,0.0,-0.3426,-0.3528,-0.3602,-0.3532,-0.3538,-0.3573,-0.3543,-0.393,-0.4252,0.0,-0.4939,-0.5345,-0.5454,-0.5685,-0.5713,-0.5531,0.0,-0.5173,-0.5108,-0.5104,-0.5458,-0.6103,-0.5885,-0.5969,-0.6308,-0.5935,-0.5679,-0.5559,-0.564,-0.5418,-0.5157,-0.5157,-0.5157,-0.5242,-0.3528,-0.2748,-0.2673,-0.22,-0.1926,0.0,0.0,0.0,0.0,0.0,0.0,0.0,0.0,0.0,0.0,0.0,0.0,0.0,0.0,0.0,0.0,0.0,0.0,0.0,0.0,0.0,0.0,0.0,0.0,0.0,0.0,0.0,0.0,0.0,0.0,0.0,0.0,0.0,0.0,0.0,0.0,0.0,-0.284,-0.2754,0.0,-0.235,-0.2111,-0.1862,-0.1803,-0.1765,-0.1952,-0.2028,-0.1949,-0.1985,-0.214,-0.2056,-0.2077,-0.2077,-0.2107,-0.2122,-0.2122,-0.2122,-0.2122,-0.2122,-0.2122,-0.2122,-0.2122,-0.2122,-0.2111,-0.2091,-0.2059,-0.2009,-0.1954,-0.1943,-0.1928,-0.1914,-0.1932,-0.1934,-0.1929,-0.3072,-0.325,0.0,-0.3416,-0.3528,-0.3602,-0.3532,-0.3599,-0.3661,-0.368,-0.4073,-0.4483,-0.4833,-0.5247,-0.5604,-0.5838,-0.5912,-0.5835,-0.5713,-0.543,-0.5297,-0.5297,-0.547,-0.6014,-0.6859,-0.6531,-0.6551,-0.7115,-0.6733,-0.6509,-0.6647,-0.6653,-0.652,-0.6163,-0.6163,-0.594,-0.5583,-0.418,-0.3344,-0.2859,-0.2737,-0.24,-0.2041,0.0,0.0,0.0,0.0,0.0,0.0,0.0,0.0,0.0,0.0,0.0,0.0,0.0,0.0,0.0,0.0,0.0,0.0,0.0,0.0,0.0,0.0,0.0,0.0,0.0,0.0,0.0,0.0,0.0,0.0,0.0,0.0,0.0,0.0,0.0,-0.2921,-0.2917,-0.2741,-0.2483,-0.2241,-0.209,-0.1926,-0.1853,-0.1902,-0.1957,-0.2018,-0.2039,-0.2063,-0.2093,-0.2114,-0.2125,-0.2125,-0.2144,-0.2155,-0.2155,-0.2155,-0.2155,-0.2155,-0.2155,-0.2155,-0.2155,-0.2155,-0.2143,-0.2125,-0.2125,-0.2101,-0.2063,-0.2041,-0.2022,-0.2008,-0.2026,-0.2022,-0.2009,-0.3062,-0.3241,-0.3407,-0.3386,-0.3564,-0.3672,-0.3602,-0.3672,-0.3791,-0.4077,-0.4325,-0.4804,-0.55,-0.5785,-0.6014,-0.6375,-0.6108,-0.5888,-0.588,-0.5494,-0.5309,-0.5329,-0.5896,-0.6518,-0.7236,-0.7415,-0.776,-0.83,-0.83,-0.839,-0.8568,-0.8572,-0.8128,-0.7146,-0.7153,-0.6618,-0.5819,-0.5819,-0.5183,-0.4051,-0.3936,-0.3251,-0.2382,0.0,0.0,0.0,0.0,0.0,0.0,0.0,0.0,0.0,0.0,0.0,0.0,0.0,0.0,0.0,0.0,0.0,0.0,0.0,0.0,0.0,0.0,0.0,0.0,0.0,0.0,0.0,0.0,0.0,0.0,0.0,0.0,0.0,-0.297,-0.2786,-0.2616,-0.2658,-0.2647,-0.2365,-0.1916,-0.2089,-0.2156,-0.1976,-0.2006,-0.2048,-0.2108,-0.211,-0.2124,-0.2154,-0.2155,-0.2155,-0.2155,-0.2155,-0.2155,-0.2155,-0.2155,-0.2155,-0.2155,-0.2155,-0.2155,-0.2155,-0.2155,-0.2155,-0.2155,-0.2155,-0.2155,-0.2148,-0.209,-0.2067,-0.2067,-0.2067,-0.2066,-0.2194,-0.2844,-0.3052,-0.3213,-0.3358,-0.3564,-0.3672,-0.3532,-0.3823,-0.406,-0.402,-0.4529,-0.4944,-0.523,-0.5653,-0.5852,-0.5825,-0.5899,-0.5831,-0.5697,-0.5422,-0.5526,-0.6103,-0.6643,-0.72,-0.7784,-0.7841,-0.8073,-0.8491,-0.8491,-0.8519,-0.8568,-0.8694,-0.8567,-0.8301,-0.852,-0.8394,-0.8206,-0.8206,-0.7507,-0.637,-0.5421,-0.4344,-0.3373,0.0,0.0,0.0,0.0,0.0,0.0,0.0,0.0,0.0,0.0,0.0,0.0,0.0,0.0,0.0,0.0,0.0,0.0,0.0,0.0,0.0,0.0,0.0,0.0,0.0,0.0,0.0,0.0,0.0,0.0,0.0,0.0,-0.2974,-0.2913,-0.294,-0.2868,-0.2784,-0.2733,-0.2671,-0.2358,-0.2256,-0.2158,-0.2069,-0.208,-0.2101,-0.214,-0.2142,-0.2146,-0.2155,-0.2155,-0.2155,-0.2155,-0.2155,-0.2155,-0.2155,-0.2155,-0.2155,-0.2155,-0.2155,-0.2155,-0.2155,-0.2155,-0.2155,-0.2155,-0.2155,-0.2155,-0.2153,-0.2136,-0.213,-0.213,-0.213,-0.2116,-0.2093,-0.2887,-0.3095,-0.3279,-0.3485,-0.362,-0.3667,-0.3532,-0.3904,-0.4187,-0.4219,-0.4718,-0.5195,-0.5483,-0.5702,-0.5821,-0.5784,-0.5883,-0.5811,-0.5624,-0.5588,-0.5933,-0.6721,0.0,-0.7586,-0.8117,-0.8207,-0.8353,-0.8568,-0.8568,-0.8605,-0.8674,-0.8775,-0.8861,-0.8942,-0.9047,-0.9096,-0.9096,-0.9096,-0.8753,-0.8077,-0.7347,-0.6066,-0.4603,-0.4518,-0.4077,-0.3475,-0.2935,-0.2804,-0.2725,-0.2262,0.0,0.0,0.0,0.0,0.0,0.0,0.0,0.0,0.0,0.0,0.0,0.0,0.0,0.0,0.0,0.0,0.0,0.0,0.0,0.0,0.0,0.0,0.0,0.0,-0.3059,-0.2893,-0.2896,-0.2965,-0.2928,-0.2909,-0.273,-0.2538,-0.2338,-0.2213,-0.2095,-0.2126,-0.2128,-0.2136,-0.2154,-0.2155,-0.2155,-0.2155,-0.2155,-0.2161,-0.2174,-0.2174,-0.218,-0.2193,-0.2193,-0.2193,-0.2193,-0.2193,-0.2193,0.0,-0.2193,-0.2185,-0.2174,-0.2174,-0.2166,0.0,0.0,0.0,0.0,0.0,-0.2411,-0.2523,-0.3082,-0.3265,-0.3452,-0.3667,-0.3705,-0.3667,-0.3532,-0.3904,-0.4306,-0.4492,-0.4927,-0.5426,-0.598,-0.5948,-0.5906,-0.6041,-0.598,-0.5823,-0.5681,-0.588,0.0,-0.7216,-0.746,-0.7809,-0.8312,-0.8483,-0.8576,-0.8597,-0.8597,-0.8682,-0.8852,-0.8873,-0.8966,-0.9129,-0.9149,-0.9157,-0.9157,-0.9157,-0.9145,-0.9129,-0.9129,-0.7802,-0.5866,-0.5653,-0.5533,-0.5319,-0.4272,-0.3921,-0.3772,-0.2846,0.0,0.0,0.0,0.0,0.0,0.0,0.0,0.0,0.0,0.0,0.0,0.0,0.0,0.0,0.0,0.0,0.0,0.0,0.0,0.0,0.0,0.0,0.0,0.0,-0.2956,-0.2775,-0.2945,-0.2943,-0.2815,-0.2855,-0.2418,-0.2211,-0.2111,-0.2114,-0.2125,-0.2153,-0.2155,-0.2155,-0.2155,0.0,0.0,0.0,0.0,-0.2185,-0.2215,-0.2215,-0.2229,-0.2255,-0.2255,-0.2255,-0.2255,-0.2255,-0.2255,-0.2255,-0.2252,-0.2235,-0.221,-0.2206,-0.2187,-0.2159,-0.2156,-0.2155,-0.2289,-0.2559,-0.2827,-0.3229,-0.3288,-0.3388,-0.3452,-0.3667,-0.3705,-0.3672,-0.3602,-0.402,-0.4429,-0.4569,-0.5059,-0.5475,-0.5804,-0.5984,-0.5971,-0.5742,-0.5948,-0.6046,0.0,0.0,-0.6952,-0.7411,0.0,0.0,-0.8507,-0.8548,-0.8633,-0.8771,-0.8771,-0.8865,-0.9047,-0.9185,-0.9271,-0.9311,-0.9458,-0.9527,-0.9527,-0.9527,-0.9441,-0.9303,-0.9303,-0.8524,-0.7202,-0.7048,-0.6468,-0.5675,-0.522,-0.5102,-0.5087,-0.4888,-0.4636,-0.4395,-0.3664,0.0,0.0,0.0,0.0,0.0,0.0,0.0,0.0,0.0,0.0,0.0,0.0,0.0,0.0,0.0,0.0,0.0,0.0,0.0,0.0,-0.3495,-0.3574,-0.3618,-0.3377,-0.32,-0.2856,-0.2343,-0.2617,-0.2773,-0.2277,-0.2146,-0.2148,-0.2155,-0.2155,-0.2155,-0.2155,-0.2178,-0.2202,-0.2227,-0.2251,-0.2278,-0.2307,-0.2307,-0.231,-0.2316,0.0,0.0,-0.2316,-0.2316,-0.2316,-0.2315,-0.2292,-0.2279,-0.2271,-0.2247,-0.2219,-0.2189,-0.2164,-0.2155,-0.2155,-0.2289,-0.2558,-0.2828,-0.3534,-0.3546,-0.3578,-0.3686,-0.3705,-0.3672,-0.3602,-0.4056,-0.4473,-0.466,-0.5152,-0.5608,-0.5855,-0.5841,-0.5786,-0.5681,-0.5883,0.0,0.0,-0.6822,-0.7192,-0.7724,0.0,0.0,-0.8564,-0.8649,-0.8735,-0.882,-0.8913,-0.9051,-0.923,-0.9315,-0.9405,-0.9494,-0.9587,-0.9628,-0.9628,-0.9628,-0.9575,-0.949,-0.949,-0.9091,-0.8528,-0.828,-0.7803,-0.7186,-0.6619,-0.6292,-0.6189,-0.5638,-0.5388,-0.5157,-0.4763,-0.4415,-0.4081,0.0,0.0,0.0,0.0,0.0,0.0,0.0,0.0,0.0,0.0,0.0,0.0,0.0,0.0,-0.2963,0.0,0.0,-0.3413,-0.35,-0.3628,-0.3618,-0.3342,-0.3397,-0.3164,-0.2373,-0.2654,-0.2673,-0.2288,-0.2289,-0.2424,-0.2155,-0.2155,-0.2168,-0.2198,-0.2215,-0.2236,-0.2267,-0.2283,-0.2298,-0.2311,-0.2311,-0.2319,-0.2333,-0.2333,-0.2333,-0.2333,-0.2348,-0.2356,-0.2356,-0.2357,-0.2348,-0.2331,-0.2287,-0.225,-0.2219,-0.2189,-0.2438,-0.2692,-0.2961,-0.3231,-0.3501,-0.3727,-0.3705,-0.3705,-0.3705,-0.3705,-0.3681,-0.3685,-0.4079,-0.4512,-0.4794,-0.5264,-0.5639,-0.5903,-0.5693,-0.5588,-0.5773,0.0,0.0,0.0,0.0,0.0,0.0,0.0,0.0,-0.8564,-0.8735,-0.8836,-0.8873,-0.9056,-0.9238,-0.9409,-0.9409,-0.9486,-0.9628,-0.9628,-0.9628,-0.9628,-0.9628,-0.9628,-0.9628,-0.9628,-0.9628,-0.9596,-0.9311,-0.9064,-0.8758,-0.7856,-0.7414,-0.7158,-0.6385,-0.5995,-0.5863,-0.5725,-0.5562,-0.5304,-0.4997,-0.4927,0.0,0.0,0.0,0.0,0.0,0.0,0.0,0.0,0.0,-0.352,-0.3626,-0.3862,-0.4008,-0.4201,-0.4403,-0.4485,-0.4427,-0.4149,-0.3977,-0.3677,-0.3566,-0.3307,-0.2648,-0.2681,-0.2701,-0.229,-0.243,-0.2431,-0.2155,-0.216,-0.2185,-0.2234,-0.2248,-0.2268,-0.2298,-0.2305,-0.2311,-0.2317,-0.2317,-0.2328,-0.235,-0.235,-0.235,-0.2351,-0.2375,-0.2387,-0.2388,-0.2407,-0.2401,-0.2373,-0.2315,-0.2279,-0.24,-0.2362,-0.2741,-0.3389,-0.3506,-0.3768,-0.4038,-0.3727,-0.3705,-0.3705,-0.3705,-0.3705,-0.3766,-0.3944,-0.421,-0.4552,-0.4933,-0.5183,-0.5415,-0.5602,-0.5606,-0.5599,-0.5706,-0.5947,0.0,0.0,0.0,0.0,0.0,0.0,0.0,-0.8568,-0.8735,-0.8901,-0.9064,-0.9242,-0.9421,-0.9596,-0.9596,-0.9608,-0.9628,-0.9628,-0.9628,-0.9628,-0.9628,-0.9628,-0.9628,-0.9628,-0.9628,-0.9624,-0.9583,-0.936,-0.9043,-0.8762,-0.8396,-0.8142,-0.8194,-0.8013,-0.7596,-0.6989,-0.6644,-0.641,-0.5972,0.0,-0.5891,-0.6514,-0.6988,0.0,-0.7596,-0.72,-0.6881,0.0,0.0,-0.6506,-0.6631,-0.6909,-0.7137,-0.7394,-0.7509,-0.7601,-0.7738,-0.6801,-0.5893,-0.5515,-0.4255,-0.3088,-0.2687,-0.2991,-0.3001,-0.2292,-0.2179,-0.2184,-0.2157,-0.218,-0.2198,-0.2205,-0.2256,-0.2299,-0.2327,-0.2354,-0.2381,-0.2408,-0.2408,-0.241,-0.2414,-0.2414,-0.2414,-0.2414,-0.2417,-0.2418,-0.2417,-0.2393,-0.2381,-0.2373,-0.2315,-0.2448,-0.2753,-0.2825,-0.3214,-0.3758,-0.2718,-0.2827,-0.3363,-0.3784,-0.3705,-0.3705,-0.3705,-0.3705,-0.377,-0.3972,-0.4224,-0.4552,-0.4933,-0.516,-0.5368,-0.5585,-0.5713,-0.5654,-0.5452,-0.601,-0.6498,-0.6764,-0.7642,0.0,0.0,0.0,-0.8823,-0.874,-0.8931,-0.9019,-0.9096,-0.9376,-0.9551,-0.9628,-0.9628,-0.9628,-0.9628,-0.9628,-0.9628,-0.9628,-0.9628,-0.9628,-0.9628,-0.9628,-0.9628,-0.9616,-0.951,-0.9246,-0.8926,-0.8848,-0.8593,0.0,0.0,-0.8142,-0.7942,-0.7681,-0.7392,-0.7091,-0.695,-0.6935,0.0,-0.7978,0.0,0.0,0.0,-0.8521,-0.8146,-0.8402,-0.7899,-0.7322,-0.7476,-0.7592,-0.7802,-0.7926,-0.8025,-0.81,0.0,-0.708,-0.6119,-0.5583,-0.4551,-0.3623,-0.3063,-0.3255,-0.3279,-0.2292,-0.2437,-0.2448,-0.2181,-0.2193,-0.2223,-0.2275,-0.2301,-0.2328,-0.2358,-0.2371,-0.2375,-0.2371,-0.2371,-0.2371,-0.2371,-0.2371,-0.2519,-0.2668,-0.2538,-0.2407,-0.2423,-0.241,-0.2395,-0.2376,-0.2645,-0.2777,-0.2911,-0.3143,-0.3404,-0.3676,-0.3303,-0.3406,-0.3945,-0.3956,-0.3765,-0.3705,-0.3705,-0.3705,-0.377,-0.3972,-0.4224,-0.4533,-0.4895,-0.5079,-0.5264,-0.542,-0.5616,-0.5613,-0.5273,-0.6036,-0.6632,0.0,-0.7611,0.0,0.0,0.0,0.0,-0.8999,-0.9096,-0.9189,-0.9279,-0.9453,-0.9628,-0.9727,-0.9628,-0.9628,-0.9628,-0.9628,-0.9628,-0.9628,-0.9628,-0.9628,-0.9628,-0.9628,-0.96,-0.9535,-0.9352,-0.9031,-0.8674,-0.8674,-0.8414,0.0,0.0,-0.7829,-0.7858,-0.7809,-0.7687,-0.7569,-0.7614,-0.7829,-0.8182,-0.8787,0.0,0.0,-0.962,-0.9473,-0.928,-0.9315,-0.8974,-0.8705,-0.8743,-0.8794,-0.8982,-0.9161,-0.9227,0.0,-0.9275,-0.8225,-0.7374,-0.6965,-0.5886,-0.4934,-0.4504,-0.4567,-0.4331,-0.3631,-0.2971,-0.2584,-0.2198,-0.2345,-0.2383,-0.2461,-0.2474,-0.2489,-0.2513,-0.2366,-0.2355,-0.2333,-0.2333,-0.2333,-0.2478,-0.2478,-0.2625,-0.2917,-0.2503,-0.2378,-0.2549,-0.2549,-0.2541,-0.2675,-0.2962,-0.3242,-0.3221,-0.3468,-0.3596,-0.3871,-0.3784,-0.4011,-0.4254,-0.4274,-0.3923,-0.3705,-0.3705,-0.3705,-0.377,-0.3972,-0.4224,-0.448,-0.469,-0.4862,-0.4999,-0.5004,-0.5274,-0.5408,-0.5403,-0.5964,-0.637,-0.6567,-0.7545,-0.8157,-0.8365,-0.894,-0.933,-0.9253,-0.9366,-0.9554,-0.974,-0.9643,-0.9727,-1.0019,-0.9727,-0.9628,-0.9628,-0.9628,-0.9628,-0.9628,-0.9628,-0.9628,-0.9628,-0.9628,-0.9518,-0.9344,-0.9169,-0.8771,-0.8308,-0.8308,0.0,0.0,0.0,-0.7362,-0.7468,-0.7301,-0.748,0.0,-0.7951,-0.8373,0.0,0.0,0.0,-0.9652,-0.9835,-1.0282,-1.0729,-1.0903,-1.1109,-1.1414,-1.1595,-1.1639,-1.1752,-1.2097,-1.217,-1.2234,-1.2407,-1.1133,-1.0174,-1.0439,-0.8604,-0.7259,-0.7747,-0.7149,-0.6736,0.0,-0.4352,-0.2612,-0.22,-0.2504,-0.2819,-0.2859,-0.2897,-0.2917,-0.2918,-0.248,-0.2334,-0.2333,-0.2333,-0.2479,-0.2916,-0.2916,-0.2916,-0.2916,-0.248,-0.248,-0.292,-0.292,-0.3087,-0.3417,-0.3521,-0.3673,-0.4004,-0.3663,-0.3935,-0.4654,-0.4164,-0.3936,-0.3848,-0.4269,-0.3923,-0.3705,-0.3705,-0.3705,-0.377,-0.3972,-0.4224,-0.4476,-0.4676,-0.5009,0.0,0.0,0.0,0.0,0.0,-0.6142,-0.6536,-0.6689,-0.7592,-0.8164,-0.8364,-0.8955,-0.9262,-0.9325,-0.9451,-0.9466,-0.9366,-0.9435,-0.9523,-0.9639,-0.9542,-0.951,-0.9628,-0.9628,-0.9628,-0.9628,-0.9628,-0.9628,-0.9616,-0.9494,-0.9409,-0.9324,-0.9027,-0.8576,-0.8061,0.0,0.0,0.0,0.0,-0.6903,-0.6968,-0.7025,0.0,0.0,-0.8004,0.0,-0.8938,0.0,0.0,-1.0233,-1.053,-1.0919,-1.1244,-1.1305,-1.1508,-1.1667,-1.1606,-1.1496,-1.1484,-1.1727,-1.1772,-1.1906,-1.2324,-1.1239,-1.0323,-1.0416,-0.9065,-0.8101,-0.7923,-0.7956,0.0,0.0,0.0,0.0,-0.5336,-0.5684,-0.5901,-0.6264,-0.6058,-0.5955,-0.5955,-0.4801,-0.4223,-0.4223,-0.3499,-0.3209,-0.3354,-0.3498,-0.3353,-0.2916,-0.3352,-0.3353,-0.3354,-0.3354,-0.3363,-0.3522,-0.3797,-0.3945,-0.4104,-0.4234,-0.4519,-0.4662,-0.4498,-0.444,-0.4362,-0.4462,-0.4082,-0.3789,-0.3719,-0.3831,0.0,0.0,0.0,0.0,0.0,0.0,0.0,0.0,0.0,0.0,0.0,0.0,-0.6454,-0.6665,-0.7305,-0.7801,-0.8165,-0.8542,-0.8815,-0.8958,-0.8971,-0.8998,-0.913,-0.9059,-0.9194,-0.944,-0.932,-0.9317,-0.9436,-0.9409,-0.9437,-0.9437,-0.9437,-0.9437,-0.9417,-0.9169,-0.9035,-0.893,-0.8503,-0.8048,0.0,0.0,0.0,0.0,0.0,0.0,0.0,0.0,0.0,0.0,-0.8219,-0.8775,-0.9356,0.0,-1.0391,-1.0631,-1.1053,-1.133,-1.1516,-1.1581,-1.1638,-1.1646,-1.1524,-1.1305,-1.1167,-1.1289,-1.1309,-1.1488,-1.2028,-1.137,-1.0923,-1.1059,-1.0389,-0.9814,-0.9636,-0.9802,-0.9679,0.0,0.0,0.0,-0.7235,-0.7477,-0.786,-0.8101,-0.7921,-0.7977,-0.7977,-0.6825,-0.5962,-0.5385,-0.5238,-0.5238,-0.5383,-0.5672,-0.5526,-0.4946,-0.538,-0.5526,-0.5383,-0.5383,-0.5385,-0.553,-0.5818,-0.5675,-0.5096,-0.5388,-0.5244,-0.4665,-0.4665,-0.4625,-0.4559,-0.4814,-0.4397,-0.3974,0.0,0.0,0.0,0.0,0.0,0.0,0.0,0.0,0.0,0.0,0.0,0.0,0.0,0.0,0.0,-0.6445,0.0,0.0,-0.7707,-0.7763,-0.7966,-0.8363,-0.8157,-0.8285,-0.8992,-0.8622,-0.8827,-0.9474,-0.9216,-0.9033,-0.905,-0.9054,-0.9043,-0.9043,-0.9043,-0.9043,-0.9011,-0.8666,-0.8422,-0.8207,-0.7683,0.0,0.0,0.0,0.0,0.0,0.0,0.0,0.0,0.0,0.0,0.0,0.0,0.0,-0.9981,-1.0359,-1.0595,-1.0858,-1.1382,-1.1504,-1.1545,-1.1719,-1.1614,-1.1468,-1.1447,-1.1163,-1.0911,0.0,0.0,-1.1118,-1.1658,-1.167,-1.185,-1.2632,-1.2421,-1.2248,0.0,0.0,0.0,0.0,0.0,0.0,-0.8055,0.0,-0.8697,-0.8666,-0.8783,-0.8992,-0.8992,-0.8552,-0.7544,-0.6107,-0.7399,-0.8407,-0.8703,-0.8703,-0.8703,-0.8701,-0.8263,-0.8407,-0.8703,-0.8703,-0.8994,-0.9291,-0.9291,-0.8422,-0.7123,-0.7123,-0.6257,-0.4955,-0.4955,-0.4915,-0.4852,0.0,0.0,0.0,0.0,0.0,0.0,0.0,0.0,0.0,0.0,0.0,0.0,0.0,0.0,0.0,0.0,0.0,0.0,0.0,0.0,0.0,0.0,0.0,0.0,-0.7938,-0.8014,0.0,0.0,0.0,-0.8307,-0.8444,-0.8328,-0.8255,-0.8303,-0.8268,-0.8288,-0.8288,-0.8288,-0.8288,-0.8272,0.0,-0.7939,-0.7866,0.0,0.0,0.0,0.0,0.0,0.0,0.0,0.0,0.0,0.0,0.0,-0.8645,0.0,0.0,-1.0201,-1.07,-1.1057,-1.1358,-1.1634,-1.1602,-1.1512,-1.1557,-1.133,-1.1029,-1.0761,-1.0416,-1.0123,-0.9994,0.0,0.0,-1.1277,-1.1732,0.0,-1.2779,-1.2664,0.0,0.0,0.0,-1.2845,-1.2889,-1.3018,0.0,0.0,-1.1815,-1.1909,-1.2211,-1.2226,-1.2166,-1.2166,-1.0871,-1.0009,-0.9723,-0.9285,-0.885,-0.8703,-0.8997,-0.8994,-0.8703,-0.885,-0.8997,-0.9144,-0.9144,-0.9144,-0.9291,-0.9291,-0.9002,-0.8714,-0.8714,-0.8425,-0.8133,-0.8133,-0.8117,-0.8067,0.0,0.0,0.0,0.0,0.0,0.0,0.0,0.0,0.0,0.0,0.0,0.0,0.0,0.0,0.0,0.0,0.0,0.0,0.0,0.0,0.0,0.0,0.0,0.0,0.0,0.0,0.0,0.0,0.0,0.0,0.0,-0.7764,-0.771,-0.766,-0.7667,-0.7626,-0.7549,0.0,0.0,0.0,0.0,0.0,0.0,0.0,0.0,0.0,0.0,0.0,0.0,0.0,0.0,-0.8178,-0.8532,-0.8877,-0.9234,-0.9697,0.0,-1.0615,-1.1078,-1.1407,-1.1646,-1.1752,-1.1634,-1.1439,-1.12,-1.0932,-1.0566,-0.9969,-0.9746,0.0,0.0,0.0,0.0,0.0,0.0,0.0,-1.2645,-1.2787,-1.2836,0.0,-1.299,0.0,-1.3092,-1.3262,-1.3405,0.0,-1.3213,-1.3257,-1.364,-1.3523,-1.3615,-1.3615,-1.2749,-1.232,-1.232,-1.1015,-1.0581,-1.1009,-1.1159,-1.1159,-1.1009,-1.1159,-1.1305,-1.1305,0.0,-1.1305,-1.1305,-1.1305,-1.0871,-1.0293,-1.0293,-0.9865,-0.9291,-0.9291,-0.9291,-0.9264,0.0,0.0,0.0,0.0,0.0,0.0,0.0,0.0,0.0,0.0,0.0,0.0,0.0,0.0,0.0,0.0,0.0,0.0,0.0,0.0,0.0,0.0,0.0,0.0,0.0,0.0,0.0,0.0,0.0,0.0,0.0,0.0,0.0,0.0,0.0,0.0,0.0,0.0,0.0,0.0,0.0,0.0,0.0,0.0,0.0,0.0,0.0,0.0,0.0,0.0,-0.8455,-0.8767,-0.9096,-0.9535,-0.9994,-1.0363,-1.0708,-1.1049,-1.1403,-1.1634,-1.1768,-1.1748,-1.1581,-1.1293,-1.0777,-1.0452,-1.003,-0.9226,0.0,0.0,-0.8609,0.0,-0.9778,-1.0343,0.0,-1.1748,-1.2462,-1.2702,-1.282,-1.2865,-1.3027,-1.3141,-1.3165,-1.3336,-1.3506,-1.3664,-1.3677,-1.3677,-1.3677,-1.3819,-1.39,-1.39,-1.39,-1.39,-1.39,-1.2595,-1.2595,-1.39,-1.39,-1.39,-1.39,-1.39,-1.39,-1.39,-1.39,0.0,-1.39,-1.39,-1.3174,-1.1876,-1.1876,-1.1155,-0.9867,-0.9867,-0.9867,-0.9844,0.0,0.0,0.0,0.0,0.0,0.0,0.0,0.0,-0.5235,0.0,0.0,0.0,0.0,0.0,0.0,0.0,0.0,0.0,0.0,0.0,0.0,0.0,0.0,0.0,0.0,0.0,0.0,0.0,0.0,0.0,0.0,0.0,0.0,0.0,0.0,0.0,0.0,0.0,0.0,0.0,0.0,0.0,0.0,0.0,0.0,0.0,0.0,0.0,0.0,0.0,-0.8678,-0.9478,-0.9685,-0.9916,-1.0184,-1.0542,-1.0802,-1.1049,-1.1403,-1.1634,-1.174,-1.1585,-1.1301,-1.096,-1.0566,-0.9884,0.0,0.0,0.0,-0.8264,-0.8325,-0.8922,0.0,-1.0322,0.0,0.0,0.0,0.0,-1.2718,0.0,0.0,0.0,0.0,0.0,0.0,0.0,0.0,-1.3855,-1.3855,-1.3884,-1.39,-1.39,-1.39,-1.39,-1.39,-1.3611,-1.3611,-1.39,-1.39,-1.39,-1.39,-1.39,-1.39,-1.39,-1.39,0.0,-1.39,-1.39,-1.3757,-1.3468,-1.3468,-1.3321,-1.3035,-1.3035,-1.3035,-1.2993,0.0,0.0,0.0,0.0,0.0,0.0,0.0,-0.515,-0.5325,-0.5439,-0.5547,-0.5893,-0.6591,-0.6957,-0.7487,0.0,0.0,0.0,0.0,0.0,0.0,0.0,0.0,0.0,0.0,0.0,0.0,0.0,0.0,0.0,0.0,0.0,0.0,0.0,0.0,0.0,0.0,0.0,0.0,0.0,0.0,0.0,0.0,0.0,0.0,0.0,0.0,0.0,0.0,0.0,-0.8459,-0.9413,-0.977,-1.0014,-1.0233,-1.0586,-1.0826,-1.1049,-1.1403,-1.1634,-1.1732,-1.1545,-1.1232,-1.0777,-1.0038,0.0,0.0,0.0,0.0,-0.7854,-0.7752,0.0,0.0,0.0,0.0,0.0,0.0,0.0,0.0,0.0,0.0,0.0,0.0,0.0,0.0,0.0,0.0,-1.39,-1.39,-1.39,-1.39,-1.39,-1.39,-1.39,-1.39,-1.39,-1.39,-1.39,-1.39,-1.39,-1.39,-1.39,-1.39,-1.39,-1.39,0.0,-1.39,-1.39,-1.39,-1.39,-1.39,-1.39,-1.39,-1.39,-1.39,-1.3863,0.0,0.0,0.0,0.0,0.0,0.0,0.0,-0.5453,-0.5614,-0.5839,-0.5901,-0.6129,-0.6644,-0.6794,-0.7286,0.0,0.0,0.0,0.0,0.0,0.0,0.0,0.0,0.0,0.0,0.0,0.0,0.0,0.0,0.0,0.0,0.0,0.0,0.0,0.0,0.0,0.0,0.0,0.0,0.0,0.0,0.0,0.0,0.0,0.0,0.0,0.0,0.0,0.0,0.0,-0.8016,-0.8844,-0.9376,-0.9799,-1.0172,-1.0534,-1.0765,-1.0997,-1.139,-1.1577,-1.1622,-1.1476,-1.1143,-1.059,-0.9583,-0.8986,0.0,0.0,0.0,-0.748,-0.7313,0.0,0.0,0.0,0.0,0.0,0.0,0.0,0.0,0.0,0.0,0.0,0.0,0.0,0.0,0.0,0.0,0.0,-1.39,-1.39,-1.39,-1.39,-1.39,-1.39,-1.39,-1.39,-1.39,-1.39,-1.39,-1.39,-1.39,-1.39,-1.39,-1.39,-1.39,0.0,0.0,-1.39,-1.39,-1.39,-1.39,-1.39,-1.39,-1.39,-1.3876,-1.3823,0.0,0.0,0.0,0.0,0.0,0.0,0.0,-0.6069,-0.6319,-0.6654,-0.638,-0.6199,-0.6253,-0.673,-0.7111,0.0,0.0,0.0,0.0,0.0,0.0,0.0,0.0,0.0,0.0,0.0,0.0,0.0,0.0,0.0,0.0,0.0,0.0,0.0,0.0,0.0,0.0,0.0,0.0,0.0,0.0,0.0,0.0,0.0,0.0,0.0,0.0,0.0,0.0,0.0,0.0,-0.7724,-0.8268,-0.9116,-0.9981,-1.0351,0.0,0.0,-1.1358,-1.1386,-1.1269,-1.1252,-1.0863,-1.0286,-0.9527,0.0,0.0,0.0,-0.7102,-0.6932,-0.7374,-0.7675,0.0,0.0,0.0,0.0,0.0,0.0,0.0,0.0,0.0,0.0,0.0,0.0,0.0,0.0,0.0,0.0,-1.39,-1.39,-1.39,-1.39,-1.39,-1.39,-1.39,-1.39,-1.39,-1.39,-1.39,-1.39,-1.39,-1.39,-1.39,-1.39,-1.39,0.0,0.0,-1.39,-1.39,-1.39,-1.39,-1.39,-1.39,-1.39,-1.3803,-1.3644,0.0,0.0,0.0,0.0,0.0,0.0,-0.6232,-0.6407,-0.658,-0.6676,-0.6551,-0.6405,-0.6218,-0.6391,-0.6815,-0.7503,0.0,0.0,0.0,0.0,0.0,0.0,0.0,0.0,0.0,0.0,0.0,0.0,0.0,0.0,0.0,0.0,0.0,0.0,0.0,0.0,0.0,0.0,0.0,0.0,0.0,0.0,0.0,0.0,0.0,0.0,0.0,0.0,0.0,0.0,0.0,0.0,-0.7452,-0.8073,0.0,0.0,-1.0063,-1.0469,-1.0895,-1.1118,-1.1171,-1.0956,-1.0582,-1.0054,-0.9222,0.0,0.0,-0.7261,-0.6911,-0.6794,-0.7106,-0.7399,-0.7837,0.0,0.0,0.0,0.0,0.0,0.0,0.0,0.0,0.0,0.0,0.0,0.0,0.0,0.0,0.0,-1.39,-1.39,-1.39,-1.39,-1.39,-1.39,-1.39,-1.39,-1.39,-1.39,-1.39,-1.39,-1.39,-1.39,-1.39,-1.39,-1.39,0.0,0.0,-1.39,-1.39,-1.39,-1.39,-1.39,-1.3888,-1.3786,-1.3701,-1.3604,0.0,0.0,0.0,0.0,0.0,-0.6256,-0.6579,-0.6598,-0.6637,-0.69,-0.6717,-0.6509,-0.6531,-0.6501,-0.6929,-0.8072,-0.7871,0.0,0.0,0.0,0.0,0.0,0.0,0.0,0.0,0.0,0.0,0.0,0.0,0.0,0.0,0.0,0.0,0.0,0.0,0.0,0.0,0.0,0.0,0.0,0.0,0.0,0.0,0.0,0.0,0.0,0.0,0.0,0.0,0.0,0.0,0.0,0.0,0.0,0.0,0.0,-0.9502,-1.0014,-1.0424,-1.0716,-1.0863,-1.0668,-1.0306,-0.9795,0.0,0.0,-0.7684,-0.7138,-0.6814,-0.6749,-0.6991,-0.7204,-0.7602,0.0,0.0,0.0,0.0,0.0,0.0,0.0,0.0,0.0,0.0,0.0,0.0,0.0,0.0,0.0,0.0,-1.39,-1.39,-1.39,-1.39,-1.39,-1.39,-1.39,-1.39,-1.39,-1.39,-1.39,-1.39,-1.39,-1.39,-1.39,-1.39,0.0,0.0,-1.39,-1.39,-1.39,-1.39,-1.3868,-1.3811,-1.3689,-1.3575,-1.3445,0.0,0.0,0.0,0.0,0.0,0.0,-0.7095,-0.6641,-0.6586,-0.7628,-0.6936,-0.6602,-0.73,-0.715,-0.7499,-0.8672,-0.7771,0.0,0.0,0.0,0.0,0.0,0.0,0.0,0.0,0.0,0.0,0.0,0.0,0.0,0.0,0.0,0.0,0.0,0.0,0.0,0.0,0.0,0.0,0.0,0.0,0.0,-0.5896,0.0,0.0,0.0,0.0,0.0,0.0,0.0,0.0,0.0,0.0,0.0,0.0,0.0,-0.895,-0.9482,-1.0022,-1.0172,-1.0213,-1.0391,-1.003,-0.949,0.0,-0.8272,-0.7684,-0.7138,-0.6814,-0.6749,-0.6991,-0.7102,-0.7464,-0.8174,0.0,0.0,0.0,0.0,0.0,0.0,0.0,0.0,0.0,0.0,0.0,0.0,0.0,0.0,0.0,-1.39,-1.39,-1.39,-1.39,-1.39,-1.39,-1.39,-1.39,-1.39,-1.39,-1.39,-1.39,-1.39,-1.39,0.0,0.0,0.0,0.0,-1.39,-1.39,-1.39,-1.39,-1.3794,-1.3644,-1.3644,-1.3413,-1.3096,0.0,0.0,0.0,0.0,0.0,0.0,0.0,-0.6758,-0.6949,-0.7174,-0.7064,-0.6906,-0.6689,-0.6844,-0.7126,-0.7418,-0.7756,0.0,0.0,0.0,0.0,0.0,0.0,0.0,0.0,0.0,-0.6937,-0.7099,-0.688,0.0,0.0,0.0,0.0,0.0,0.0,0.0,0.0,0.0,0.0,0.0,0.0,-0.5722,-0.5888,0.0,0.0,0.0,0.0,0.0,0.0,0.0,0.0,0.0,0.0,0.0,0.0,-0.7102,-0.8008,0.0,-0.9027,-0.9336,-0.9539,-0.9234,-0.9031,-0.8763,-0.8219,-0.7732,-0.7277,-0.6863,-0.6733,-0.6749,-0.6991,-0.7102,-0.75,-0.8345,-0.8528,0.0,0.0,0.0,0.0,0.0,0.0,0.0,0.0,0.0,0.0,0.0,0.0,0.0,0.0,-1.39,-1.39,-1.39,-1.39,-1.39,-1.39,-1.39,-1.39,-1.39,-1.39,-1.39,-1.39,-1.39,-1.39,0.0,0.0,0.0,0.0,-1.39,-1.3831,-1.3725,-1.3725,-1.3616,-1.3441,-1.3315,-1.3193,-1.3076,0.0,0.0,0.0,0.0,0.0,0.0,0.0,-0.6457,-0.6712,-0.6984,-0.7014,-0.7012,-0.704,-0.7176,-0.7402,-0.7697,-0.8144,0.0,0.0,0.0,0.0,0.0,0.0,0.0,0.0,-0.6864,-0.6754,-0.681,-0.6644,-0.6687,-0.6818,-0.6478,0.0,0.0,0.0,0.0,0.0,0.0,0.0,0.0,-0.5515,-0.5584,-0.5689,0.0,0.0,0.0,0.0,0.0,0.0,0.0,0.0,0.0,0.0,0.0,0.0,0.0,-0.7033,-0.7833,0.0,-0.8601,-0.8873,-0.8544,-0.841,-0.8251,-0.7849,-0.7431,-0.7041,-0.6757,-0.6692,-0.6745,-0.6991,-0.7102,-0.7476,-0.8235,-0.8475,0.0,0.0,0.0,0.0,0.0,0.0,0.0,0.0,0.0,0.0,0.0,0.0,0.0,0.0,-1.3701,-1.3701,-1.3701,-1.3831,-1.39,-1.39,-1.39,-1.39,-1.39,-1.39,-1.39,-1.39,-1.39,-1.39,0.0,0.0,0.0,0.0,-1.3729,-1.3636,-1.3543,-1.3543,-1.3429,-1.325,-1.3137,-1.3051,-1.2982,0.0,0.0,0.0,0.0,0.0,0.0,0.0,-0.5903,-0.6018,-0.7035,-0.6809,-0.6963,-0.8005,-0.7852,-0.8092,-0.9021,-0.8846,0.0,0.0,0.0,0.0,0.0,0.0,0.0,0.0,-0.761,-0.7302,-0.631,-0.6825,-0.6764,-0.6306,-0.6324,-0.616,-0.5851,0.0,0.0,0.0,0.0,0.0,0.0,-0.5297,-0.5297,0.0,0.0,0.0,0.0,0.0,0.0,0.0,0.0,0.0,0.0,0.0,0.0,0.0,0.0,0.0,0.0,0.0,-0.7902,-0.8191,-0.8178,-0.8057,-0.7894,-0.7724,-0.7368,0.0,-0.6712,-0.6676,-0.6741,-0.7023,-0.7131,-0.7435,-0.8016,0.0,0.0,0.0,0.0,0.0,0.0,0.0,0.0,0.0,0.0,0.0,0.0,0.0,0.0,0.0,-1.3372,-1.3372,-1.3372,-1.3693,-1.3863,-1.3863,-1.3863,-1.3863,-1.3863,-1.3863,-1.3863,-1.3863,-1.3863,-1.3863,0.0,0.0,0.0,0.0,-1.3441,-1.3364,-1.3352,-1.3352,-1.3238,-1.3076,-1.3076,-1.2974,-1.2836,0.0,0.0,0.0,0.0,0.0,0.0,0.0,0.0,0.0,0.0,-0.6953,-0.7088,-0.7264,-0.7539,-0.7774,0.0,0.0,0.0,0.0,0.0,0.0,0.0,0.0,0.0,0.0,-0.7337,-0.6809,-0.6134,-0.6402,-0.6437,-0.6181,-0.6388,-0.6341,-0.6019,-0.5851,-0.5632,0.0,0.0,0.0,0.0,-0.5297,-0.5297,0.0,0.0,0.0,0.0,-0.5357,-0.5386,0.0,0.0,0.0,0.0,0.0,0.0,0.0,0.0,-0.5734,-0.588,-0.6233,0.0,-0.7232,-0.709,-0.7127,-0.7155,0.0,-0.6838,-0.6692,0.0,0.0,-0.6814,-0.7273,-0.7395,-0.7776,0.0,0.0,0.0,0.0,0.0,0.0,0.0,0.0,0.0,0.0,0.0,0.0,0.0,0.0,0.0,0.0,-1.3372,-1.3372,-1.3372,-1.3453,-1.3498,-1.3498,-1.3498,-1.3498,-1.3498,-1.3498,-1.3498,-1.3498,-1.3498,-1.3498,0.0,0.0,0.0,-1.3433,-1.3388,-1.3287,-1.3161,-1.3161,-1.3051,-1.2897,-1.2897,-1.2873,-1.2836,0.0,0.0,0.0,0.0,0.0,0.0,0.0,0.0,0.0,0.0,0.0,-0.7011,-0.7078,-0.7452,0.0,0.0,0.0,0.0,0.0,0.0,0.0,0.0,0.0,-0.8771,-0.7925,-0.7551,-0.6965,-0.6208,-0.6318,-0.6336,-0.6253,-0.6417,-0.6328,-0.5969,-0.5686,-0.5445,0.0,0.0,0.0,0.0,-0.5297,0.0,0.0,0.0,0.0,0.0,-0.5297,-0.5297,0.0,-0.5297,-0.5297,-0.5297,0.0,0.0,0.0,0.0,-0.5438,-0.5531,-0.5713,-0.6343,-0.6999,-0.6896,-0.694,-0.7054,-0.696,0.0,0.0,0.0,0.0,0.0,-0.7281,0.0,0.0,0.0,0.0,0.0,0.0,0.0,0.0,0.0,0.0,0.0,0.0,0.0,0.0,0.0,0.0,0.0,0.0,-1.3124,-1.3124,-1.3124,-1.3124,-1.3206,-1.3368,-1.3372,-1.3372,-1.3372,-1.3372,-1.3372,-1.3372,-1.3372,-1.3372,0.0,0.0,0.0,-1.3238,-1.3161,-1.3068,-1.2974,-1.2974,-1.2917,-1.2836,-1.2836,-1.2836,-1.2836,0.0,0.0,0.0,0.0,0.0,0.0,0.0,0.0,0.0,0.0,0.0,0.0,0.0,0.0,0.0,0.0,0.0,0.0,0.0,0.0,0.0,0.0,0.0,-0.9086,-0.7925,-0.7871,-0.7328,-0.6223,-0.631,-0.6316,-0.6339,-0.6424,-0.6254,-0.5872,-0.5486,-0.5321,0.0,0.0,0.0,-0.5297,-0.5297,0.0,0.0,0.0,0.0,0.0,0.0,0.0,0.0,-0.5297,-0.5297,-0.5297,-0.5297,0.0,0.0,0.0,0.0,0.0,-0.5628,-0.6331,-0.6976,-0.6962,-0.7049,-0.722,-0.7192,0.0,0.0,0.0,0.0,0.0,0.0,0.0,0.0,0.0,0.0,0.0,0.0,0.0,0.0,0.0,0.0,0.0,0.0,0.0,0.0,0.0,0.0,0.0,0.0,-1.2836,-1.2836,-1.2836,-1.2836,-1.2982,-1.3287,-1.3291,-1.3291,-1.3291,-1.3291,-1.3291,-1.3291,-1.3291,-1.3291,-1.3283,0.0,0.0,-1.3043,-1.2897,-1.2836,-1.2836,-1.2836,-1.2836,-1.2836,-1.2836,-1.2836,-1.2836,0.0,0.0,0.0,0.0,0.0,0.0,0.0,0.0,0.0,0.0,0.0,0.0,0.0,0.0,0.0,0.0,0.0,0.0,0.0,0.0,0.0,0.0,-0.9614,-0.9086,-0.7925,-0.7771,-0.7117,-0.5883,-0.6194,-0.6249,-0.5982,-0.644,-0.6379,-0.588,-0.5665,-0.5434,-0.5297,-0.5297,-0.5297,-0.5297,0.0,0.0,0.0,0.0,0.0,0.0,0.0,0.0,0.0,-0.5297,-0.5297,-0.5297,-0.5297,0.0,0.0,0.0,0.0,0.0,-0.5933,-0.6611,-0.7074,-0.6615,-0.6867,-0.7188,0.0,0.0,0.0,0.0,0.0,0.0,0.0,0.0,0.0,0.0,0.0,0.0,0.0,0.0,0.0,0.0,0.0,0.0,0.0,0.0,0.0,0.0,0.0,0.0,0.0,-1.2836,-1.2836,-1.2836,-1.2836,-1.286,-1.2917,-1.2917,-1.2917,-1.2917,-1.2917,-1.2917,-1.2917,-1.2917,-1.2917,-1.2917,0.0,-1.2877,-1.2873,-1.2848,-1.2836,-1.2836,-1.2836,-1.2836,-1.2836,-1.2836,-1.2836,-1.2836,0.0,0.0,0.0,0.0,0.0,0.0,0.0,0.0,0.0,0.0,0.0,0.0,0.0,0.0,0.0,0.0,0.0,0.0,0.0,0.0,0.0,-0.9372,-0.9268,-0.8718,-0.7824,-0.7531,-0.6885,-0.5983,-0.6231,-0.635,-0.6176,-0.6233,-0.6075,-0.573,-0.5551,-0.5374,-0.5297,-0.5297,-0.5297,-0.5297,0.0,0.0,0.0,0.0,0.0,0.0,0.0,0.0,0.0,0.0,-0.5297,-0.5297,-0.5297,0.0,0.0,0.0,0.0,0.0,-0.5653,-0.6314,-0.6903,-0.6745,-0.7334,-0.7902,0.0,0.0,0.0,0.0,0.0,0.0,0.0,0.0,0.0,0.0,0.0,0.0,0.0,0.0,0.0,0.0,0.0,0.0,0.0,0.0,0.0,0.0,0.0,0.0,0.0,0.0,-1.2836,-1.2836,-1.2836,-1.2836,-1.2836,-1.2836,-1.2836,-1.2836,-1.2836,-1.2836,-1.2836,-1.2836,-1.2836,-1.2836,0.0,-1.2836,-1.2836,-1.2836,-1.2836,-1.2836,-1.2836,-1.2836,-1.2836,-1.2836,-1.2836,-1.2836,0.0,0.0,0.0,0.0,0.0,0.0,0.0,0.0,0.0,0.0,0.0,0.0,0.0,0.0,0.0,0.0,0.0,0.0,0.0,0.0,-0.9094,-0.9118,-0.8734,-0.8281,-0.7805,-0.7277,-0.6736,-0.6117,-0.6291,-0.6415,-0.6412,-0.6055,-0.5787,-0.5604,-0.5418,-0.5337,-0.5297,-0.5297,-0.5297,-0.5297,0.0,0.0,0.0,0.0,0.0,0.0,0.0,0.0,0.0,0.0,0.0,0.0,0.0,0.0,0.0,-0.5297,-0.5297,-0.5325,-0.545,-0.6107,-0.6757,-0.7013,0.0,-0.8373,-0.8357,0.0,0.0,0.0,0.0,0.0,0.0,0.0,0.0,0.0,0.0,0.0,0.0,0.0,0.0,0.0,0.0,0.0,0.0,0.0,0.0,0.0,0.0,0.0,0.0,0.0,-1.2836,-1.2836,-1.2836,-1.2836,-1.2836,-1.2836,-1.2836,-1.2836,-1.2836,-1.2836,-1.2836,-1.2836,-1.2836,-1.2836,-1.2836,-1.2836,-1.2836,-1.2836,-1.2836,-1.2836,-1.2836,-1.2836,-1.2836,-1.2836,-1.2836,-1.2836,0.0,0.0,0.0,0.0,0.0,0.0,0.0,0.0,0.0,0.0,0.0,0.0,0.0,0.0,0.0,0.0,0.0,0.0,0.0,0.0,-0.8757,-0.8849,-0.8163,-0.7829,-0.7952,-0.7295,-0.6673,-0.6117,-0.6289,-0.6408,-0.6412,-0.6055,-0.5787,-0.5612,-0.56,-0.5446,-0.5297,-0.5297,-0.5297,-0.5297,-0.5297,0.0,0.0,0.0,0.0,0.0,0.0,0.0,0.0,0.0,0.0,0.0,0.0,0.0,-0.5297,-0.5297,-0.5297,-0.5406,-0.5953,-0.6388,-0.6818,-0.7317,0.0,0.0,-0.8434,0.0,0.0,0.0,0.0,0.0,0.0,0.0,0.0,0.0,0.0,0.0,0.0,0.0,0.0,0.0,0.0,0.0,0.0,0.0,0.0,0.0,0.0,0.0,0.0,0.0,0.0,-1.2836,-1.2836,-1.2836,-1.2836,-1.2836,-1.2836,-1.2836,-1.2836,-1.2836,-1.2836,-1.2836,-1.2836,-1.2836,-1.2836,-1.2836,-1.2836,-1.2836,-1.2836,-1.2836,-1.2836,-1.2836,-1.2836,-1.2836,-1.2836,-1.2836,0.0,0.0,0.0,0.0,0.0,0.0,0.0,0.0,0.0,0.0,0.0,0.0,0.0,0.0,0.0,0.0,0.0,0.0,0.0,0.0,-0.814,-0.7918,-0.7544,-0.7298,-0.7187,-0.6702,-0.634,-0.6166,-0.6244,-0.6136,-0.5912,-0.5778,-0.562,-0.5394,-0.5394,-0.5357,-0.5297,-0.5297,-0.5297,-0.5297,-0.5297,-0.5297,0.0,0.0,0.0,0.0,0.0,0.0,0.0,0.0,-0.5297,-0.5297,-0.5297,-0.5297,-0.5297,-0.5297,-0.5297,-0.5341,-0.56,-0.6241,0.0,0.0,0.0,0.0,0.0,0.0,0.0,0.0,0.0,0.0,0.0,0.0,0.0,0.0,0.0,0.0,0.0,0.0,0.0,0.0,0.0,0.0,0.0,0.0,0.0,0.0,0.0,0.0,0.0,0.0,0.0,-1.2836,-1.2836,-1.2836,-1.2836,-1.2836,-1.2836,-1.2836,-1.2836,-1.2836,-1.2836,-1.2836,-1.2836,-1.2836,-1.2836,-1.2836,-1.2836,-1.2836,-1.2836,-1.2836,-1.2836,-1.2836,-1.2836,-1.2836,-1.2836,-1.2836,0.0,0.0,0.0,0.0,0.0,0.0,0.0,0.0,0.0,0.0,0.0,0.0,0.0,0.0,0.0,0.0,0.0,0.0,-0.7482,-0.7781,-0.7736,-0.7242,-0.7016,-0.6826,-0.6524,-0.6107,-0.5947,-0.6125,-0.6068,-0.5852,-0.5608,-0.5555,-0.541,-0.5297,-0.5297,-0.5297,-0.5297,-0.5297,-0.5297,-0.5297,-0.5297,-0.5297,0.0,0.0,0.0,0.0,0.0,0.0,0.0,0.0,-0.5297,-0.5297,-0.5297,-0.5297,-0.5297,-0.5297,-0.5378,-0.5466,-0.5466,-0.618,-0.6936,0.0,0.0,0.0,0.0,0.0,0.0,0.0,0.0,0.0,0.0,0.0,0.0,0.0,0.0,0.0,0.0,0.0,0.0,0.0,0.0,0.0,0.0,0.0,0.0,0.0,0.0,0.0,0.0,0.0,0.0,-1.2836,-1.2836,-1.2836,-1.2836,-1.2836,-1.2836,-1.2836,-1.2836,-1.2836,-1.2836,-1.2836,-1.2836,-1.2836,-1.2836,-1.2836,-1.2836,-1.2836,-1.2836,-1.2836,-1.2836,-1.2836,-1.2836,-1.2836,-1.2836,-1.2836,0.0,0.0,0.0,0.0,0.0,0.0,0.0,0.0,0.0,0.0,0.0,0.0,0.0,0.0,0.0,0.0,0.0,0.0,-0.7398,-0.7708,-0.7558,-0.682,-0.6654,-0.6479,-0.6195,-0.5618,-0.5474,-0.5888,-0.5701,-0.5612,-0.5604,-0.5378,-0.5297,-0.5297,-0.5297,-0.5297,-0.5297,-0.5297,-0.5297,-0.5297,-0.5297,-0.5297,-0.5297,0.0,0.0,0.0,0.0,0.0,0.0,0.0,-0.5297,-0.5297,-0.5297,-0.5301,-0.5305,-0.5297,-0.5608,-0.5888,-0.5888,-0.6274,0.0,0.0,0.0,0.0,0.0,0.0,0.0,0.0,0.0,0.0,0.0,0.0,0.0,0.0,0.0,0.0,0.0,0.0,0.0,0.0,0.0,0.0,0.0,0.0,0.0,0.0,0.0,0.0,0.0,0.0,-1.2836,-1.2836,-1.2836,-1.2836,-1.2836,-1.2836,-1.2836,-1.2836,-1.2836,-1.2836,-1.2836,-1.2836,-1.2836,-1.2836,-1.2836,-1.2836,-1.2836,-1.2836,-1.2836,-1.2836,-1.2836,-1.2836,-1.2836,-1.2836,-1.2836,-1.2836,0.0,0.0,0.0,0.0,0.0,0.0,0.0,0.0,0.0,0.0,0.0,0.0,0.0,0.0,0.0,0.0,0.0,0.0,-0.7412,-0.7193,-0.6849,-0.6316,-0.5991,-0.5708,-0.5413,-0.5341,-0.541,-0.5693,-0.564,-0.5547,-0.5374,-0.5321,-0.5297,-0.5297,-0.5297,-0.5297,-0.5297,-0.5297,-0.5297,-0.5297,-0.5297,-0.5297,-0.5297,0.0,0.0,0.0,0.0,0.0,0.0,0.0,0.0,0.0,-0.5297,-0.547,-0.5681,-0.5374,-0.5608,-0.586,-0.573,-0.6363,0.0,0.0,0.0,0.0,0.0,0.0,0.0,0.0,0.0,0.0,0.0,0.0,0.0,0.0,0.0,0.0,0.0,0.0,0.0,0.0,0.0,0.0,0.0,0.0,0.0,0.0,0.0,0.0,0.0,0.0,-1.2836,-1.2836,-1.2836,-1.2836,-1.2836,-1.2836,-1.2836,-1.2836,-1.2836,-1.2836,-1.2836,-1.2836,-1.2836,-1.2836,-1.2836,-1.2836,-1.2836,-1.2836,-1.2836,-1.2836,-1.2836,-1.2836,-1.2836,-1.2836,-1.2836,-1.2836,0.0,0.0,0.0,0.0,0.0,0.0,0.0,0.0,0.0,0.0,0.0,-0.6124,0.0,0.0,0.0,0.0,0.0,0.0,0.0,-0.6816,-0.6324,-0.5679,-0.5489,-0.5305,-0.5128,-0.519,-0.5295,-0.5401,-0.5474,-0.5402,-0.5297,-0.5297,-0.5297,-0.5297,-0.5297,-0.5297,-0.5297,-0.5297,-0.5297,-0.5297,-0.5297,-0.5297,-0.5297,0.0,0.0,0.0,0.0,0.0,0.0,0.0,0.0,0.0,-0.5297,-0.5446,-0.5661,-0.5588,-0.5819,-0.612,-0.6225,0.0,0.0,0.0,0.0,0.0,0.0,0.0,0.0,0.0,0.0,0.0,0.0,0.0,0.0,0.0,0.0,0.0,0.0,0.0,0.0,0.0,0.0,0.0,0.0,0.0,0.0,0.0,0.0,0.0,0.0,-1.2836,-1.2836,-1.2836,-1.2836,-1.2836,-1.2836,-1.2836,-1.2836,-1.2836,-1.2836,-1.2836,-1.2836,-1.2836,-1.2836,-1.2836,-1.2836,-1.2836,-1.2836,-1.2836,-1.2836,-1.2836,-1.2836,-1.2836,-1.2836,-1.2836,-1.2836,-1.2836,0.0,0.0,-0.5811,-0.5811,0.0,0.0,0.0,0.0,0.0,0.0,0.0,-0.5865,0.0,0.0,0.0,-0.7003,0.0,0.0,0.0,0.0,-0.5959,-0.5053,-0.5097,-0.5167,-0.5096,-0.5088,-0.508,-0.508,-0.5247,-0.5273,-0.5273,-0.5289,-0.5297,-0.5297,-0.5297,-0.5289,0.0,-0.5273,-0.5273,-0.5273,-0.5273,-0.5285,-0.5297,-0.5281,0.0,0.0,0.0,0.0,0.0,0.0,0.0,0.0,-0.5297,-0.5321,-0.5406,-0.5754,-0.6116,-0.6526,0.0,0.0,0.0,0.0,0.0,0.0,0.0,0.0,0.0,0.0,0.0,0.0,0.0,0.0,0.0,0.0,0.0,0.0,0.0,0.0,0.0,0.0,0.0,0.0,0.0,0.0,0.0,0.0,0.0,0.0,0.0,-1.2804,-1.2812,-1.2812,-1.2828,-1.2836,-1.2836,-1.2836,-1.2836,-1.2836,-1.2836,-1.2836,-1.2836,-1.2836,-1.2836,-1.2836,-1.2836,-1.2836,-1.2836,-1.2836,-1.2836,-1.2836,-1.2836,-1.2836,-1.2836,-1.2836,-1.2836,-1.2836,0.0,0.0,-0.5811,-0.5811,0.0,0.0,0.0,0.0,-0.5811,-0.5811,-0.5811,-0.5809,-0.5851,-0.6017,0.0,-0.6679,-0.6492,0.0,0.0,0.0,-0.5313,-0.5101,-0.4952,-0.5018,-0.5233,-0.5153,-0.508,-0.508,-0.5121,-0.5141,-0.5141,-0.5233,-0.5297,-0.5297,-0.5297,-0.5221,-0.5141,-0.5141,-0.5141,-0.5141,-0.5141,-0.5226,-0.5285,-0.5194,-0.5226,0.0,0.0,0.0,0.0,0.0,0.0,0.0,-0.5297,-0.549,-0.5734,-0.5474,-0.586,-0.6444,0.0,0.0,0.0,0.0,0.0,0.0,0.0,0.0,0.0,0.0,0.0,0.0,0.0,0.0,0.0,0.0,0.0,0.0,0.0,0.0,0.0,0.0,0.0,0.0,0.0,0.0,0.0,0.0,0.0,0.0,-1.2422,-1.2548,-1.2621,-1.2621,-1.2763,-1.2836,-1.2836,-1.2836,-1.2836,0.0,-1.2836,-1.2836,-1.2836,-1.2836,-1.2836,-1.2836,-1.2836,-1.2836,-1.2836,-1.2836,-1.2836,-1.2836,-1.2836,-1.2836,-1.2836,-1.2836,-1.2836,-1.2836,0.0,0.0,0.0,0.0,0.0,0.0,0.0,0.0,-0.5811,-0.5811,-0.5787,-0.5725,-0.5655,-0.5842,0.0,0.0,-0.6019,-0.5945,0.0,0.0,-0.4952,-0.4799,-0.4721,-0.4759,-0.5032,-0.4918,-0.4865,-0.495,-0.495,-0.4995,-0.5088,-0.5352,-0.5422,-0.5422,-0.5422,-0.5381,-0.5206,-0.5121,-0.508,-0.5072,-0.4987,-0.506,-0.5202,-0.5019,-0.5007,-0.5028,-0.4983,0.0,0.0,0.0,0.0,0.0,0.0,0.0,-0.5628,-0.5616,-0.5933,-0.6384,0.0,0.0,0.0,0.0,0.0,0.0,0.0,0.0,0.0,0.0,0.0,0.0,0.0,0.0,0.0,0.0,0.0,0.0,0.0,0.0,0.0,0.0,0.0,0.0,0.0,0.0,0.0,0.0,0.0,-1.2308,-1.2308,-1.2393,-1.2442,-1.2442,-1.2536,-1.2584,-1.2584,-1.2584,-1.2584,-1.2584,-1.2666,-1.2751,-1.2836,-1.2836,-1.2836,-1.2836,-1.2836,-1.2836,-1.2836,-1.2836,-1.2836,-1.2836,-1.2836,-1.2836,-1.2836,-1.2836,-1.2836,-1.2836,0.0,0.0,0.0,0.0,0.0,0.0,0.0,0.0,0.0,-0.5787,-0.5732,-0.5638,-0.5529,-0.5662,-0.5665,0.0,0.0,0.0,-0.4919,0.0,0.0,-0.4485,-0.4501,-0.4582,-0.48,-0.4586,-0.4582,-0.4804,-0.4775,0.0,0.0,0.0,0.0,-0.5612,-0.5612,-0.5482,-0.5193,-0.5096,-0.5015,-0.4974,-0.482,-0.4869,-0.5011,-0.4828,-0.478,-0.48,-0.4771,-0.4897,-0.508,-0.508,0.0,0.0,0.0,0.0,-0.5357,-0.5709,-0.5941,-0.6334,0.0,0.0,0.0,0.0,0.0,0.0,0.0,0.0,0.0,0.0,0.0,0.0,0.0,0.0,0.0,0.0,0.0,0.0,0.0,0.0,0.0,0.0,0.0,0.0,0.0,0.0,0.0,0.0,0.0,-1.2215,-1.2215,-1.2243,-1.2259,-1.2259,-1.2288,-1.2308,-1.2308,-1.2308,-1.2308,-1.2308,-1.245,-1.2601,-1.2747,-1.2775,-1.2808,-1.2836,-1.2836,-1.2836,-1.2836,-1.2836,-1.2836,-1.2836,-1.2836,-1.2836,-1.2836,-1.2836,-1.2836,-1.2836,0.0,0.0,0.0,0.0,0.0,0.0,0.0,0.0,0.0,0.0,-0.5708,-0.5638,-0.5529,-0.5526,-0.5528,-0.5501,-0.5033,-0.4792,0.0,0.0,0.0,-0.4493,-0.4501,-0.4582,-0.48,-0.4586,-0.4582,-0.4804,0.0,0.0,0.0,0.0,0.0,-0.5612,0.0,0.0,-0.4877,-0.4849,-0.4755,-0.4566,-0.4546,-0.4638,-0.482,-0.4598,-0.4626,-0.4784,-0.4586,-0.4796,-0.508,-0.508,-0.5202,0.0,0.0,0.0,0.0,-0.5357,-0.5661,0.0,0.0,0.0,0.0,0.0,0.0,0.0,0.0,0.0,0.0,0.0,0.0,0.0,0.0,0.0,0.0,0.0,0.0,0.0,0.0,0.0,0.0,0.0,0.0,0.0,0.0,0.0,0.0,0.0,-1.1833,-1.1845,-1.1845,-1.1987,-1.2065,-1.2065,-1.2223,-1.2308,-1.2308,-1.2308,-1.2308,-1.2308,-1.2328,-1.2353,-1.2381,-1.2532,-1.2686,-1.2836,-1.2836,-1.2836,-1.2836,-1.2836,-1.2836,-1.2836,-1.2836,-1.2836,-1.2836,-1.2836,-1.2836,-1.2836,0.0,0.0,0.0,0.0,0.0,0.0,0.0,0.0,0.0,0.0,0.0,-0.5512,-0.5442,-0.5246,-0.5004,-0.4781,-0.4354,0.0,0.0,0.0,0.0,0.0,-0.4341,-0.443,-0.4503,-0.443,-0.4479,-0.4614,0.0,0.0,0.0,-0.5766,-0.5929,0.0,0.0,0.0,0.0,0.0,-0.4759,-0.4674,-0.4475,-0.4682,-0.5008,-0.4576,-0.4629,-0.4909,-0.4528,-0.456,-0.4796,-0.4893,-0.5048,-0.5218,-0.5269,0.0,0.0,0.0,0.0,0.0,0.0,0.0,0.0,0.0,0.0,0.0,0.0,0.0,0.0,0.0,0.0,0.0,0.0,0.0,0.0,0.0,0.0,0.0,0.0,0.0,0.0,0.0,0.0,0.0,0.0,0.0,0.0,0.0,-1.1776,-1.1776,-1.1776,-1.1849,-1.189,-1.189,-1.1967,-1.2012,-1.2012,-1.2012,-1.2056,-1.215,-1.215,-1.2207,-1.2308,-1.2385,-1.2515,-1.269,-1.2791,-1.2836,-1.2836,-1.2836,-1.2836,-1.2836,-1.2836,-1.2836,-1.2836,-1.2836,-1.2836,-1.2836,0.0,0.0,0.0,0.0,0.0,0.0,0.0,0.0,0.0,0.0,0.0,-0.5157,-0.5087,0.0,0.0,0.0,-0.3844,0.0,0.0,0.0,0.0,0.0,0.0,-0.4227,-0.4316,-0.4316,-0.4365,0.0,0.0,0.0,-0.5888,-0.5888,-0.6225,0.0,-0.64,0.0,0.0,0.0,0.0,-0.4922,-0.4654,-0.4873,-0.5257,-0.4905,-0.5025,-0.5226,-0.4775,0.0,0.0,0.0,0.0,0.0,0.0,0.0,0.0,0.0,0.0,0.0,0.0,0.0,0.0,0.0,0.0,0.0,0.0,0.0,0.0,0.0,0.0,0.0,0.0,0.0,0.0,0.0,0.0,0.0,0.0,0.0,0.0,0.0,0.0,0.0,0.0,0.0,0.0,0.0,-1.1679,-1.1707,-1.1707,-1.1752,-1.1776,-1.1776,-1.1776,-1.1776,-1.1776,-1.1776,-1.1841,-1.1967,-1.1967,-1.204,-1.2174,-1.2219,-1.2308,-1.2438,-1.267,-1.2767,-1.2771,-1.282,-1.2836,-1.2836,-1.2836,-1.2836,-1.2836,-1.2836,-1.2836,-1.2836,0.0,0.0,0.0,0.0,0.0,0.0,0.0,0.0,0.0,0.0,0.0,-0.4462,-0.4274,-0.4242,-0.4108,-0.3746,-0.3714,0.0,0.0,0.0,0.0,0.0,0.0,0.0,-0.4312,-0.4316,0.0,0.0,0.0,0.0,-0.5888,-0.5888,-0.6359,-0.7175,-0.6643,-0.6116,-0.5612,0.0,0.0,-0.5269,-0.5249,-0.5265,-0.5349,-0.5872,-0.6026,-0.5819,-0.5616,0.0,0.0,0.0,0.0,0.0,0.0,0.0,0.0,0.0,0.0,0.0,0.0,0.0,0.0,0.0,0.0,0.0,0.0,0.0,0.0,0.0,0.0,0.0,0.0,0.0,0.0,0.0,0.0,0.0,0.0,0.0,0.0,0.0,0.0,0.0,0.0,0.0,0.0,0.0,-1.1415,-1.1516,-1.1516,-1.1683,-1.1776,-1.1776,-1.1776,-1.1776,-1.1776,-1.1776,-1.178,-1.1788,-1.1788,-1.1797,-1.1809,-1.1971,-1.2048,-1.2077,-1.2426,-1.258,-1.2592,-1.2767,-1.2836,-1.2836,-1.2836,-1.2836,-1.2836,-1.2836,-1.2836,-1.2836,0.0,0.0,0.0,0.0,0.0,0.0,0.0,0.0,0.0,0.0,0.0,0.0,0.0,-0.4473,-0.4151,-0.3746,-0.3495,0.0,0.0,0.0,0.0,0.0,0.0,0.0,0.0,0.0,0.0,0.0,0.0,-0.4775,-0.549,-0.549,-0.5839,-0.6363,-0.6278,-0.6266,-0.6258,-0.5502,0.0,0.0,-0.5297,-0.5498,-0.5808,-0.5949,-0.6225,-0.6584,0.0,0.0,0.0,0.0,0.0,0.0,-0.5261,-0.5226,-0.5092,-0.5157,0.0,0.0,0.0,0.0,0.0,0.0,0.0,0.0,0.0,0.0,0.0,0.0,0.0,0.0,0.0,0.0,0.0,0.0,0.0,0.0,0.0,0.0,0.0,0.0,0.0,0.0,0.0,0.0,0.0,0.0,0.0,-1.1321,-1.1321,-1.1382,-1.1476,-1.1593,-1.1602,-1.1654,-1.1776,-1.1776,-1.1776,-1.1776,-1.1776,-1.1776,-1.178,-1.1841,-1.1866,-1.1878,-1.2117,-1.2288,-1.241,-1.2588,-1.2661,-1.2674,-1.2791,-1.2836,-1.2836,-1.2836,-1.2836,-1.2836,0.0,0.0,0.0,-0.6424,0.0,-0.5891,-0.5891,-0.5593,-0.5353,-0.5287,0.0,0.0,0.0,0.0,-0.4078,-0.372,-0.3466,-0.3301,-0.3301,-0.3419,0.0,0.0,0.0,0.0,0.0,0.0,0.0,0.0,0.0,0.0,0.0,-0.5181,-0.5486,-0.5888,-0.5879,-0.6026,0.0,0.0,0.0,-0.5628,0.0,0.0,-0.6343,0.0,-0.6859,0.0,0.0,0.0,0.0,0.0,0.0,0.0,0.0,-0.5368,-0.5161,-0.51,-0.521,0.0,0.0,0.0,0.0,0.0,0.0,0.0,0.0,0.0,0.0,0.0,0.0,0.0,0.0,0.0,0.0,0.0,0.0,0.0,0.0,0.0,0.0,0.0,0.0,0.0,0.0,0.0,0.0,0.0,0.0,0.0,-1.1139,-1.1191,-1.1281,-1.1403,-1.1468,-1.1557,-1.1683,-1.1744,-1.1776,-1.1776,-1.1776,-1.1776,-1.1776,-1.1776,-1.1776,-1.1784,-1.1898,-1.2048,-1.2227,-1.2406,-1.2511,-1.2576,-1.2698,-1.2783,-1.2836,-1.2836,-1.2836,-1.2836,-0.6673,-0.6724,-0.6717,-0.6717,-0.649,-0.6319,-0.6319,-0.5656,-0.5068,-0.4894,0.0,0.0,0.0,0.0,0.0,-0.371,-0.3598,-0.35,-0.3496,-0.3496,0.0,0.0,0.0,0.0,0.0,0.0,0.0,0.0,0.0,0.0,0.0,0.0,-0.5348,-0.5831,-0.5311,-0.5372,-0.5876,0.0,-0.6191,-0.6248,0.0,-0.6684,-0.6794,0.0,0.0,0.0,-0.7856,-0.7655,0.0,-0.6883,0.0,0.0,0.0,-0.5636,-0.5265,-0.5137,-0.5214,0.0,0.0,0.0,0.0,0.0,0.0,0.0,0.0,0.0,0.0,0.0,0.0,0.0,0.0,0.0,0.0,0.0,0.0,0.0,0.0,0.0,0.0,0.0,0.0,0.0,0.0,0.0,0.0,0.0,-1.0858,-1.096,-1.096,-1.1122,-1.1212,-1.1212,-1.1395,-1.1492,-1.1492,-1.1675,-1.1768,-1.1768,-1.1776,-1.1776,-1.1776,-1.1776,-1.1776,-1.1776,-1.1776,-1.187,-1.2036,-1.2223,-1.2398,-1.2548,-1.2552,-1.267,-1.2828,-1.2828,-1.2832,-1.2836,-0.7342,-0.7219,-0.7059,-0.7059,-0.6789,-0.6571,-0.6571,-0.6392,-0.6213,0.0,0.0,0.0,-0.4893,-0.4292,-0.3943,-0.3939,-0.3898,-0.3813,-0.3641,-0.3633,-0.3714,-0.389,-0.3988,-0.4097,-0.4312,0.0,0.0,0.0,0.0,0.0,0.0,0.0,0.0,0.0,-0.5088,-0.5165,-0.5307,-0.5356,0.0,0.0,-0.6176,-0.6574,0.0,0.0,0.0,0.0,0.0,-0.7943,-0.7659,0.0,-0.7054,-0.6444,0.0,0.0,-0.5265,-0.5137,-0.5299,-0.551,-0.5333,0.0,0.0,0.0,0.0,0.0,0.0,0.0,0.0,0.0,0.0,0.0,0.0,0.0,0.0,0.0,0.0,0.0,0.0,0.0,0.0,0.0,0.0,0.0,0.0,0.0,0.0,0.0,-1.0741,-1.0769,-1.0769,-1.094,-1.1037,-1.1037,-1.1208,-1.1297,-1.1297,-1.1484,-1.1577,-1.1577,-1.1711,-1.1776,-1.1776,-1.1776,-1.1776,-1.1776,-1.1776,-1.1805,-1.1861,-1.2036,-1.2134,-1.219,-1.2324,-1.2483,-1.2641,-1.2641,-1.2722,-1.2836,-0.7653,-0.7558,-0.7437,-0.7609,-0.7328,-0.7153,-0.7292,-0.7147,-0.698,0.0,0.0,0.0,-0.5169,-0.475,-0.4476,-0.4353,-0.4207,-0.4077,-0.3971,-0.3854,-0.3862,-0.4012,-0.4085,-0.417,-0.4316,-0.4316,0.0,0.0,0.0,-0.4329,-0.4434,-0.4434,-0.4528,-0.4698,-0.4731,-0.4869,-0.5076,-0.4999,0.0,0.0,-0.6266,0.0,0.0,-0.7565,-0.7927,0.0,0.0,0.0,-0.8203,-0.8203,-0.7679,0.0,0.0,-0.5819,-0.5659,-0.5311,-0.5498,0.0,0.0,0.0,0.0,0.0,0.0,0.0,0.0,0.0,0.0,0.0,0.0,0.0,0.0,0.0,0.0,0.0,0.0,0.0,0.0,0.0,0.0,0.0,0.0,0.0,0.0,-1.0542,-1.0586,-1.0586,-1.0651,-1.0692,-1.0692,-1.0794,-1.0854,-1.0854,-1.1025,-1.1118,-1.1118,-1.1293,-1.1382,-1.1386,-1.1573,-1.1663,-1.1663,-1.174,-1.1776,-1.1776,-1.1776,-1.1776,-1.1784,-1.1886,-1.1967,-1.204,-1.215,-1.23,-1.2467,-1.254,-1.2629,-1.2735,0.0,-0.777,-0.7873,-0.8194,-0.8012,-0.7874,-0.8113,-0.7792,-0.7508,0.0,-0.6766,-0.6134,-0.5426,-0.5405,-0.5259,-0.4927,-0.454,-0.4325,-0.4304,-0.4142,-0.4045,-0.4045,-0.4191,-0.4316,-0.4316,-0.4316,-0.4316,-0.4316,-0.4316,-0.4316,-0.4316,-0.4316,-0.4361,-0.4461,-0.4345,-0.4564,-0.5039,-0.4897,0.0,-0.5742,-0.6542,-0.7019,0.0,0.0,-0.8296,0.0,-0.8731,-0.8848,-0.8848,-0.8828,-0.8264,0.0,0.0,-0.6392,-0.6371,-0.5619,-0.5835,0.0,-0.5799,-0.5852,0.0,0.0,0.0,0.0,-0.7322,-0.7366,0.0,0.0,0.0,0.0,0.0,0.0,0.0,0.0,0.0,0.0,0.0,0.0,0.0,0.0,0.0,0.0,0.0,-1.031,-1.0404,-1.0404,-1.0566,-1.0672,-1.0692,-1.0692,-1.0692,-1.0692,-1.085,-1.094,-1.094,-1.111,-1.1196,-1.1196,-1.1378,-1.1468,-1.1476,-1.1663,-1.1748,-1.1748,-1.1768,-1.1776,-1.1776,-1.1776,-1.1866,-1.2004,-1.2004,-1.2113,-1.2296,-1.2446,-1.2515,-1.256,-0.8041,-0.8107,-0.8209,-0.8538,-0.8546,-0.8371,-0.7942,-0.7809,-0.7715,-0.7628,-0.759,-0.7604,-0.7672,-0.6774,-0.5981,-0.5511,-0.501,-0.4641,-0.4457,-0.4325,-0.4223,-0.4223,-0.4299,-0.4316,-0.4316,-0.4316,-0.4316,-0.4316,-0.4316,-0.4316,-0.4316,-0.4316,-0.4292,-0.4325,-0.4292,-0.4491,-0.4865,-0.4978,0.0,-0.5988,-0.6229,0.0,-0.7825,-0.8,-0.8337,-0.8747,-0.8966,-0.9043,-0.9019,-0.8873,-0.8515,-0.8028,0.0,0.0,-0.6956,-0.6379,-0.6489,-0.6785,-0.6359,-0.6497,-0.6732,-0.64,0.0,0.0,-0.6363,-0.6643,0.0,0.0,0.0,0.0,0.0,0.0,0.0,0.0,0.0,0.0,0.0,0.0,0.0,0.0,0.0,0.0,-1.016,-1.0193,-1.0213,-1.0213,-1.0383,-1.0546,-1.0684,-1.0692,-1.0692,-1.0692,-1.0724,-1.0745,-1.0745,-1.0928,-1.1017,-1.1021,-1.1191,-1.1277,-1.1281,-1.1468,-1.1553,-1.1561,-1.1711,-1.1776,-1.1776,-1.1776,-1.1797,-1.1825,-1.1825,-1.1931,-1.2085,-1.2121,-1.2227,-1.2361,-0.8173,-0.8334,-0.8546,-0.8875,-0.8933,-0.888,-0.8707,-0.8679,-0.879,-0.911,-0.8718,-0.8167,-0.7423,-0.6658,-0.6037,-0.5776,-0.5259,-0.4865,-0.4686,-0.4507,-0.4369,-0.432,-0.4316,-0.4317,-0.441,-0.4321,-0.4317,-0.441,-0.4317,-0.4316,-0.4316,-0.4316,-0.4369,-0.4536,-0.4451,-0.4658,-0.5028,0.0,-0.5441,-0.6055,-0.6501,0.0,-0.8044,-0.8312,-0.8641,-0.8982,-0.9161,-0.9283,-0.9291,-0.8844,-0.8633,0.0,0.0,-0.761,-0.7614,0.0,-0.7005,-0.7311,-0.6692,-0.6745,-0.6982,-0.6729,0.0,0.0,0.0,0.0,-0.6814,0.0,0.0,0.0,0.0,0.0,0.0,0.0,0.0,0.0,0.0,0.0,0.0,0.0,0.0,0.0,-0.9896,-0.9973,-1.0063,-1.0156,-1.0245,-1.0339,-1.0424,-1.0513,-1.0562,-1.0562,-1.0647,-1.0692,-1.0692,-1.0785,-1.083,-1.0834,-1.1013,-1.1094,-1.1102,-1.1281,-1.1411,-1.1504,-1.1598,-1.1691,-1.1776,-1.1776,-1.1776,-1.1776,-1.1776,-1.1829,-1.1914,-1.2,-1.2089,-1.2182,-0.8282,-0.856,-0.8882,-0.9204,-0.9263,-0.9293,-0.9422,-0.9458,-0.9656,-1.0236,-0.9562,-0.857,-0.7114,-0.6612,-0.6423,-0.6363,-0.5728,-0.5275,-0.5075,-0.4833,-0.4564,-0.4386,-0.4345,-0.4394,-0.4497,-0.4369,-0.4345,-0.4449,-0.4345,-0.4316,-0.4316,-0.4316,-0.4447,-0.4751,-0.4594,0.0,0.0,0.0,0.0,-0.6258,0.0,-0.746,-0.7878,-0.8524,-0.8865,-0.9031,-0.9307,-0.9502,-0.9535,-0.8926,-0.8808,-0.8779,-0.7951,-0.804,0.0,0.0,0.0,0.0,0.0,0.0,0.0,0.0,0.0,-0.6903,0.0,0.0,0.0,-0.7382,0.0,0.0,0.0,0.0,0.0,0.0,0.0,0.0,0.0,0.0,0.0,0.0,0.0,0.0,0.0,-0.964,-0.9799,-1.0087,-1.0014,-1.0018,-1.0156,-1.0302,-1.04,-1.0432,-1.057,-1.066,-1.0692,-1.0692,-1.0692,-1.0692,-1.0842,-1.0915,-1.0923,-1.1094,-1.1256,-1.1403,-1.1468,-1.1585,-1.1727,-1.176,-1.1776,-1.1776,-1.1776,-1.1776,-1.1792,-1.1931,-1.1979,-1.2004,-0.8575,-0.8897,-0.9211,-0.9511,-0.9563,-0.9415,-0.8981,-0.8883,-0.8969,-0.9149,-0.928,-0.9287,0.0,0.0,0.0,0.0,0.0,0.0,-0.6053,0.0,-0.5081,-0.4751,-0.455,-0.4477,-0.4501,-0.4369,-0.4328,-0.4304,-0.4328,-0.4316,-0.4316,-0.4316,-0.4382,-0.4534,-0.4715,0.0,0.0,0.0,-0.6229,0.0,-0.7244,-0.7167,0.0,-0.8207,-0.8609,-0.8714,-0.9364,-0.9612,-0.9592,0.0,-0.9279,-0.9194,0.0,-0.8702,-0.8861,-0.8109,0.0,0.0,0.0,0.0,0.0,0.0,-0.778,0.0,0.0,0.0,-0.7212,-0.668,0.0,0.0,0.0,0.0,0.0,0.0,0.0,0.0,0.0,0.0,0.0,0.0,0.0,0.0,0.0,-0.9116,-0.9214,-0.9868,-0.9482,-0.9494,-1.0128,-1.018,-1.0266,-1.0432,-1.0452,-1.0538,-1.0688,-1.0692,-1.0692,-1.0692,-1.0712,-1.0724,-1.0729,-1.0915,-1.1009,-1.1049,-1.1362,-1.1512,-1.1545,-1.1707,-1.1776,-1.1776,-1.1776,-1.1776,-1.178,-1.1797,-1.1805,-1.1809,-0.8699,-0.8955,-0.927,-0.9563,-0.9614,-0.951,-0.9302,-1.0073,-1.049,-0.9955,-1.0153,0.0,0.0,0.0,0.0,0.0,0.0,-0.6834,0.0,0.0,-0.5684,-0.544,-0.5147,-0.499,-0.5101,-0.4811,-0.4612,-0.4517,-0.4462,-0.4364,-0.432,-0.4382,-0.4632,-0.4973,-0.5303,0.0,-0.6191,0.0,0.0,0.0,0.0,0.0,0.0,-0.8385,-0.9003,-0.9222,-0.9518,-0.9628,-0.9567,0.0,-0.9116,0.0,0.0,0.0,0.0,0.0,0.0,0.0,0.0,0.0,0.0,0.0,0.0,0.0,-0.6952,0.0,-0.7021,0.0,0.0,0.0,0.0,0.0,0.0,0.0,0.0,0.0,0.0,0.0,0.0,0.0,0.0,0.0,0.0,0.0,0.0,0.0,-0.9125,-0.9157,-0.9669,-0.9888,-1.0034,-1.0111,-1.0322,-1.0469,-1.0542,-1.0643,-1.0692,-1.0692,-1.0692,-1.0692,-1.0692,-1.0773,-1.0867,-1.0976,-1.1126,-1.1248,-1.1354,-1.1541,-1.1733,-1.1865,-1.1856,-1.1776,-1.1776,-1.1776,-1.1776,-1.1776,-0.8853,0.0,-0.9365,-0.9577,-0.9614,-0.9672,-0.9855,-1.0782,-1.1205,-1.0523,0.0,0.0,-1.0263,-0.9226,0.0,0.0,-0.9105,-0.8418,0.0,0.0,-0.668,-0.6299,-0.5811,-0.5557,-0.565,-0.5272,-0.5,-0.4845,-0.4763,-0.4649,0.0,-0.4696,-0.4935,-0.5318,0.0,-0.6288,-0.6743,0.0,0.0,-0.7237,-0.7547,-0.7769,-0.7949,-0.875,-0.9275,-0.9628,-0.9727,-0.9727,-0.9657,-0.921,-0.9148,0.0,-0.8954,0.0,0.0,0.0,0.0,0.0,-0.8333,0.0,0.0,0.0,0.0,0.0,0.0,0.0,0.0,0.0,0.0,0.0,0.0,0.0,0.0,0.0,0.0,0.0,0.0,0.0,0.0,0.0,0.0,0.0,0.0,0.0,0.0,0.0,0.0,-0.8857,-0.9324,-0.96,-0.9786,-0.9884,-1.0144,-1.0335,-1.0436,-1.0558,-1.0643,-1.0692,-1.0692,-1.0692,-1.0692,-1.0692,-1.0765,-1.0895,-1.0948,-1.1037,-1.1171,-1.1403,-1.1618,-1.1875,-1.1823,-1.1776,-1.1776,-1.1776,-1.1776,-1.1776,-0.9102,-0.9402,0.0,0.0,-0.9614,-0.9826,-1.0463,-1.0342,-1.0127,0.0,0.0,0.0,0.0,0.0,0.0,0.0,0.0,-1.1665,-1.0616,0.0,-0.8322,-0.7319,-0.6515,-0.605,0.0,-0.573,-0.5488,-0.5287,-0.5282,-0.5278,0.0,0.0,0.0,0.0,-0.6049,-0.6619,-0.7035,-0.7425,-0.8231,-0.9156,-0.8875,-0.9291,-0.9897,0.0,-0.9161,-0.9628,-0.9924,0.0,0.0,-0.9786,-0.9819,0.0,0.0,0.0,0.0,0.0,0.0,0.0,0.0,0.0,0.0,-0.7756,0.0,0.0,0.0,0.0,-0.7362,0.0,0.0,0.0,0.0,0.0,-0.7622,-0.7281,0.0,0.0,0.0,0.0,0.0,0.0,0.0,0.0,0.0,0.0,0.0,0.0,0.0,0.0,-0.9395,-0.9364,-0.9527,-0.9876,-0.9896,-1.0075,-1.0432,-1.044,-1.0526,-1.0692,-1.0692,-1.0692,-1.0692,-1.0692,-1.0696,-1.0712,-1.0891,-1.0972,-1.1005,-1.1354,-1.15,-1.1516,-1.1703,-1.1776,-1.1776,-1.1776,-1.1776,-1.1776,0.0,0.0,0.0,0.0,0.0,-0.9907,-1.0777,-1.1358,0.0,0.0,0.0,0.0,0.0,-1.3009,-1.2979,0.0,0.0,-1.2687,-1.2254,-1.0642,0.0,0.0,0.0,-0.7024,0.0,-0.6495,-0.599,-0.5557,-0.5417,-0.5349,-0.53,0.0,0.0,0.0,0.0,-0.701,0.0,0.0,0.0,0.0,0.0,-0.9745,-1.0489,0.0,0.0,-1.0117,-1.0019,-1.0019,0.0,-0.9947,-0.9841,-0.9748,-0.9719,-0.961,-0.9476,-0.9345,-0.923,0.0,0.0,0.0,-0.9096,-0.8381,0.0,0.0,0.0,0.0,0.0,0.0,0.0,0.0,0.0,0.0,-0.7683,-0.7435,-0.72,0.0,0.0,0.0,0.0,0.0,0.0,0.0,0.0,0.0,0.0,0.0,-0.8346,0.0,0.0,-0.9409,-0.969,-0.9909,-0.9924,-1.0051,-1.0286,-1.042,-1.0465,-1.0521,-1.0853,-1.0911,-1.0692,-1.0907,-1.0911,-1.0696,-1.0757,-1.0785,-1.0806,-1.1049,-1.1331,-1.1682,-1.1639,-1.1782,-1.2001,-1.2001,-1.2001,-1.2001,-0.9636,0.0,0.0,0.0,0.0,0.0,0.0,0.0,0.0,0.0,-1.3884,0.0,-1.483,0.0,-1.3891,0.0,-1.4163,-1.3477,-1.3531,-1.1682,0.0,-1.0668,-0.9322,0.0,0.0,-0.7916,-0.726,-0.6688,-0.6147,-0.5811,-0.5617,0.0,0.0,0.0,0.0,0.0,0.0,0.0,-0.8898,0.0,0.0,-1.0345,0.0,0.0,-1.0609,-1.0413,0.0,-1.0314,-1.0314,-1.0314,-1.0232,-1.0145,-1.0177,-0.9951,-0.978,-0.9803,-0.9656,-0.9556,-0.9485,-0.9552,0.0,-0.8962,-0.8639,0.0,-0.7604,0.0,0.0,0.0,0.0,0.0,0.0,0.0,0.0,-0.7774,-0.7356,0.0,0.0,0.0,0.0,0.0,0.0,0.0,0.0,0.0,-0.771,-0.8375,0.0,0.0,0.0,0.0,-0.9689,-0.9821,-1.0033,-1.0125,-1.0201,-1.0335,-1.0416,-1.0436,-1.087,-1.0958,-1.0802,-1.1017,-1.1017,-1.0802,-1.0692,-1.0692,-1.0708,-1.0891,-1.1146,-1.1502,-1.152,-1.1807,-1.2149,-1.2101,-1.2122,-1.2234,0.0,0.0,0.0,0.0,-1.0477,0.0,0.0,0.0,-1.3971,0.0,-1.4074,-1.4559,-1.526,-1.4417,-1.4819,-1.7088,-1.5258,-1.4135,-1.4589,-1.262,0.0,0.0,-1.0723,-1.0528,-1.0517,0.0,0.0,-0.855,-0.737,-0.6576,-0.6192,0.0,0.0,0.0,-0.6805,0.0,-0.8003,-0.8876,-0.979,-1.0612,-1.1028,-1.1194,-1.1194,-1.1194,-1.09,-1.0511,-1.0703,-1.0801,-1.0801,-1.0801,-1.0801,-1.0801,-1.0507,-1.0413,-1.0413,-1.0413,-1.0413,-1.0369,-1.018,-1.0127,-0.9995,-0.9455,-0.9292,0.0,0.0,0.0,-0.8632,0.0,0.0,0.0,0.0,0.0,0.0,-0.8133,-0.76,-0.7101,0.0,0.0,0.0,0.0,0.0,0.0,0.0,0.0,-0.7633,-0.8595,-0.8116,0.0,0.0,0.0,-0.9531,-0.9604,-1.0113,-1.0198,-0.9973,-1.0196,-1.0381,-1.0408,-1.0749,-1.0953,-1.1114,-1.1122,-1.1126,-1.1126,-1.0802,-1.0692,-1.0704,-1.0883,-1.096,-1.1005,-1.135,-1.1732,-1.201,-1.1831,-1.2005,-1.2238,-0.9994,-1.0565,-1.1136,0.0,-1.1224,-1.1567,0.0,0.0,0.0,0.0,-1.5662,-1.6094,-1.6728,-1.6515,-1.6672,-1.7217,-1.6778,0.0,0.0,0.0,0.0,-1.4283,-1.3022,-1.2194,-1.1996,-1.0513,0.0,-0.8936,0.0,0.0,-0.6393,0.0,0.0,0.0,0.0,0.0,-0.8118,-0.8642,-0.9526,-1.0612,-1.1028,-1.1194,0.0,0.0,-1.1096,-1.1002,-1.0806,-1.0801,-1.0801,-1.0801,-1.0801,-1.0801,-1.0703,-1.0708,-1.0708,-1.0413,-1.0413,-1.04,-1.0351,-1.0334,-1.0299,-1.0154,-0.9789,-0.9504,0.0,0.0,0.0,0.0,0.0,0.0,0.0,0.0,0.0,0.0,0.0,0.0,0.0,0.0,0.0,0.0,0.0,0.0,0.0,0.0,-0.7548,-0.7943,-0.8058,0.0,0.0,0.0,0.0,-1.0289,-1.0338,-1.0435,-1.0582,-1.0436,-1.0459,-1.066,-1.1045,-1.1206,-1.1259,-1.1611,-1.1568,-1.1126,-1.1021,-1.0907,-1.0696,-1.0745,-1.0846,-1.0992,-1.1208,-1.1459,-1.1952,-1.235,-1.2483,-1.2599,-1.0711,0.0,0.0,-1.2833,0.0,0.0,-1.3967,0.0,0.0,-1.5979,-1.6389,0.0,-1.7084,-1.6865,-1.685,-1.7232,-1.6466,0.0,-1.6839,0.0,0.0,-1.5177,-1.4454,-1.386,-1.3487,-1.2196,0.0,-0.9984,0.0,0.0,-0.6468,0.0,0.0,0.0,0.0,-0.7262,0.0,-0.8978,-0.9904,-1.074,-1.1066,0.0,0.0,-1.1194,-1.1194,-1.1194,-1.0998,-1.0998,-1.0998,-1.0998,-1.0998,-1.0998,-1.0998,-1.0998,-1.0998,-1.0801,-1.0703,-1.0703,-1.0703,-1.0703,-1.0703,-1.0703,-1.0546,-1.025,-0.998,-0.994,-0.9881,0.0,-0.9804,-0.9899,0.0,0.0,0.0,0.0,0.0,0.0,0.0,0.0,0.0,0.0,0.0,0.0,0.0,0.0,-0.745,-0.7605,-0.7874,0.0,0.0,0.0,0.0,-1.018,-1.0559,-1.0703,-1.0605,-1.0523,-1.0624,-1.0716,-1.1119,-1.1415,-1.1509,-1.1806,-1.1782,-1.1459,-1.1236,-1.1017,-1.0911,-1.0802,-1.0753,-1.0875,-1.1237,-1.1516,-1.1782,-1.2333,-1.2479,-1.2479,0.0,0.0,0.0,0.0,0.0,0.0,0.0,-1.5635,0.0,-1.6506,0.0,-1.704,-1.704,-1.6525,-1.649,-1.7356,0.0,-1.5302,-1.6504,-1.5478,-1.4854,-1.514,-1.5369,-1.5369,-1.5066,-1.4206,-1.2936,0.0,-0.9528,-0.8011,-0.6639,0.0,0.0,0.0,0.0,0.0,0.0,-0.9774,-1.0605,-1.0915,-1.1113,-1.1194,-1.1194,-1.1194,-1.1194,-1.1194,-1.1194,-1.1194,-1.1194,-1.1194,-1.1194,-1.1194,-1.1194,-1.1194,-1.1194,-1.1194,-1.1194,-1.1194,-1.1194,-1.1194,-1.1194,-1.1194,-1.1194,-1.1099,-1.0552,-1.038,-1.038,-1.038,-1.0053,-1.0071,0.0,0.0,0.0,0.0,0.0,0.0,0.0,0.0,0.0,0.0,0.0,0.0,0.0,0.0,-0.7331,-0.7428,-0.7582,0.0,0.0,0.0,0.0,-0.9917,-1.0761,-1.0974,-1.0507,0.0,-1.0798,-1.0773,-1.1196,-1.1499,-1.1681,-1.1905,-1.2005,-1.2005,-1.1455,-1.1236,-1.1126,-1.0911,-1.0708,-1.0761,-1.1435,-1.157,-1.152,-1.1935,-1.2118,-1.2118,0.0,0.0,0.0,0.0,0.0,-1.6148,-1.6469,-1.6389,-1.6594,-1.745,-1.7845,-1.805,-1.805,-1.7898,-1.7927,-1.813,-1.7829,0.0,0.0,0.0,0.0,-1.6886,-1.6929,-1.6807,-1.6497,-1.504,-1.3641,0.0,-0.9946,-0.8247,-0.7254,0.0,0.0,0.0,0.0,0.0,-0.8869,-1.0615,0.0,-1.0915,-1.1113,-1.1194,-1.1194,-1.1194,-1.1194,-1.1194,-1.1194,-1.1194,-1.1194,-1.1194,-1.1194,-1.1194,-1.1194,-1.1194,-1.1194,-1.1194,-1.1194,-1.1194,-1.1194,-1.1194,-1.1194,-1.1194,-1.1194,-1.1175,-1.1104,-1.1085,-1.1085,-1.1085,-1.096,-1.0866,-1.0543,0.0,0.0,0.0,0.0,0.0,0.0,0.0,0.0,0.0,0.0,0.0,0.0,0.0,-0.7416,0.0,0.0,0.0,0.0,0.0,0.0,0.0,-1.0816,0.0,0.0,0.0,-1.0918,-1.1157,-1.1332,-1.1525,-1.1784,-1.2159,-1.2223,-1.2005,-1.1891,-1.1678,-1.1459,-1.1126,-1.1003,-1.094,-1.1257,-1.1334,-1.152,-1.1823,-1.1893,-1.1893,0.0,0.0,0.0,0.0,0.0,0.0,0.0,-1.7618,0.0,-1.7801,-1.7955,-1.805,-1.805,-1.8203,-1.8299,-1.8299,-1.8299,-1.824,-1.8079,-1.7911,-1.7743,-1.7589,-1.7421,-1.7179,-1.6956,-1.5814,-1.4454,-1.2974,-1.0998,-0.9442,-0.831,-0.7467,-0.7198,-0.7356,0.0,-0.9449,0.0,0.0,0.0,-1.1662,-1.1308,-1.1194,-1.1194,-1.1194,-1.1194,-1.1194,-1.1194,-1.1194,-1.1194,-1.1194,-1.1194,-1.1194,-1.1194,-1.1194,-1.1194,-1.1194,-1.1194,-1.1194,-1.1194,-1.1194,-1.1194,-1.1194,-1.1194,-1.1194,-1.1194,-1.1194,-1.1194,-1.1194,-1.1194,-1.1071,-1.0557,-1.0145,0.0,0.0,0.0,0.0,0.0,0.0,0.0,0.0,0.0,0.0,0.0,0.0,0.0,0.0,0.0,0.0,0.0,0.0,0.0,0.0,0.0,0.0,0.0,0.0,0.0,-1.1198,-1.1517,-1.1714,-1.1831,-1.2252,-1.2332,-1.2223,-1.211,-1.1896,-1.1787,-1.135,-1.0965,-1.085,-1.1118,-1.1277,-1.139,-1.1671,-1.1776,-1.1776,0.0,-1.6184,0.0,0.0,-1.7274,0.0,-1.8225,-1.8642,-1.8708,-1.8196,-1.813,-1.813,-1.813,-1.8357,-1.8511,-1.8511,-1.8511,-1.8482,-1.8408,-1.8167,-1.7991,-1.7918,-1.7604,-1.7318,-1.7062,-1.644,-1.5346,0.0,-1.2278,-1.089,0.0,-0.8673,-0.8494,-0.8912,0.0,0.0,0.0,0.0,-1.2472,-1.2758,-1.2088,-1.1868,-1.1868,-1.1868,-1.1868,-1.1868,-1.1868,-1.1868,-1.1868,-1.1868,-1.158,-1.1194,-1.1194,-1.1194,-1.1194,-1.1194,-1.1194,-1.1194,-1.1194,-1.1194,-1.1194,-1.1194,-1.1194,-1.1194,-1.1194,-1.1194,-1.1194,-1.1194,-1.1194,-1.1066,-1.065,-1.0376,0.0,0.0,0.0,0.0,0.0,0.0,0.0,0.0,0.0,0.0,0.0,0.0,0.0,0.0,0.0,0.0,0.0,0.0,0.0,0.0,0.0,-1.0924,-1.1132,0.0,-1.1194,-1.1198,-1.1619,-1.1817,-1.1831,-1.2252,-1.2441,-1.2436,-1.2223,-1.2005,-1.2005,-1.1455,-1.1131,-1.0945,-1.1155,-1.1306,-1.138,-1.1712,-1.1864,-1.1776,0.0,0.0,0.0,0.0,0.0,0.0,-1.8291,-1.8833,-1.9206,-1.9147,-1.914,-1.914,-1.914,-1.9169,-1.9184,-1.9184,-1.9184,-1.906,-1.8767,-1.8716,-1.8562,-1.8269,-1.7947,-1.7757,-1.7728,-1.7091,-1.6148,0.0,0.0,-1.2084,0.0,-0.9976,-0.9962,-1.0479,0.0,0.0,0.0,-1.3995,-1.4381,-1.4136,-1.4064,-1.398,-1.398,-1.398,-1.398,-1.398,-1.398,-1.398,-1.398,-1.398,-1.2732,-1.1194,-1.1194,-1.1194,-1.1194,-1.1194,-1.1194,-1.1194,-1.1194,-1.1194,-1.1194,-1.1194,-1.1194,-1.1194,-1.1194,-1.1194,-1.1194,-1.1194,-1.1194,-1.1066,-1.065,-1.0849,-1.083,0.0,0.0,0.0,0.0,0.0,0.0,0.0,0.0,0.0,0.0,0.0,0.0,0.0,0.0,0.0,0.0,0.0,0.0,-1.0244,0.0,-1.0707,-1.092,-1.1104,-1.1194,-1.1198,-1.1619,-1.1817,-1.1831,-1.2252,-1.2441,-1.2441,-1.2332,-1.2219,-1.2005,-1.1891,-1.1787,-1.1481,-1.1694,-1.1768,-1.171,-1.18,-1.1869,-1.1776,0.0,0.0,0.0,0.0,0.0,0.0,0.0,-1.9111,-1.9279,-1.9279,-1.9279,-1.9279,-1.9279,-1.9279,-1.9279,-1.9279,-1.9279,-1.922,-1.9089,-1.8899,-1.873,-1.8599,-1.8284,-1.8013,-1.7816,-1.7369,-1.6696,0.0,0.0,0.0,-1.2643,-1.1864,-1.1895,-1.2691,0.0,-1.4564,-1.5039,-1.5093,-1.514,-1.5127,-1.4555,-1.4268,-1.4268,-1.4268,-1.4268,-1.4268,-1.4268,-1.4268,-1.4268,-1.4268,-1.3788,-1.3022,-1.3022,-1.3022,-1.3022,-1.3022,-1.2635,-1.2058,-1.2058,-1.2058,-1.1965,-1.1389,-1.1678,-1.196,-1.1389,-1.1194,-1.1385,-1.196,-1.2635,-1.2769,-1.2014,-1.1811,-1.1536,-1.0801,0.0,0.0,0.0,0.0,0.0,0.0,0.0,0.0,0.0,0.0,0.0,0.0,0.0,-0.8233,-0.8529,0.0,0.0,-1.0138,0.0,-1.0679,-1.0891,-1.1094,-1.1194,-1.1198,-1.1619,-1.1817,-1.1831,-1.2252,-1.2441,-1.2441,-1.2441,-1.2223,-1.2005,-1.2005,-1.1787,-1.159,-1.1788,-1.1864,-1.1936,-1.2134,-1.2086,-1.2005,-1.843,0.0,-1.8277,0.0,-1.8738,-1.8745,-1.9206,-1.9279,-1.9279,-1.9279,-1.9279,-1.9279,-1.9279,-1.9279,-1.9279,-1.9279,-1.9279,-1.9279,-1.9279,-1.906,-1.8935,-1.8935,-1.8621,0.0,-1.8108,-1.7786,-1.7296,-1.6652,-1.5657,0.0,-1.4392,-1.3601,-1.3704,0.0,-1.5357,-1.6001,-1.6528,-1.6106,-1.5978,-1.6177,-1.5507,-1.5222,-1.5222,-1.5222,-1.5222,-1.5222,-1.5222,-1.5222,-1.5222,-1.5222,-1.5222,-1.5127,-1.4459,-1.4268,-1.4268,-1.4268,-1.3788,-1.321,-1.321,-1.321,-1.3017,-1.2252,-1.2635,-1.3017,-1.2252,-1.216,-1.2349,-1.3017,-1.3782,-1.4076,-1.3307,-1.2925,-1.2571,-1.2024,0.0,0.0,0.0,-1.0619,0.0,0.0,-0.8916,-0.8536,-0.8438,0.0,0.0,0.0,0.0,0.0,-0.9235,0.0,0.0,0.0,0.0,0.0,-1.0891,-1.1094,-1.1194,-1.1198,-1.1557,-1.1761,-1.1831,-1.2252,-1.2441,-1.2441,-1.2441,-1.2332,-1.2114,-1.2114,-1.2005,-1.18,-1.1943,-1.2006,-1.2196,-1.2396,-1.2355,-1.2286,-1.8723,-1.8782,-1.8884,-1.9213,-1.9264,-1.9264,-1.9279,-1.9279,-1.9279,-1.9279,-1.9279,-1.9279,-1.9279,-1.9279,-1.9279,-1.9279,-1.9279,-1.9279,-1.9279,-1.9272,-1.9272,0.0,0.0,-1.8782,-1.8774,-1.846,-1.7969,-1.7318,0.0,0.0,-1.5409,-1.5065,-1.5262,-1.5906,-1.6221,-1.6543,-1.6872,-1.7186,-1.7326,-1.7232,-1.7232,-1.7232,-1.7232,-1.7232,-1.7232,-1.7232,-1.7232,-1.7232,-1.7232,-1.7232,-1.7232,-1.6943,-1.4937,-1.4268,-1.4268,-1.4268,-1.4268,-1.4268,-1.4268,-1.4268,-1.4268,-1.4268,-1.4268,-1.4268,-1.4268,-1.4268,-1.4268,-1.4268,-1.4268,-1.4268,-1.4268,-1.4262,-1.4181,-1.375,0.0,0.0,0.0,0.0,0.0,-1.0512,-0.9564,-0.901,-0.9104,0.0,0.0,0.0,0.0,0.0,0.0,0.0,0.0,-1.0333,-1.0674,0.0,-1.0896,-1.1094,-1.1194,-1.1198,-1.1416,-1.1624,-1.1831,-1.2252,-1.2441,-1.2441,-1.2441,-1.2441,-1.2441,-1.2441,-1.2436,-1.2436,-1.2441,-1.2353,-1.2342,-1.2534,-1.2508,-1.2473,-1.9103,-1.9118,-1.9155,-1.9257,-1.9279,-1.9279,-1.9279,-1.9279,-1.9279,-1.9279,-1.9279,-1.9279,-1.9279,-1.9279,-1.9279,0.0,-1.9279,-1.9279,0.0,-1.9279,-1.9279,-1.9279,-1.9177,-1.9016,-1.8789,-1.8686,-1.8423,-1.7991,0.0,0.0,0.0,-1.6191,-1.636,-1.6572,-1.6887,-1.7084,-1.7179,-1.7282,-1.7326,-1.7326,-1.7326,-1.7326,-1.7326,-1.7326,-1.7326,-1.7326,-1.7326,-1.7326,-1.7326,-1.7326,-1.7326,-1.7232,-1.656,-1.6372,-1.6372,-1.6372,-1.5893,-1.5317,-1.5317,-1.5317,-1.5127,-1.4459,-1.4841,-1.5127,-1.4459,-1.4841,-1.5317,-1.5317,-1.5893,-1.6177,-1.5412,-1.5317,-1.5006,-1.3982,-1.3598,0.0,-1.3012,0.0,-1.178,-1.1459,-1.1012,-1.0672,0.0,-1.0978,0.0,0.0,0.0,0.0,0.0,0.0,0.0,0.0,-1.0603,0.0,-1.0896,-1.1094,-1.1194,-1.1198,-1.2098,-1.2705,-1.3085,-1.2632,-1.2441,-1.2441,-1.2441,-1.2441,-1.2441,-1.2441,-1.2441,-1.2441,-1.2441,-1.2463,-1.2679,-1.288,-1.2855,-1.2827,-1.9279,-1.9279,-1.9279,-1.9279,-1.9279,-1.9316,-1.944,-1.9462,-1.9499,-1.9623,-1.9535,-1.9462,-1.9462,-1.9352,0.0,-1.9279,-1.9279,-1.9279,-1.9279,-1.9279,-1.9279,-1.9279,-1.9279,-1.9177,-1.8979,-1.8972,0.0,-1.8482,-1.7955,-1.7486,-1.7099,-1.7304,-1.7399,-1.7406,-1.7604,-1.7691,-1.7691,-1.7691,-1.7691,-1.7691,-1.7691,-1.7691,-1.7691,-1.7691,-1.7691,-1.7677,-1.7552,-1.7508,-1.7494,-1.7369,-1.7326,-1.7326,-1.7326,-1.7326,-1.7326,-1.7326,-1.685,-1.6372,-1.6372,-1.6372,-1.6177,-1.5602,-1.5893,-1.6183,-1.5609,-1.5893,-1.6372,-1.6372,-1.685,-1.7138,-1.6466,-1.6372,-1.6081,-1.5127,-1.4747,-1.4428,-1.395,0.0,-1.2849,0.0,0.0,0.0,0.0,-1.2273,-1.2702,0.0,0.0,0.0,0.0,0.0,0.0,-1.1536,-1.1968,-1.2146,-1.2146,-1.2276,-1.2155,-1.1775,-1.2279,-1.272,-1.3087,-1.2558,-1.2441,-1.2441,-1.2441,-1.2441,-1.2441,-1.2441,-1.2441,-1.2441,-1.2441,-1.2521,-1.2668,-1.2876,-1.2969,-1.2942,-1.9279,-1.9294,-1.9308,0.0,-1.933,0.0,-1.9747,-1.9798,-1.9901,-2.0194,-1.9981,-1.9798,-1.9798,-1.9528,-1.9345,-1.9345,0.0,0.0,0.0,-1.9279,-1.9279,-1.9279,-1.9279,-1.9279,-1.9279,-1.9279,-1.9118,-1.8789,-1.8482,-1.8321,-1.8299,-1.8299,-1.8299,-1.8299,-1.8299,-1.8299,-1.8299,-1.8299,-1.8299,-1.8299,-1.8299,-1.8299,-1.8299,-1.8299,-1.8299,-1.8262,-1.7955,-1.7845,-1.7801,-1.7501,-1.7399,-1.7399,-1.7399,-1.7399,-1.7384,-1.734,-1.7326,-1.7326,-1.7326,-1.7326,-1.7326,-1.7326,-1.7326,-1.7326,-1.7326,-1.7326,-1.7326,-1.7326,-1.7326,-1.7326,-1.7326,-1.7326,-1.7216,-1.6879,-1.6565,-1.6148,-1.5518,-1.5145,-1.4475,0.0,0.0,0.0,-1.2743,-1.3242,-1.3815,0.0,0.0,0.0,0.0,0.0,-1.3709,-1.3944,-1.423,-1.4268,-1.4268,-1.4268,-1.38,-1.2856,-1.2223,-1.2035,-1.225,-1.2346,-1.2441,-1.2441,-1.2441,-1.2441,-1.2441,-1.2441,-1.2441,-1.2441,-1.2441,-1.2441,-1.2465,-1.2687,-1.2895,-1.3098,0.0,0.0,-1.9652,-1.9652,-1.985,-2.0033,-2.0113,-2.0128,-2.015,-2.023,-2.0172,-2.0128,-2.0128,-2.0055,-2.0011,-2.0011,-1.9557,-1.9279,-1.9279,-1.9279,-1.9279,-1.9279,-1.9279,-1.9279,-1.9279,-1.9279,-1.9118,-1.8789,-1.8708,-1.8547,-1.8299,-1.8299,-1.8299,-1.8299,-1.8299,-1.8299,-1.8299,-1.8299,-1.8299,-1.8299,-1.8299,-1.8299,-1.8299,-1.8299,-1.8299,-1.8291,-1.8211,-1.8189,-1.8174,-1.8101,-1.8072,-1.8072,-1.8072,-1.8072,-1.7969,-1.7472,-1.7326,-1.7326,-1.7326,-1.7326,-1.7326,-1.7326,-1.7326,-1.7326,-1.7326,-1.7326,-1.7326,-1.7326,-1.7326,-1.7326,-1.7326,-1.7326,-1.7143,-1.6572,-1.6418,-1.6148,-1.5518,-1.5145,-1.4896,0.0,-1.4835,-1.4799,-1.4727,-1.5072,-1.5191,0.0,0.0,0.0,0.0,-1.5634,-1.5205,-1.4056,-1.423,-1.4268,-1.4268,-1.4268,-1.4274,-1.4097,-1.3404,-1.3164,-1.3293,-1.2665,-1.2441,-1.2441,-1.2441,-1.2441,-1.2441,-1.2441,-1.2441,-1.2441,-1.2441,-1.2441,-1.2465,-1.2687,-1.2895,-1.3098,-1.9279,-1.9418,-1.9586,-1.974,-1.9908,-2.012,-2.0413,-2.0457,-2.0508,-2.0662,-2.0552,-2.0457,-2.0457,-2.0325,-2.0179,-2.0033,-1.9696,-1.9499,-1.9499,-1.936,-1.9279,-1.9279,-1.9279,-1.9279,-1.9279,-1.9279,-1.9191,-1.9016,-1.9016,-1.8921,-1.8752,-1.8752,-1.8752,-1.8752,-1.8752,-1.8752,-1.8752,-1.8752,-1.8752,-1.8752,-1.8752,-1.8752,-1.8752,-1.8752,-1.8752,-1.873,-1.8577,-1.8525,-1.8503,-1.835,-1.8299,-1.8299,-1.8299,-1.8299,-1.8233,-1.7874,-1.7669,-1.7523,-1.7369,-1.7326,-1.7326,-1.7326,-1.7326,-1.7326,-1.7326,-1.7326,-1.7326,-1.7326,-1.7326,-1.7326,-1.7326,-1.7326,-1.7113,-1.6469,-1.6367,-1.6096,-1.5313,-1.5182,-1.5233,-1.5409,-1.5562,-1.5709,-1.5848,-1.6155,-1.614,-1.5628,-1.603,0.0,-1.6345,-1.6638,-1.6422,-1.5565,-1.5624,-1.5697,-1.5697,-1.5222,-1.5145,-1.5463,-1.4095,-1.3631,-1.3869,-1.2817,-1.2441,-1.2441,-1.2441,-1.2441,-1.2441,-1.2441,-1.2441,-1.2441,-1.2441,-1.2441,-1.2455,-1.2573,-1.2748,-1.2961,-1.9376,-1.9413,-1.9545,-1.9817,-1.9913,-2.0033,-2.0633,-2.072,-2.0837,-2.1167,-2.0925,-2.0742,-2.0794,-2.0501,-2.0201,-1.993,-1.9864,-1.9791,-1.9696,-1.9433,-1.9279,-1.9279,-1.9279,-1.9279,-1.9279,-1.9279,-1.9279,-1.9279,-1.9279,-1.9279,-1.9279,-1.9279,-1.9279,-1.9279,-1.9279,-1.9279,-1.9279,-1.9279,-1.9279,-1.9279,-1.9279,-1.9279,-1.9279,-1.9279,-1.9279,-1.9242,-1.8964,-1.8862,-1.8818,-1.854,-1.8445,-1.8445,-1.8445,-1.8445,-1.8438,-1.8394,-1.8182,-1.7882,-1.7501,-1.7362,-1.7326,-1.7326,-1.7326,-1.7326,-1.7326,-1.7326,-1.7326,-1.7326,-1.7326,-1.7326,-1.7326,-1.7326,-1.7113,-1.6469,-1.6367,-1.6052,-1.5145,0.0,-1.5518,-1.5562,-1.5862,-1.6177,-1.6484,-1.6718,-1.6762,-1.6528,-1.6974,-1.7157,-1.6938,-1.7179,-1.7326,-1.7326,-1.7326,-1.7326,-1.7326,-1.6466,-1.6195,-1.6593,-1.4767,-1.4112,-1.4379,-1.3197,-1.2654,-1.2654,-1.2441,-1.2441,-1.2441,-1.2441,-1.2441,-1.2441,-1.2441,-1.2441,-1.2441,-1.2441,-1.2578,-1.2791,-1.9983,-2.0009,-2.0113,-2.0173,-2.0089,-2.0289,-2.0669,-2.072,-2.0837,-2.1167,-2.0925,-2.083,-2.1101,-2.0845,-2.0625,-2.0581,-2.0325,-1.993,-1.9389,-1.9301,-1.9279,-1.9279,-1.9279,-1.9279,-1.9279,-1.9279,-1.9279,-1.9279,-1.9279,-1.9279,-1.9279,-1.9279,-1.9279,-1.9279,-1.9279,-1.9279,-1.9279,-1.9279,-1.9279,-1.9279,-1.9279,-1.9279,-1.9279,-1.9279,-1.9279,-1.9264,-1.922,-1.9199,-1.9191,-1.914,-1.9125,-1.9125,-1.9125,-1.9125,-1.9067,-1.8796,-1.8679,-1.8503,-1.7904,-1.7538,-1.7326,-1.7326,-1.7326,-1.7326,-1.7326,-1.7326,-1.7326,-1.7326,-1.7326,-1.7326,-1.7326,-1.7326,-1.7113,-1.6469,-1.6367,-1.6133,-1.5452,0.0,-1.5935,-1.6191,-1.6506,-1.6828,-1.715,-1.6982,-1.6945,-1.7165,-1.7026,-1.7026,-1.7245,-1.7304,-1.7326,-1.7326,-1.7326,-1.7326,-1.7326,-1.7138,-1.6882,-1.6593,-1.6286,-1.5965,-1.5648,-1.4482,-1.3954,-1.384,-1.2871,-1.2441,-1.2441,-1.2441,-1.2441,-1.2441,-1.2441,-1.2441,-1.2441,-1.2441,-1.2578,-1.2772,-2.0078,-2.0008,-2.0076,-2.0355,-2.0158,-2.0101,-2.0596,-2.0678,-2.0619,-2.0662,-2.0706,-2.0779,-2.0933,-2.0969,-2.0845,-2.0494,-2.0318,-1.9967,-1.9323,-1.9279,-1.9279,-1.9279,-1.9279,-1.9279,-1.9279,-1.9279,-1.9279,-1.9279,-1.9279,-1.9279,-1.9279,-1.9279,-1.9279,-1.9279,-1.9279,-1.9279,-1.9279,-1.9279,-1.9279,-1.9279,-1.9279,-1.9279,-1.9279,-1.9279,-1.9279,-1.9279,-1.9279,-1.9279,-1.9279,-1.9279,-1.9279,-1.9279,-1.9279,-1.9279,-1.925,-1.9096,-1.8803,-1.8423,-1.7947,-1.7706,-1.7545,-1.7377,-1.7326,-1.7326,-1.7326,-1.7326,-1.7326,-1.7326,-1.7326,-1.7326,-1.7326,-1.7326,-1.7179,-1.6711,-1.6484,0.0,-1.5979,-1.5928,-1.6089,-1.6572,-1.6853,-1.6982,-1.7296,-1.7194,-1.7172,-1.7318,-1.7194,-1.7172,-1.7318,-1.7326,-1.7326,-1.7326,-1.7326,-1.7326,-1.7326,-1.7326,-1.7361,-1.7498,-1.6893,-1.6695,-1.6829,-1.5654,-1.4804,-1.4169,-1.3624,-1.298,-1.2441,-1.2441,-1.2441,-1.2441,-1.2441,-1.2441,-1.2441,-1.2441,-1.2502,-1.2606,-2.0292,-2.0094,-2.0081,-2.0542,-2.0165,-1.9986,-2.0565,-2.0547,-2.0468,-2.0332,-2.0391,-2.0523,-2.0603,-2.0772,-2.0676,-2.0172,-2.0128,-1.9886,-1.9316,-1.9279,-1.9279,-1.9279,-1.9279,-1.9279,-1.9279,-1.9279,-1.9279,-1.9279,-1.9279,-1.9279,-1.9279,-1.9279,-1.9279,-1.9279,-1.9279,-1.9279,-1.9279,-1.9279,-1.9279,-1.9279,-1.9279,-1.9279,-1.9279,-1.9279,-1.9279,-1.9279,-1.9279,-1.9279,-1.9279,-1.9279,-1.9279,-1.9279,-1.9279,-1.9279,-1.9279,-1.9279,-1.8921,-1.8438,-1.8035,-1.7874,-1.7735,-1.7406,-1.7326,-1.7326,-1.7326,-1.7326,-1.7326,-1.7326,-1.7326,-1.7326,-1.7326,-1.7326,-1.7223,-1.6908,0.0,-1.6455,-1.6382,-1.6235,-1.6309,-1.6799,-1.6923,-1.7062,-1.7304,-1.7326,-1.7326,-1.7326,-1.7326,-1.7326,-1.7326,-1.7326,-1.7326,-1.7326,-1.7326,-1.7326,-1.7326,-1.7326,-1.7655,-1.8299,-1.7399,-1.7313,-1.8003,-1.6823,-1.5867,-1.5024,-1.4702,-1.3948,-1.2871,-1.2871,-1.2654,-1.2441,-1.2441,-1.2441,-1.2441,-1.2441,-1.2441,-1.2465,-2.0814,-2.0617,-2.0426,-2.0449,-2.0315,-2.0208,-2.0567,-2.0423,-2.0323,-2.0513,-2.0212,-1.9945,-2.0237,-2.0033,-1.985,-1.9798,-1.9798,-1.9652,-1.9301,-1.9279,-1.9279,-1.9279,-1.9279,-1.9279,-1.9279,-1.9279,-1.9279,-1.9279,-1.9279,-1.9279,-1.9279,-1.9279,-1.9279,-1.9279,-1.9279,-1.9279,-1.9279,-1.9279,-1.9279,-1.9279,-1.9279,-1.9279,-1.9279,-1.9279,-1.9279,-1.9279,-1.9279,-1.9279,-1.9279,-1.9279,-1.9279,-1.9279,-1.9279,-1.9279,-1.9279,-1.9279,-1.9242,-1.9067,-1.8438,-1.805,-1.7735,-1.7406,-1.7326,-1.7326,-1.7326,-1.7326,-1.7326,-1.7326,-1.7326,-1.7326,-1.7326,-1.7326,-1.7223,-1.6908,0.0,0.0,-1.6411,-1.6608,-1.6799,-1.685,-1.7113,-1.7304,-1.7326,-1.7326,-1.7326,-1.7326,-1.7326,-1.7326,-1.7326,-1.7326,-1.7326,-1.7326,-1.7326,-1.7326,-1.7326,-1.7326,-1.7655,-1.8299,-1.82,-1.8542,-1.9168,-1.8003,-1.747,-1.7259,-1.6187,-1.512,-1.4062,-1.4062,-1.3413,-1.2441,-1.2441,-1.2441,-1.2441,-1.2441,-1.2441,-1.2441,-2.0925,-2.0822,-2.0719,-2.0719,-2.0609,-2.0553,-2.0581,-2.05,-2.033,-2.0347,-2.0332,-2.0225,-2.0245,-2.0219,-2.0182,-1.9784,-1.9762,-1.9623,-1.9294,-1.9279,-1.9279,-1.9279,-1.9279,-1.9279,-1.9279,-1.9279,-1.9279,-1.9279,-1.9279,-1.9279,-1.9279,-1.9279,-1.9279,-1.9279,-1.9279,-1.9279,-1.9279,-1.9279,-1.9279,-1.9279,-1.9279,-1.9279,-1.9279,-1.9279,-1.9279,-1.9279,-1.9279,-1.9279,-1.9279,-1.9279,-1.9279,-1.9279,-1.9279,-1.9279,-1.9279,-1.9279,-1.9279,-1.9177,-1.873,-1.8364,-1.8035,-1.7713,-1.7479,-1.7326,-1.7326,-1.7326,-1.7326,-1.7326,-1.7326,-1.7326,-1.7326,-1.7326,-1.7289,-1.7165,0.0,-1.6879,-1.6952,-1.6901,-1.693,-1.7121,-1.7252,-1.7326,-1.7326,-1.7326,-1.7326,-1.7326,-1.7326,-1.7326,-1.7326,-1.7326,-1.7326,-1.7326,-1.7326,-1.7326,-1.7326,-1.7326,-1.7655,-1.8299,-1.8299,-1.8642,-1.9279,-1.8855,-1.8318,-1.7582,-1.7147,-1.6293,-1.5227,-1.5227,-1.5007,-1.4471,-1.3835,-1.3521,-1.3413,-1.2654,-1.2441,-1.2441,-2.0925,-2.0925,-2.0925,-2.0925,-2.0925,-2.0822,-2.0617,-2.0514,-2.0411,-2.0292,-2.0292,-2.0227,-2.0016,-2.0111,-2.0049,-1.963,-1.9608,-1.9513,-1.9294,-1.9279,-1.9279,-1.9279,-1.9279,-1.9279,-1.9279,-1.9279,-1.9279,-1.9279,-1.9279,-1.9279,-1.9279,-1.9279,-1.9279,-1.9279,-1.9279,-1.9279,-1.9279,-1.9279,-1.9279,-1.9279,-1.9279,-1.9279,-1.9279,-1.9279,-1.9279,-1.9279,-1.9279,-1.9279,-1.9279,-1.9279,-1.9279,-1.9279,-1.9279,-1.9279,-1.9279,-1.9279,-1.9279,-1.9228,-1.9001,-1.8701,-1.835,-1.7918,-1.7647,-1.7457,-1.7355,-1.7326,-1.7326,-1.7326,-1.7326,-1.7326,-1.7326,-1.7326,-1.7326,-1.7326,-1.715,-1.7077,-1.7296,-1.7135,-1.7084,-1.7304,-1.7326,-1.7326,-1.7326,-1.7326,-1.7326,-1.7326,-1.7326,-1.7326,-1.7326,-1.7326,-1.7326,-1.7326,-1.7326,-1.7326,-1.7326,-1.7428,-1.7757,-1.8299,-1.8408,-1.8745,-1.9279,-1.9279,-1.8855,-1.8108,-1.8108,-1.747,-1.6399,-1.6399,-1.6187,-1.5861,-1.5013,-1.4696,-1.4589,-1.3408,-1.298,-1.2871,-2.0925,-2.0925,-2.0925,-2.0925,-2.0925,-2.0925,-2.0925,-2.0719,-2.0522,-2.0522,-1.999,-1.968,-1.968,-1.948,-1.9279,-1.9279,-1.9279,-1.9279,-1.9279,-1.9279,-1.9279,-1.9279,-1.9279,-1.9279,-1.9279,-1.9279,-1.9279,-1.9279,-1.9279,-1.9279,-1.9279,-1.9279,-1.9279,-1.9279,-1.9279,-1.9279,-1.9279,-1.9279,-1.9279,-1.9279,-1.9279,-1.9279,-1.9279,-1.9279,-1.9279,-1.9279,-1.9279,-1.9279,-1.9279,-1.9279,-1.9279,-1.9279,-1.9279,-1.9279,-1.9279,-1.9279,-1.9279,-1.9279,-1.9279,-1.9038,-1.8635,-1.7984,-1.7816,-1.7728,-1.7399,-1.7326,-1.7326,-1.7326,-1.7326,-1.7326,-1.7326,-1.7326,-1.7326,-1.7326,-1.7326,-1.7326,-1.7326,-1.7326,-1.7326,-1.7326,-1.7326,-1.7326,-1.7326,-1.7326,-1.7326,-1.7326,-1.7326,-1.7326,-1.7326,-1.7326,-1.7326,-1.7326,-1.7326,-1.7326,-1.7326,-1.7655,-1.7977,-1.8306,-1.8635,-1.8957,-1.9279,-1.9279,-1.9279,-1.9279,-1.9279,-1.8639,-1.7582,-1.7582,-1.6935,-1.5968,-1.5968,-1.5861,-1.5755,-1.4595,-1.4169,-1.4062,-2.0925,-2.0925,-2.0925,-2.0925,-2.0925,-2.0925,-2.0925,-2.0822,-2.0822,-2.0822,-2.0514,-2.0205,-1.9983,-1.9783,-1.948,-1.9272,-1.9279,-1.9279,-1.9279,-1.9279,-1.9279,-1.9279,-1.9279,-1.9279,-1.9279,-1.9279,-1.9279,-1.9279,-1.9279,-1.9279,-1.9279,-1.9279,-1.9279,-1.9279,-1.9279,-1.9279,-1.9279,-1.9279,-1.9279,-1.9279,-1.9279,-1.9279,-1.9279,-1.9279,-1.9279,-1.9279,-1.9279,-1.9279,-1.9279,-1.9279,-1.9279,-1.9279,-1.9279,-1.9279,-1.9279,-1.9279,-1.9279,-1.9279,-1.9279,-1.9206,-1.8979,-1.8321,-1.7984,-1.7728,-1.7399,-1.7326,-1.7326,-1.7326,-1.7326,-1.7326,-1.7326,-1.7326,-1.7326,-1.7326,-1.7326,-1.7326,-1.7326,-1.7326,-1.7326,-1.7326,-1.7326,-1.7326,-1.7326,-1.7326,-1.7326,-1.7326,-1.7326,-1.7326,-1.7326,-1.7326,-1.7326,-1.7326,-1.7326,-1.7326,-1.7326,-1.7655,-1.7977,-1.8306,-1.8635,-1.8957,-1.9279,-1.9279,-1.9279,-1.9279,-1.9279,-1.9063,-1.8743,-1.8743,-1.8639,-1.8206,-1.7364,-1.7041,-1.6935,-1.5761,-1.4911,-1.4164,-2.0925,-2.0925,-2.0925,-2.0925,-2.0925,-2.0925,-2.0925,-2.0925,-2.0925,-2.0925,-2.0617,-2.0411,-2.03,-1.999,-1.9776,-1.948,-1.9376,-1.9279,-1.9279,-1.9279,-1.9279,-1.9279,-1.9279,-1.9279,-1.9279,-1.9279,-1.9279,-1.9279,-1.9279,-1.9279,-1.9279,-1.9279,-1.9279,-1.9279,-1.9279,-1.9279,-1.9279,-1.9279,-1.9279,-1.9279,-1.9279,-1.9279,-1.9279,-1.9279,-1.9279,-1.9279,-1.9279,-1.9279,-1.9279,-1.9279,-1.9279,-1.9279,-1.9279,-1.9279,-1.9279,-1.9279,-1.9279,-1.9279,-1.9279,-1.9279,-1.9147,-1.8628,-1.835,-1.8079,-1.7625,-1.7523,-1.7479,-1.7355,-1.7326,-1.7326,-1.7326,-1.7326,-1.7326,-1.7326,-1.7326,-1.7326,-1.7326,-1.7326,-1.7326,-1.7326,-1.7326,-1.7326,-1.7326,-1.7326,-1.7326,-1.7326,-1.7326,-1.7326,-1.7326,-1.7326,-1.7326,-1.7326,-1.7326,-1.7391,-1.7523,-1.7845,-1.8108,-1.8306,-1.8767,-1.9081,-1.9279,-1.9279,-1.9279,-1.9279,-1.9279,-1.9279,-1.9279,-1.9279,-1.9063,-1.8534,-1.7898,-1.7364,-1.6829,-1.618,-1.5227,-1.4169,-2.0925,-2.0925,-2.0925,-2.0925,-2.0925,-2.0925,-2.0925,-2.0925,-2.0925,-2.0925,-2.0617,-2.0522,-2.0522,-2.03,-1.9983,-1.9783,-1.948,-1.9383,-1.9279,-1.9279,-1.9279,-1.9279,-1.9279,-1.9279,-1.9279,-1.9279,-1.9279,-1.9279,-1.9279,-1.9279,-1.9279,-1.9279,-1.9279,-1.9279,-1.9279,-1.9279,-1.9279,-1.9279,-1.9279,-1.9279,-1.9279,-1.9279,-1.9279,-1.9279,-1.9279,-1.9279,-1.9279,-1.9279,-1.9279,-1.9279,-1.9279,-1.9279,-1.9279,-1.9279,-1.9279,-1.9279,-1.9279,-1.9279,-1.9279,-1.9279,-1.9206,-1.8906,-1.8833,-1.8657,-1.7969,-1.7816,-1.7721,-1.7399,-1.7326,-1.7326,-1.7326,-1.7326,-1.7326,-1.7326,-1.7326,-1.7326,-1.7326,-1.7326,-1.7326,-1.7326,-1.7326,-1.7326,-1.7326,-1.7326,-1.7326,-1.7326,-1.7326,-1.7326,-1.7326,-1.7326,-1.7326,-1.7326,-1.7326,-1.7486,-1.7808,-1.8138,-1.8321,-1.8357,-1.8979,-1.9279,-1.9279,-1.9279,-1.9279,-1.9279,-1.9279,-1.9279,-1.9272,-1.9168,-1.8534,-1.7582,-1.7477,-1.6829,-1.5861,-1.5861,-1.5227,-1.4164,-2.0925,-2.0925,-2.0925,-2.0925,-2.0925,-2.0925,-2.0925,-2.0925,-2.0925,-2.0925,-2.0617,-2.0522,-2.0522,-2.03,-2.0078,-1.9983,-1.9783,-1.948,-1.9272,-1.9279,-1.9279,-1.9279,-1.9279,-1.9279,-1.9279,-1.9279,-1.9279,-1.9279,-1.9279,-1.9279,-1.9279,-1.9279,-1.9279,-1.9279,-1.9279,-1.9279,-1.9279,-1.9279,-1.9279,-1.9279,-1.9279,-1.9279,-1.9279,-1.9279,-1.9279,-1.9279,-1.9279,-1.9279,-1.9279,-1.9279,-1.9279,-1.9279,-1.9279,-1.9279,-1.9279,-1.9279,-1.9279,-1.9279,-1.9279,-1.9279,-1.9257,-1.9184,-1.9169,-1.8935,-1.8021,-1.7816,-1.7721,-1.7399,-1.7326,-1.7326,-1.7326,-1.7326,-1.7326,-1.7326,-1.7326,-1.7326,-1.7326,-1.7326,-1.7326,-1.7326,-1.7326,-1.7326,-1.7326,-1.7326,-1.7326,-1.7326,-1.7326,-1.7326,-1.7326,-1.7326,-1.7326,-1.7326,-1.7326,-1.7486,-1.7808,-1.8138,-1.843,-1.8686,-1.9089,-1.9279,-1.9279,-1.9279,-1.9279,-1.9279,-1.9279,-1.9279,-1.9272,-1.8325,-1.7793,-1.7477,-1.6611,-1.6074,-1.5861,-1.5861,-1.5227,-1.4062,-2.0925,-2.0925,-2.0925,-2.0925,-2.0925,-2.0925,-2.0925,-2.0925,-2.0925,-2.0925,-2.0822,-2.0719,-2.0719,-2.0609,-2.0395,-2.0078,-1.9879,-1.9583,-1.9272,-1.9279,-1.9279,-1.9279,-1.9279,-1.9279,-1.9279,-1.9279,-1.9279,-1.9279,-1.9279,-1.9279,-1.9279,-1.9279,-1.9279,-1.9279,-1.9279,-1.9279,-1.9279,-1.9279,-1.9279,-1.9279,-1.9279,-1.9279,-1.9279,-1.9279,-1.9279,-1.9279,-1.9279,-1.9279,-1.9279,-1.9279,-1.9279,-1.9279,-1.9279,-1.9279,-1.9279,-1.9279,-1.9279,-1.9279,-1.9279,-1.9279,-1.9279,-1.9279,-1.9279,-1.9103,-1.843,-1.816,-1.7955,-1.7625,-1.7435,-1.7326,-1.7326,-1.7326,-1.7326,-1.7326,-1.7326,-1.7326,-1.7326,-1.7326,-1.7326,-1.7326,-1.7326,-1.7326,-1.7326,-1.7326,-1.7326,-1.7326,-1.7326,-1.7326,-1.7326,-1.7326,-1.7326,-1.7326,-1.7479,-1.7721,-1.8043,-1.8372,-1.8701,-1.9023,-1.9199,-1.9279,-1.9279,-1.9279,-1.9279,-1.9279,-1.9279,-1.9279,-1.9279,-1.8639,-1.8115,-1.7477,-1.6399,-1.5861,-1.5861,-1.5334,-1.4696,-1.4062,-2.0925,-2.0925,-2.0925,-2.0925,-2.0925,-2.0925,-2.0925,-2.0925,-2.0925,-2.0925,-2.0925,-2.0925,-2.0925,-2.0925,-2.0712,-2.0181,-1.9879,-1.968,-1.9272,-1.9279,-1.9279,-1.9279,-1.9279,-1.9279,-1.9279,-1.9279,-1.9279,-1.9279,-1.9279,-1.9279,-1.9279,-1.9279,-1.9279,-1.9279,-1.9279,-1.9279,-1.9279,-1.9279,-1.9279,-1.9279,-1.9279,-1.9279,-1.9279,-1.9279,-1.9279,-1.9279,-1.9279,-1.9279,-1.9279,-1.9279,-1.9279,-1.9279,-1.9279,-1.9279,-1.9279,-1.9279,-1.9279,-1.9279,-1.9279,-1.9279,-1.9279,-1.9279,-1.9279,-1.9206,-1.8935,-1.8621,-1.8291,-1.7962,-1.7684,-1.7479,-1.7421,-1.7413,-1.7391,-1.7333,-1.7326,-1.7326,-1.7326,-1.7326,-1.7326,-1.7326,-1.7326,-1.7326,-1.7326,-1.7326,-1.7326,-1.7326,-1.7326,-1.7326,-1.7326,-1.7326,-1.7326,-1.7326,-1.7647,-1.7969,-1.8299,-1.8628,-1.895,-1.9279,-1.9279,-1.9279,-1.9279,-1.9279,-1.9279,-1.9279,-1.9279,-1.9279,-1.9279,-1.9063,-1.8429,-1.7477,-1.6399,-1.5861,-1.5755,-1.4589,-1.4272,-1.4272,-2.0925,-2.0925,-2.0925,-2.0925,-2.0925,-2.0925,-2.0925,-2.0925,-2.0925,-2.0925,-2.0925,-2.0925,-2.0925,-2.0925,-2.0712,-2.0181,-2.0086,-1.9879,-1.9376,-1.9279,-1.9279,-1.9279,-1.9279,-1.9279,-1.9279,-1.9279,-1.9279,-1.9279,-1.9279,-1.9279,-1.9279,-1.9279,-1.9279,-1.9279,-1.9279,-1.9279,-1.9279,-1.9279,-1.9279,-1.9279,-1.9279,-1.9279,-1.9279,-1.9279,-1.9279,-1.9279,-1.9279,-1.9279,-1.9279,-1.9279,-1.9279,-1.9279,-1.9279,-1.9279,-1.9279,-1.9279,-1.9279,-1.9279,-1.9279,-1.9279,-1.9279,-1.9279,-1.9279,-1.9264,-1.922,-1.8957,-1.8628,-1.8299,-1.8203,-1.8086,-1.7801,-1.775,-1.7655,-1.7377,-1.7326,-1.7326,-1.7326,-1.7326,-1.7326,-1.7326,-1.7326,-1.7326,-1.7326,-1.7326,-1.7326,-1.7326,-1.7326,-1.7326,-1.7326,-1.7326,-1.7326,-1.7326,-1.7647,-1.7969,-1.8299,-1.8628,-1.895,-1.9279,-1.9279,-1.9279,-1.9279,-1.9279,-1.9279,-1.9279,-1.9279,-1.9279,-1.9168,-1.822,-1.7687,-1.7477,-1.6399,-1.5861,-1.5755,-1.4589,-1.4804,-1.5547,-2.0925,-2.0925,-2.0925,-2.0925,-2.0925,-2.0925,-2.0925,-2.0925,-2.0925,-2.0925,-2.0925,-2.0925,-2.0925,-2.0925,-2.0712,-2.0181,-2.0078,-1.9879,-1.9376,-1.9279,-1.9279,-1.9279,-1.9279,-1.9279,-1.9279,-1.9279,-1.9279,-1.9279,-1.9279,-1.9279,-1.9279,-1.9279,-1.9279,-1.9279,-1.9279,-1.9279,-1.9279,-1.9279,-1.9279,-1.9279,-1.9279,-1.9279,-1.9279,-1.9279,-1.9279,-1.9279,-1.9279,-1.9279,-1.9279,-1.9279,-1.9279,-1.9279,-1.9279,-1.9279,-1.9279,-1.9279,-1.9279,-1.9279,-1.9279,-1.9279,-1.9279,-1.9279,-1.9279,-1.9279,-1.9279,-1.9169,-1.8964,-1.8642,-1.843,-1.8255,-1.8116,-1.794,-1.7765,-1.7625,-1.7443,-1.7326,-1.7326,-1.7326,-1.7326,-1.7326,-1.7326,-1.7326,-1.7326,-1.7326,-1.7326,-1.7326,-1.7326,-1.7326,-1.7326,-1.7326,-1.7326,-1.7326,-1.7647,-1.7969,-1.8299,-1.8628,-1.895,-1.9279,-1.9279,-1.9279,-1.9279,-1.9279,-1.9279,-1.9279,-1.9279,-1.9279,-1.9272,-1.8743,-1.8534,-1.8429,-1.7252,-1.6505,-1.5968,-1.6086,-1.5974,-1.5861]},{"header":{"parameterUnit":"m.s-1","parameterCategory":1,"la1":30.6,"la2":28.766,"lo1":-90.7593,"lo2":-88.6598,"dy":0.0162,"dx":0.0183,"nx":116,"ny":114,"refTime":"2024-06-22T00:00:00:Z","depth":0,"parameterNumber":3,"parameterNumberName":"V-component_of_WINDS"},"data":[0.0,0.0,0.0,0.0,0.0,0.0,0.0,0.0,0.0,0.0,0.0,0.0,0.0,0.0,0.0,0.0,0.0,0.0,0.0,0.0,0.0,0.0,0.0,0.0,0.0,0.0,0.0,0.0,0.0,0.0,0.0,0.0,0.0,0.0,0.0,0.0,0.0,0.0,0.0,0.0,0.0,0.0,0.0,0.0,0.0,0.0,0.0,0.0,0.0,0.0,0.0,0.0,0.0,0.0,0.0,0.0,0.0,0.0,0.0,0.0,0.0,0.0,0.0,0.0,0.0,0.0,0.0,0.0,0.0,0.0,0.0,0.0,0.0,0.0,0.0,0.0,0.0,0.0,0.0,0.0,0.0,0.0,0.0,0.0,0.0,0.0,0.0,0.0,0.0,0.0,0.0,0.0,0.0,0.0,0.0,0.0,0.0,0.0,0.0,0.0,0.0,0.0,0.0,0.0,0.0,0.0,0.0,0.0,0.0,0.0,0.0,0.0,0.0,0.0,0.0,0.0,0.0,0.0,0.0,0.0,0.0,0.0,0.0,0.0,0.0,0.0,0.0,0.0,0.0,0.0,0.0,0.0,0.0,0.0,0.0,0.0,0.0,0.0,0.0,0.0,0.0,0.0,0.0,0.0,0.0,0.0,0.0,0.0,0.0,0.0,0.0,0.0,0.0,0.0,0.0,0.0,0.0,0.0,0.0,0.0,0.0,0.0,0.0,0.0,0.0,0.0,0.0,0.0,0.0,0.0,0.0,0.0,0.0,0.0,0.0,0.0,0.0,0.0,0.0,0.0,0.0,0.0,0.0,0.0,0.0,0.0,0.0,0.0,0.0,0.0,0.0,0.0,0.0,0.0,0.0,0.0,0.0,0.0,0.0,0.0,0.0,0.0,0.0,0.0,0.0,0.0,0.0,0.0,0.0,0.0,0.0,0.0,0.0,0.0,0.0,0.0,0.0,0.0,0.0,0.0,0.0,0.0,0.0,0.0,0.0,0.0,0.0,0.0,0.0,0.0,0.0,0.0,0.0,0.0,0.0,0.0,0.0,0.0,0.0,0.0,0.0,0.0,0.0,0.0,0.0,0.0,0.0,0.0,0.0,0.0,0.0,0.0,0.0,0.0,0.0,0.0,0.0,0.0,0.0,0.0,0.0,0.0,0.0,0.0,0.0,0.0,0.0,0.0,0.0,0.0,0.0,0.0,0.0,0.0,0.0,0.0,0.0,0.0,0.0,0.0,0.0,0.0,0.0,0.0,0.0,0.0,0.0,0.0,0.0,0.0,0.0,0.0,0.0,0.0,0.0,0.0,0.0,0.0,0.0,0.0,0.0,0.0,0.0,0.0,0.0,0.0,0.0,0.0,0.0,0.0,0.0,0.0,0.0,0.0,0.0,0.0,0.0,0.0,0.0,0.0,0.0,0.0,0.0,0.0,0.0,0.0,0.0,0.0,0.0,0.0,0.0,0.0,0.0,0.0,0.0,0.0,0.0,0.0,0.0,0.0,0.0,0.0,0.0,0.0,0.0,0.0,0.0,0.0,0.0,0.0,0.0,0.0,0.0,0.0,0.0,0.0,0.0,0.0,0.0,0.0,0.0,0.0,0.0,0.0,0.0,0.0,0.0,0.0,0.0,0.0,0.0,0.0,0.0,0.0,0.0,0.0,0.0,0.0,0.0,0.0,0.0,0.0,0.0,0.0,0.0,0.0,0.0,0.0,0.0,0.0,0.0,0.0,0.0,0.0,0.0,0.0,0.0,0.0,0.0,0.0,0.0,0.0,0.0,0.0,0.0,0.0,0.0,0.0,0.0,0.0,0.0,0.0,0.0,0.0,0.0,0.0,0.0,0.0,0.0,0.0,0.0,0.0,0.0,0.0,0.0,0.0,0.0,0.0,0.0,0.0,0.0,0.0,0.0,0.0,0.0,0.0,0.0,0.0,0.0,0.0,0.0,0.0,0.0,0.0,0.0,0.0,0.0,0.0,0.0,0.0,0.0,0.0,0.0,0.0,0.0,0.0,0.0,0.0,0.0,0.0,0.0,0.0,0.0,0.0,0.0,0.0,0.0,0.0,0.0,0.0,0.0,0.0,0.0,0.0,0.0,0.0,0.0,0.0,0.0,0.0,0.0,0.0,0.0,0.0,0.0,0.0,0.0,0.0,0.0,0.0,0.0,0.0,0.0,0.0,0.0,0.0,0.0,0.0,0.0,0.0,0.0,0.0,0.0,0.0,0.0,0.0,0.0,0.0,0.0,0.0,0.0,0.0,0.0,0.0,0.0,0.0,0.0,0.0,0.0,0.0,0.0,0.0,0.0,0.0,0.0,0.0,0.0,0.0,0.0,0.0,0.0,0.0,0.0,0.0,0.0,0.0,0.0,0.0,0.0,0.0,0.0,0.0,0.0,0.0,0.0,0.0,0.0,0.0,0.0,0.0,0.0,0.0,0.0,0.0,0.0,0.0,0.0,0.0,0.0,0.0,0.0,0.0,0.0,0.0,0.0,0.0,0.0,0.0,0.0,0.0,0.0,0.0,0.0,0.0,0.0,0.0,0.0,0.0,0.0,0.0,0.0,0.0,0.0,0.0,0.0,0.0,0.0,0.0,0.0,0.0,0.0,0.0,0.0,0.0,0.0,0.0,0.0,0.0,0.0,0.0,0.0,0.0,0.0,0.0,0.0,0.0,0.0,0.0,0.0,0.0,0.0,0.0,0.0,0.0,0.0,0.0,0.0,0.0,0.0,0.0,0.0,0.0,0.0,0.0,0.0,0.0,0.0,0.0,0.0,0.0,0.0,0.0,0.0,0.0,0.0,0.0,0.0,0.0,0.0,0.0,0.0,0.0,0.0,0.0,0.0,0.0,0.0,0.0,0.0,0.0,0.0,0.0,0.0,0.0,0.0,0.0,0.0,0.0,0.0,0.0,0.0,0.0,0.0,0.0,0.0,0.0,0.0,0.0,0.0,0.0,0.0,0.0,0.0,0.0,0.0,0.0,0.0,0.0,0.0,0.0,0.0,0.0,0.0,0.0,0.0,0.0,0.0,0.0,0.0,0.0,0.0,0.0,0.0,0.0,0.0,0.0,0.0,0.0,0.0,0.0,0.0,0.0,0.0,0.0,0.0,0.0,0.0,0.0,0.0,0.0,0.0,0.0,0.0,0.0,0.0,0.0,0.0,0.0,0.0,0.0,0.0,0.0,0.0,0.0,0.0,0.0,0.0,0.0,0.0,0.0,0.0,0.0,0.0,0.0,0.0,0.0,0.0,0.0,0.0,0.0,0.0,0.0,0.0,0.0,0.0,0.0,0.0,0.0,0.0,0.0,0.0,0.0,0.0,0.0,0.0,0.0,0.0,0.0,0.0,0.0,0.0,0.0,0.0,0.0,0.0,0.0,0.0,0.0,0.0,0.0,0.0,0.0,0.0,0.0,0.0,0.0,0.0,0.0,0.0,0.0,0.0,0.0,0.0,0.0,0.0,0.0,0.0,0.0,0.0,0.0,0.0,0.0,0.0,0.0,0.0,0.0,0.0,0.0,0.0,0.0,0.0,0.0,0.0,0.0,0.0,0.0,0.0,0.0,0.0,0.0,0.0,0.0,0.0,0.0,0.0,0.0,0.0,0.0,0.0,0.0,0.0,0.0,0.0,0.0,0.0,0.0,0.0,0.0,0.0,0.0,0.0,0.0,0.0,0.0,0.0,0.0,0.0,0.0,0.0,0.0,0.0,0.0,0.0,0.0,0.0,0.0,0.0,0.0,0.0,0.0,0.0,0.0,0.0,0.0,0.0,0.0,0.0,0.0,0.0,0.0,0.0,0.0,0.0,0.0,0.0,0.0,0.0,0.0,0.0,0.0,0.0,0.0,0.0,0.0,0.0,0.0,0.0,0.0,0.0,0.0,0.0,0.0,0.0,0.0,0.0,0.0,0.0,0.0,0.0,0.0,0.0,0.0,0.0,0.0,0.0,0.0,0.0,0.0,0.0,0.0,0.0,0.0,0.0,0.0,0.0,0.0,0.0,0.0,0.0,0.0,0.0,0.0,0.0,0.0,0.0,0.0,0.0,0.0,0.0,0.0,0.0,0.0,0.0,0.0,0.0,0.0,0.0,0.0,0.0,0.0,0.0,0.0,0.0,0.0,0.0,0.0,0.0,0.0,0.0,0.0,0.0,0.0,0.0,0.0,0.0,0.0,0.0,0.0,0.0,0.0,0.0,0.0,0.0,0.0,0.0,0.0,0.0,0.0,0.0,0.0,0.0,0.0,0.0,0.0,0.0,0.0,0.0,0.0,0.0,0.0,0.0,0.0,0.0,0.0,0.0,0.0,0.0,0.0,0.0,0.0,0.0,0.0,0.0,0.0,0.0,0.0,0.0,0.0,0.0,0.0,0.0,0.0,0.0,0.0,0.0,0.0,0.0,0.0,0.0,0.0,0.0,0.0,0.0,0.0,0.0,0.0,0.0,0.0,0.0,0.0,0.0,0.0,0.0,0.0,0.0,0.0,0.0,0.0,0.0,0.0,0.0,0.0,0.0,0.0,0.0,0.0,0.0,0.0,0.0,0.0,0.0,0.0,0.0,0.0,0.0,0.0,0.0,0.0,0.0,0.0,0.0,0.0,0.0,0.0,0.0,0.0,0.0,0.0,0.0,0.0,0.0,0.0,0.0,0.0,0.0,0.0,0.0,0.0,0.0,0.0,0.0,0.0,0.0,0.0,0.0,0.0,0.0,0.0,0.0,0.0,0.0,0.0,0.0,0.0,0.0,0.0,0.0,0.0,0.0,0.0,0.0,0.0,0.0,0.0,0.0,0.0,0.0,0.0,0.0,0.0,0.0,0.0,0.0,0.0,0.0,0.0,0.0,0.0,0.0,0.0,0.0,0.0,0.0,0.0,0.0,0.0,0.0,0.0,0.0,0.0,0.0,0.0,0.0,0.0,0.0,0.0,0.0,0.0,0.0,0.0,0.0,0.0,0.0,0.0,0.0,0.0,0.0,0.0,0.0,0.0,0.0,0.0,0.0,0.0,0.0,0.0,0.0,0.0,0.0,0.0,0.0,0.0,0.0,0.0,0.0,0.0,0.0,0.0,0.0,0.0,0.0,0.0,0.0,0.0,0.0,0.0,0.0,0.0,0.0,0.0,0.0,0.0,0.0,0.0,0.0,0.0,0.0,0.0,0.0,0.0,0.0,0.0,0.0,0.0,0.0,0.0,0.0,0.0,0.0,0.0,0.0,0.0,0.0,0.0,0.0,0.0,0.0,0.0,0.0,0.0,0.0,0.0,0.0,0.0,0.0,0.0,0.0,0.0,0.0,0.0,0.0,0.0,0.0,0.0,0.0,0.0,0.0,0.0,0.0,0.0,0.0,0.0,0.0,0.0,0.0,0.0,0.0,0.0,0.0,0.0,0.0,0.0,0.0,0.0,0.0,0.0,0.0,0.0,0.0,0.0,0.0,0.0,0.0,0.0,0.0,0.0,0.0,0.0,0.0,0.0,0.0,0.0,0.0,0.0,0.0,0.0,0.0,0.0,0.0,0.0,0.0,0.0,0.0,0.0,0.0,0.0,0.0,0.0,0.0,0.0,0.0,0.0,0.0,0.0,0.0,0.0,0.0,0.0,0.0,0.0,0.0,0.0,0.0,0.0,0.0,0.0,0.0,0.0,0.0,0.0,0.0,0.0,0.0,0.0,0.0,0.0,0.0,0.0,0.0,0.0,0.0,0.0,0.0,0.0,0.0,0.0,0.0,0.0,0.0,0.0,0.0,0.0,0.0,0.0,0.0,0.0,0.0,0.0,0.0,0.0,0.0,0.0,0.0,0.0,0.0,0.0,0.0,0.0,0.0,0.0,0.0,0.0,0.0,0.0,0.0,0.0,0.0,0.0,0.0,0.0,0.0,0.0,0.0,0.0,0.0,0.0,0.0,0.0,0.0,0.0,0.0,0.0,0.0,0.0,0.0,0.0,0.0,0.0,0.0,0.0,0.0,0.0,0.0,0.0,0.0,0.0,0.0,0.0,0.0,0.0,0.0,0.0,0.0,0.0,0.0,0.0,0.0,0.0,0.0,0.0,0.0,0.0,0.0,0.0,0.0,0.0,0.0,0.0,0.0,0.0,-3.2911,0.0,0.0,0.0,0.0,0.0,0.0,0.0,0.0,0.0,0.0,0.0,0.0,0.0,0.0,0.0,0.0,0.0,0.0,0.0,0.0,0.0,0.0,0.0,0.0,-1.6685,-1.7437,-1.8733,-1.921,-1.963,-2.0069,0.0,0.0,0.0,0.0,0.0,-1.8234,-1.8215,-1.8215,-1.8215,-1.9066,-2.0098,-2.1301,-2.1273,-2.0622,-1.95,0.0,0.0,0.0,0.0,0.0,0.0,0.0,0.0,0.0,0.0,0.0,0.0,0.0,0.0,0.0,0.0,0.0,0.0,0.0,0.0,0.0,0.0,0.0,0.0,0.0,0.0,0.0,0.0,0.0,0.0,0.0,0.0,0.0,0.0,0.0,0.0,0.0,0.0,0.0,0.0,0.0,0.0,0.0,0.0,0.0,0.0,0.0,0.0,0.0,0.0,0.0,0.0,0.0,0.0,0.0,0.0,0.0,0.0,0.0,0.0,0.0,0.0,0.0,0.0,0.0,0.0,0.0,0.0,0.0,0.0,0.0,-3.5264,0.0,0.0,0.0,0.0,0.0,0.0,0.0,0.0,0.0,0.0,0.0,0.0,0.0,0.0,0.0,0.0,0.0,0.0,0.0,0.0,0.0,-1.5583,-1.651,-1.7464,-1.8399,-1.9257,-2.0079,-2.048,-2.0346,-2.0327,0.0,0.0,0.0,-1.9869,-1.9362,-1.9343,-1.9391,-1.9544,-2.068,-2.2537,-2.5077,-2.5787,-2.5032,-2.3003,-2.1741,0.0,0.0,0.0,0.0,0.0,0.0,0.0,0.0,0.0,0.0,0.0,0.0,0.0,0.0,0.0,0.0,0.0,0.0,0.0,0.0,0.0,0.0,0.0,0.0,0.0,0.0,0.0,0.0,0.0,0.0,0.0,0.0,0.0,0.0,0.0,0.0,0.0,0.0,0.0,0.0,0.0,0.0,0.0,0.0,0.0,0.0,0.0,0.0,0.0,0.0,0.0,0.0,0.0,0.0,0.0,0.0,0.0,0.0,0.0,0.0,0.0,0.0,0.0,-4.3474,-4.4727,-4.6113,-4.612,-4.6507,-4.6908,-4.1855,-4.0559,-4.1705,-3.7866,0.0,0.0,0.0,0.0,0.0,0.0,0.0,0.0,0.0,0.0,0.0,0.0,0.0,0.0,0.0,0.0,0.0,0.0,0.0,-1.6456,-1.7352,-1.8838,-2.0117,-2.0986,-2.1798,-2.197,-2.1273,-2.1235,0.0,0.0,-2.0088,-2.0404,-2.1063,-2.1063,-2.1407,-2.2104,-2.4553,-2.7084,-2.9629,-2.9745,-2.9629,-2.9173,-2.6044,-2.5034,-2.5611,0.0,0.0,0.0,0.0,0.0,0.0,0.0,0.0,0.0,0.0,0.0,0.0,0.0,0.0,0.0,0.0,0.0,0.0,0.0,0.0,0.0,0.0,0.0,0.0,0.0,0.0,0.0,0.0,0.0,0.0,0.0,0.0,0.0,0.0,0.0,0.0,0.0,0.0,0.0,0.0,0.0,-2.9479,-3.1213,0.0,0.0,0.0,0.0,0.0,0.0,0.0,0.0,0.0,0.0,0.0,0.0,0.0,-4.3036,-4.3806,-4.6225,-4.7557,-4.7799,-4.9439,-5.0332,-5.0562,-5.0551,-5.0629,-5.0674,-4.9883,0.0,-4.5445,-4.3377,0.0,0.0,0.0,0.0,0.0,0.0,0.0,0.0,0.0,0.0,0.0,0.0,0.0,0.0,0.0,0.0,0.0,0.0,0.0,0.0,0.0,-1.9382,-2.0633,-2.1951,-2.2849,-2.2963,-2.2123,-2.2066,-2.1703,-2.0862,-2.0824,-2.1005,-2.1388,-2.2314,-2.3724,-2.559,-2.8714,-3.0839,-3.1979,-3.2928,-3.3374,-3.3296,-3.1768,-2.9989,-2.8031,-2.6403,0.0,0.0,0.0,0.0,0.0,0.0,0.0,0.0,0.0,0.0,0.0,0.0,0.0,0.0,0.0,0.0,0.0,0.0,0.0,0.0,0.0,0.0,0.0,0.0,0.0,0.0,0.0,0.0,0.0,0.0,0.0,0.0,0.0,0.0,0.0,0.0,0.0,0.0,0.0,-2.9576,-3.1973,-3.2737,-3.3322,-3.3293,0.0,0.0,0.0,0.0,0.0,0.0,0.0,0.0,0.0,-4.4805,-4.6928,-4.845,-4.9313,-5.1362,-5.263,-5.3142,-5.4396,-5.5255,-5.5719,-5.5723,-5.5723,-5.5719,-5.5723,-5.4337,-5.1796,-4.8088,-4.534,-4.3274,0.0,0.0,0.0,0.0,-4.1722,-4.1913,0.0,0.0,0.0,0.0,0.0,0.0,0.0,0.0,0.0,0.0,0.0,0.0,-1.9047,-2.0518,-2.1913,-2.3155,-2.4052,-2.4186,0.0,-2.3059,-2.2562,-2.1751,-2.1713,-2.1808,-2.2038,-2.39,-2.6389,-2.9492,-3.2085,-3.3722,-3.4419,-3.5658,-3.626,-3.629,-3.629,-3.4331,-3.0889,-2.9219,-2.7917,0.0,0.0,0.0,0.0,0.0,0.0,0.0,0.0,0.0,0.0,0.0,0.0,0.0,0.0,0.0,0.0,0.0,0.0,0.0,0.0,0.0,0.0,0.0,0.0,0.0,0.0,0.0,0.0,0.0,0.0,0.0,0.0,0.0,0.0,0.0,0.0,0.0,0.0,-3.2538,-3.4374,-3.5251,-3.6465,-3.665,0.0,0.0,0.0,0.0,0.0,0.0,-4.4571,-4.637,-4.8267,-5.0375,-5.2128,-5.3357,-5.4001,-5.5465,-5.6519,-5.7177,-5.7812,-5.848,-5.9104,-5.9104,-5.9104,-5.9104,-5.9104,-5.8382,-5.6899,-5.2331,-4.9462,-4.7783,-4.6261,-4.4875,-4.4055,-4.6651,-4.7331,-4.7385,0.0,0.0,0.0,0.0,0.0,0.0,0.0,0.0,0.0,0.0,0.0,-1.9085,-1.9945,-2.2963,-2.4981,-2.5057,-2.581,-2.5925,0.0,0.0,-2.346,-2.2581,-2.2543,-2.2925,-2.3766,-2.623,-2.9577,-3.3776,-3.3962,-3.5354,-3.7858,-3.7936,-3.8031,-3.816,-3.816,-3.7094,-3.5185,-3.3561,-3.1895,-3.0139,0.0,0.0,0.0,0.0,0.0,0.0,0.0,0.0,0.0,0.0,0.0,0.0,0.0,0.0,0.0,0.0,0.0,0.0,0.0,0.0,0.0,0.0,0.0,0.0,0.0,0.0,0.0,0.0,0.0,0.0,0.0,0.0,0.0,0.0,0.0,0.0,0.0,0.0,0.0,-4.0315,-4.0791,0.0,0.0,0.0,0.0,-4.3185,-4.5691,-4.8267,-5.0811,-5.26,-5.3967,-5.4855,-5.6563,-5.7504,-5.7543,-5.846,-5.8929,-5.8968,-5.9007,-5.9065,-5.9104,-5.9104,-5.9104,-5.9104,-5.9104,-5.9046,-5.8773,-5.6079,-5.3951,-5.2292,-5.1375,-5.0965,-5.0906,-5.1082,-5.1648,-5.2234,0.0,0.0,0.0,-1.374,-1.4418,-1.5003,-1.5,-1.548,-1.5952,-1.6319,-1.8293,-2.0002,0.0,-2.349,-2.5421,-2.5937,-2.6746,-2.688,-2.602,0.0,-2.4599,-2.4293,-2.4274,-2.5676,-2.8714,-3.0273,-3.2603,-3.5776,-3.6948,-3.7996,-3.8941,-3.9502,-3.9809,-3.9843,-3.9843,-3.9174,-3.7901,-3.5823,-3.3971,-3.2174,-2.9606,-2.755,0.0,0.0,0.0,0.0,0.0,0.0,0.0,0.0,0.0,0.0,0.0,0.0,0.0,0.0,0.0,0.0,0.0,0.0,0.0,0.0,0.0,0.0,0.0,0.0,0.0,0.0,0.0,0.0,0.0,0.0,0.0,0.0,0.0,0.0,0.0,0.0,0.0,-4.3325,-4.5033,0.0,-4.4841,-4.6045,-4.7385,-4.858,-5.0555,-5.26,-5.465,-5.5825,-5.684,-5.7675,-5.887,-5.9475,-5.9475,-6.0334,-6.0764,-6.0764,-6.0764,-6.0764,-6.0764,-6.0764,-6.0764,-6.0764,-6.0764,-6.0451,-5.9866,-5.8968,-5.7543,-5.5942,-5.563,-5.5201,-5.481,-5.5337,-5.5396,-5.524,-1.2439,-1.3159,0.0,-1.3702,-1.4418,-1.5003,-1.5,-1.5746,-1.6513,-1.7129,-1.9162,-2.1091,-2.2494,-2.4683,-2.6364,-2.7173,-2.7517,-2.7453,-2.688,-2.5822,-2.5191,-2.5191,-2.6013,-2.8294,-3.2267,-3.3212,-3.4918,-3.7475,-3.8676,-3.9427,-3.9721,-4.0294,-4.0593,-4.0629,-4.0629,-4.0346,-3.9727,-3.817,-3.639,-3.4413,-3.209,-3.0492,-2.9186,0.0,0.0,0.0,0.0,0.0,0.0,0.0,0.0,0.0,0.0,0.0,0.0,0.0,0.0,0.0,0.0,0.0,0.0,0.0,0.0,0.0,0.0,0.0,0.0,0.0,0.0,0.0,0.0,0.0,0.0,0.0,0.0,0.0,0.0,0.0,-4.4572,-4.604,-4.8262,-4.9449,-4.8874,-5.0386,-5.1898,-5.3073,-5.4478,-5.604,-5.7797,-5.8382,-5.9085,-5.9944,-6.0549,-6.0842,-6.0842,-6.1408,-6.1701,-6.1701,-6.1701,-6.1701,-6.1701,-6.1701,-6.1701,-6.1701,-6.1701,-6.1369,-6.0842,-6.0842,-6.0159,-5.9065,-5.846,-5.7914,-5.7504,-5.8031,-5.7894,-5.7523,-1.228,-1.3121,-1.3664,-1.3709,-1.443,-1.5006,-1.5003,-1.5749,-1.6924,-1.8581,-2.0346,-2.2361,-2.4808,-2.6645,-2.7994,-2.8755,-2.8134,-2.7701,-2.7663,-2.6128,-2.5249,-2.5344,-2.774,-3.0663,-3.4044,-3.4885,-3.6509,-3.9049,-3.9049,-3.947,-4.031,-4.0329,-4.0401,-4.0527,-4.0566,-4.0636,-4.0759,-4.0759,-3.9367,-3.6986,-3.523,-3.4554,-3.4057,0.0,0.0,0.0,0.0,0.0,0.0,0.0,0.0,0.0,0.0,0.0,0.0,0.0,0.0,0.0,0.0,0.0,0.0,0.0,0.0,0.0,0.0,0.0,0.0,0.0,0.0,0.0,0.0,0.0,0.0,0.0,0.0,0.0,-4.2474,-4.3974,-4.6078,-4.8677,-5.0516,-5.1586,-5.1644,-5.3162,-5.4879,-5.6586,-5.7445,-5.8636,-6.0354,-6.0432,-6.0822,-6.1681,-6.1701,-6.1701,-6.1701,-6.1701,-6.1701,-6.1701,-6.1701,-6.1701,-6.1701,-6.1701,-6.1701,-6.1701,-6.1701,-6.1701,-6.1701,-6.1701,-6.1701,-6.1525,-5.9846,-5.9183,-5.9183,-5.9183,-5.9163,-5.9139,-1.1409,-1.2242,-1.3007,-1.3595,-1.443,-1.5006,-1.5,-1.6236,-1.7584,-1.8714,-2.0862,-2.277,-2.4087,-2.6314,-2.7529,-2.7116,-2.7459,-2.7434,-2.6803,-2.5784,-2.6281,-2.8714,-3.1255,-3.3872,-3.6623,-3.6891,-3.798,-3.9947,-3.9947,-4.0081,-4.031,-4.0903,-4.1189,-4.1263,-4.1876,-4.22,-4.2218,-4.2218,-4.1514,-4.0221,-3.7974,-3.6028,-3.4248,0.0,0.0,0.0,0.0,0.0,0.0,0.0,0.0,0.0,0.0,0.0,0.0,0.0,0.0,0.0,0.0,0.0,0.0,0.0,0.0,0.0,0.0,0.0,0.0,0.0,0.0,0.0,0.0,0.0,0.0,0.0,0.0,-4.5371,-4.5982,-4.8074,-5.0504,-5.313,-5.4423,-5.56,-5.6865,-5.7417,-5.8163,-5.9261,-5.9553,-6.0178,-6.1291,-6.1349,-6.1447,-6.1701,-6.1701,-6.1701,-6.1701,-6.1701,-6.1701,-6.1701,-6.1701,-6.1701,-6.1701,-6.1701,-6.1701,-6.1701,-6.1701,-6.1701,-6.1701,-6.1701,-6.1701,-6.1642,-6.1174,-6.0998,-6.0998,-6.0998,-6.0588,-5.9944,-1.1579,-1.2413,-1.3273,-1.4107,-1.4657,-1.4987,-1.5,-1.6417,-1.7956,-1.923,-2.128,-2.3195,-2.4732,-2.6263,-2.7097,-2.6925,-2.7383,-2.7338,-2.646,-2.6288,-2.7912,-3.1618,0.0,-3.5687,-3.819,-3.861,-3.9298,-4.031,-4.031,-4.0482,-4.0807,-4.1285,-4.1686,-4.2068,-4.2565,-4.2794,-4.2794,-4.2794,-4.2546,-4.2044,-4.063,-3.8846,-3.6823,-3.4904,-3.3817,-3.306,-3.119,-3.0516,-3.0386,-2.9562,0.0,0.0,0.0,0.0,0.0,0.0,0.0,0.0,0.0,0.0,0.0,0.0,0.0,0.0,0.0,0.0,0.0,0.0,0.0,0.0,0.0,0.0,0.0,0.0,-4.6677,-4.9055,-5.0992,-5.222,-5.3631,-5.551,-5.6829,-5.8128,-5.9505,-5.9646,-6.0002,-6.0881,-6.0939,-6.1174,-6.1681,-6.1701,-6.1701,-6.1701,-6.1701,-6.1876,-6.2247,-6.2247,-6.2423,-6.2794,-6.2794,-6.2794,-6.2794,-6.2794,-6.2794,0.0,-6.2794,-6.2579,-6.2247,-6.2247,-6.2032,0.0,0.0,0.0,0.0,0.0,-6.1359,-6.0826,-1.2477,-1.3216,-1.3974,-1.4847,-1.4998,-1.4987,-1.5,-1.6417,-1.8108,-1.985,-2.1553,-2.3503,-2.5901,-2.6288,-2.6638,-2.7249,-2.7542,-2.7396,-2.6727,-2.7663,0.0,-3.3949,-3.5095,-3.6738,-3.9107,-3.9909,-4.0348,-4.0444,-4.0444,-4.0845,-4.1648,-4.1743,-4.2183,-4.2947,-4.3042,-4.308,-4.308,-4.308,-4.3023,-4.2947,-4.2947,-4.2096,-4.0456,-3.7269,-3.6477,-3.6687,-3.3577,-3.2518,-3.2477,-3.1728,0.0,0.0,0.0,0.0,0.0,0.0,0.0,0.0,0.0,0.0,0.0,0.0,0.0,0.0,0.0,0.0,0.0,0.0,0.0,0.0,0.0,0.0,0.0,0.0,-5.0128,-5.2955,-5.6192,-5.6153,-5.6062,-5.6842,-5.8309,-5.9588,-6.0451,-6.0549,-6.0861,-6.1642,-6.1701,-6.1701,-6.1701,0.0,0.0,0.0,0.0,-6.2559,-6.3418,-6.3438,-6.3828,-6.457,-6.457,-6.457,-6.457,-6.457,-6.457,-6.457,-6.4492,-6.4004,-6.3282,-6.3184,-6.2637,-6.1837,-6.174,-6.1701,-6.1696,-6.1705,-6.1654,-6.1615,-1.3311,-1.3588,-1.3974,-1.4847,-1.4998,-1.5006,-1.5003,-1.6429,-1.8099,-1.9792,-2.1483,-2.3251,-2.5139,-2.592,-2.6123,-2.5634,-2.6829,-2.7847,0.0,0.0,-3.2707,-3.4866,0.0,0.0,-4.0024,-4.0215,-4.0616,-4.1266,-4.1266,-4.1705,-4.2565,-4.3214,-4.3615,-4.3806,-4.4494,-4.4819,-4.4819,-4.4819,-4.4418,-4.3768,-4.3768,-4.2852,-4.137,-3.9969,-3.9177,-3.8549,-3.6563,-3.6303,-3.6779,-3.5919,-3.4632,-3.3384,-3.3452,0.0,0.0,0.0,0.0,0.0,0.0,0.0,0.0,0.0,0.0,0.0,0.0,0.0,0.0,0.0,0.0,0.0,0.0,0.0,0.0,-4.9976,-5.277,-5.5194,-5.7264,-5.8604,-5.9463,-5.9622,-5.9943,-6.0483,-6.1364,-6.1447,-6.1525,-6.1701,-6.1701,-6.1701,-6.1701,-6.2364,-6.3067,-6.377,-6.4472,-6.5234,-6.6053,-6.6073,-6.6151,-6.6327,0.0,0.0,-6.6327,-6.6327,-6.6327,-6.6288,-6.5624,-6.5253,-6.5038,-6.4336,-6.3535,-6.2676,-6.1974,-6.1701,-6.1701,-6.1696,-6.1685,-6.1673,-1.4175,-1.4354,-1.4486,-1.4923,-1.4998,-1.5006,-1.5003,-1.642,-1.8108,-1.9791,-2.146,-2.3139,-2.4867,-2.5051,-2.5063,-2.5107,-2.6263,0.0,0.0,-3.1756,-3.3834,-3.6337,0.0,0.0,-4.0291,-4.0692,-4.1094,-4.1495,-4.1934,-4.2584,-4.3424,-4.3825,-4.4246,-4.4666,-4.5105,-4.5297,-4.5297,-4.5297,-4.5048,-4.4647,-4.4647,-4.4192,-4.3369,-4.2104,-4.1102,-4.0242,-3.9032,-3.8632,-3.8529,-3.7725,-3.6598,-3.5566,-3.5581,-3.3539,-3.1002,0.0,0.0,0.0,0.0,0.0,0.0,0.0,0.0,0.0,0.0,0.0,0.0,0.0,0.0,-4.2377,0.0,0.0,-5.0392,-5.3401,-5.535,-5.7112,-5.885,-5.9825,-6.0366,-6.0402,-6.0782,-6.1231,-6.1657,-6.1696,-6.1691,-6.1701,-6.1701,-6.2071,-6.295,-6.3418,-6.4043,-6.4921,-6.537,-6.58,-6.619,-6.619,-6.6405,-6.6795,-6.6795,-6.6795,-6.6815,-6.7244,-6.7459,-6.7459,-6.7498,-6.7244,-6.6756,-6.5487,-6.4433,-6.3555,-6.2696,-6.2061,-6.166,-6.1648,-6.1654,-6.1658,-1.4812,-1.4998,-1.4998,-1.4998,-1.4998,-1.5044,-1.5204,-1.6515,-1.8098,-1.9779,-2.1313,-2.2829,-2.4353,-2.3942,-2.3966,-2.5006,0.0,0.0,0.0,0.0,0.0,0.0,0.0,0.0,-4.0291,-4.1094,-4.1571,-4.1743,-4.2603,-4.3463,-4.4265,-4.4265,-4.4628,-4.5297,-4.5297,-4.5297,-4.5297,-4.5297,-4.5297,-4.5297,-4.5297,-4.5297,-4.5144,-4.3806,-4.2641,-4.1648,-4.0893,-4.0002,-3.9096,-3.8676,-3.7848,-3.7019,-3.7199,-3.5623,-3.3489,-3.2469,-3.1551,0.0,0.0,0.0,0.0,0.0,0.0,0.0,0.0,0.0,-4.0237,-4.1443,-4.4148,-4.6997,-4.9255,-5.1629,-5.3974,-5.6252,-5.7526,-5.8713,-6.0122,-6.0461,-6.0574,-6.0645,-6.1406,-6.1875,-6.1715,-6.1847,-6.1886,-6.172,-6.1857,-6.2579,-6.3965,-6.4375,-6.4941,-6.5819,-6.5995,-6.617,-6.6346,-6.6346,-6.6658,-6.7303,-6.7303,-6.7303,-6.7322,-6.8025,-6.8357,-6.8376,-6.8923,-6.8747,-6.7966,-6.6288,-6.5273,-6.4682,-6.3647,-6.2772,-6.2075,-6.1736,-6.1603,-6.1606,-1.4812,-1.4998,-1.4998,-1.4998,-1.4998,-1.5245,-1.5965,-1.6885,-1.8088,-1.9785,-2.0789,-2.1718,-2.2678,-2.2697,-2.3322,-2.4962,-2.6549,0.0,0.0,0.0,0.0,0.0,0.0,0.0,-4.031,-4.1094,-4.1877,-4.2641,-4.3482,-4.4322,-4.5144,-4.5144,-4.5201,-4.5297,-4.5297,-4.5297,-4.5297,-4.5297,-4.5297,-4.5297,-4.5297,-4.5297,-4.5277,-4.5086,-4.4036,-4.2545,-4.1667,-4.0366,-3.9143,-3.983,-3.895,-3.7759,-3.865,-3.768,-3.5897,-3.4308,0.0,-3.2577,-3.2379,-3.3597,0.0,-3.6922,-3.7479,-3.9027,0.0,0.0,-4.5573,-4.7942,-4.9954,-5.1598,-5.2608,-5.4288,-5.5852,-5.6859,-5.8552,-5.9828,-6.002,-6.0847,-6.1485,-6.1543,-6.2272,-6.2486,-6.1774,-6.2403,-6.254,-6.1759,-6.2423,-6.293,-6.3145,-6.4609,-6.5839,-6.6639,-6.742,-6.8181,-6.8962,-6.8962,-6.902,-6.9118,-6.9118,-6.9118,-6.9118,-6.9215,-6.9255,-6.9215,-6.8532,-6.8181,-6.7966,-6.6288,-6.597,-6.6369,-6.4704,-6.4001,-6.3717,-6.2245,-6.1654,-6.1607,-1.4898,-1.4998,-1.4998,-1.4998,-1.4998,-1.5264,-1.6079,-1.6942,-1.8088,-1.9785,-2.0695,-2.1528,-2.24,-2.2912,-2.3328,-2.3617,-2.6034,-2.8427,-3.0509,-3.3435,0.0,0.0,0.0,-4.0215,-4.0253,-4.1571,-4.2431,-4.2794,-4.4112,-4.4934,-4.5297,-4.5297,-4.5297,-4.5297,-4.5297,-4.5297,-4.5297,-4.5297,-4.5297,-4.5297,-4.5297,-4.5297,-4.5239,-4.4743,-4.3501,-4.1991,-4.1628,-4.0425,0.0,0.0,-3.8304,-3.7768,-3.818,-3.7162,-3.5649,-3.494,-3.4864,0.0,-3.794,0.0,0.0,0.0,-4.333,-4.5051,-4.7049,-4.8502,-4.9737,-5.0781,-5.2362,-5.3812,-5.4663,-5.6207,-5.7637,0.0,-5.9817,-6.0767,-6.076,-6.1237,-6.1436,-6.0997,-6.2102,-6.257,-6.1774,-6.2022,-6.2296,-6.2442,-6.2794,-6.3652,-6.5136,-6.5897,-6.6678,-6.7537,-6.7908,-6.8025,-6.7888,-6.7888,-6.7888,-6.7888,-6.7888,-6.7883,-6.7897,-6.841,-6.8923,-6.9372,-6.9001,-6.8571,-6.8044,-6.7331,-6.6954,-6.6675,-6.5432,-6.495,-6.4739,-6.3019,-6.2387,-6.2277,-1.4894,-1.4963,-1.4998,-1.4998,-1.4998,-1.5264,-1.6079,-1.6942,-1.8013,-1.9452,-2.0372,-2.1111,-2.1737,-2.2735,-2.3158,-2.2616,-2.5386,-2.7894,0.0,-3.264,0.0,0.0,0.0,0.0,-4.0176,-4.1895,-4.2774,-4.2735,-4.4475,-4.5297,-4.5275,-4.5297,-4.5297,-4.5297,-4.5297,-4.5297,-4.5297,-4.5297,-4.5297,-4.5297,-4.5297,-4.5163,-4.4857,-4.3997,-4.2488,-4.0807,-4.0807,-3.9584,0.0,0.0,-3.6833,-3.6967,-3.6738,-3.6165,-3.5611,-3.5821,-3.6833,-3.8495,-4.1342,0.0,0.0,-4.5258,-4.7622,-4.9469,-4.9065,-5.0894,-5.2724,-5.2955,-5.3996,-5.5152,-5.6251,-5.7447,0.0,-5.9397,-6.0439,-6.1158,-6.1128,-6.1123,-6.0992,-6.0614,-6.1452,-6.1938,-6.1573,-6.1862,-6.231,-6.295,-6.3199,-6.4233,-6.6321,-6.6673,-6.7083,-6.7727,-6.7752,-6.7439,-6.6815,-6.6795,-6.6795,-6.679,-6.679,-6.6804,-6.6811,-6.7453,-6.8083,-6.8683,-6.8683,-6.8468,-6.8072,-6.7845,-6.75,-6.7051,-6.6179,-6.5859,-6.5648,-6.4166,-6.331,-6.2805,-1.4785,-1.4902,-1.4998,-1.4998,-1.4998,-1.5264,-1.6079,-1.6942,-1.7804,-1.8638,-1.9501,-2.005,-2.0069,-2.1552,-2.2524,-2.2505,-2.4841,-2.7053,-2.8732,-3.113,-3.3654,-3.6234,-3.7966,-3.9238,-4.0078,-4.1815,-4.2654,-4.2612,-4.4414,-4.5275,-4.5192,-4.5275,-4.5297,-4.5297,-4.5297,-4.5297,-4.5297,-4.5297,-4.5297,-4.5297,-4.5297,-4.4781,-4.3959,-4.3138,-4.1266,-3.9088,-3.9088,0.0,0.0,0.0,-3.4636,-3.5133,-3.435,-3.519,0.0,-3.7406,-3.9393,0.0,0.0,0.0,-4.5411,-4.6271,-4.8372,-5.0474,-5.1295,-5.2829,-5.4282,-5.5142,-5.5352,-5.5887,-5.7531,-5.7875,-5.8181,-5.9002,-6.0071,-6.0795,-6.075,-6.0268,-6.0208,-6.0896,-6.0399,-6.0289,0.0,-6.2231,-6.2973,-6.3008,-6.372,-6.4567,-6.5484,-6.6343,-6.6811,-6.6831,-6.6848,-6.6834,-6.6795,-6.6795,-6.6809,-6.6792,-6.6792,-6.6792,-6.6792,-6.6829,-6.6848,-6.687,-6.687,-6.7331,-6.8039,-6.7193,-6.7282,-6.789,-6.7087,-6.672,-6.6556,-6.5727,-6.4352,-6.291,-1.4766,-1.4902,-1.4998,-1.4998,-1.4998,-1.5264,-1.6079,-1.6942,-1.7785,-1.8581,-1.9907,0.0,0.0,0.0,0.0,0.0,-2.5099,-2.6712,-2.7861,-3.0736,-3.305,-3.4508,-3.7299,-3.8953,-3.9219,-4.0935,-4.1833,-4.1815,-4.3,-4.3861,-4.4395,-4.4416,-4.4743,-4.5297,-4.5297,-4.5297,-4.5297,-4.5297,-4.5297,-4.5239,-4.4666,-4.4265,-4.3864,-4.2469,-4.0348,-3.7922,0.0,0.0,0.0,0.0,-3.2477,-3.2783,-3.3051,0.0,0.0,-3.7655,0.0,-4.2049,0.0,0.0,-4.8143,-4.9538,-5.1372,-5.29,-5.3187,-5.4142,-5.4887,-5.46,-5.4085,-5.4027,-5.5174,-5.5384,-5.6014,-5.7982,-5.9196,-6.0076,-6.0615,-6.0654,-6.0515,-6.0184,-6.0435,0.0,0.0,0.0,0.0,-6.2566,-6.3378,-6.4221,-6.5051,-6.5933,-6.6394,-6.6394,-6.6565,-6.6663,-6.6663,-6.6764,-6.6798,-6.6791,-6.6744,-6.6771,-6.6792,-6.6752,-6.6771,-6.6791,-6.6791,-6.6966,-6.7212,-6.6865,-6.6895,-6.7101,-6.6839,-6.6722,-6.6673,-6.641,-6.5553,-6.4403,-1.4709,-1.5103,-1.534,-1.5055,-1.551,0.0,0.0,0.0,0.0,0.0,0.0,0.0,0.0,0.0,0.0,0.0,0.0,-2.6129,-2.6982,-2.9298,-3.1288,-3.2747,-3.4908,-3.6369,-3.6957,-3.8099,-3.8975,-3.9546,-4.0443,-4.1473,-4.2579,-4.2926,-4.3366,-4.392,-4.4265,-4.4399,-4.4399,-4.4399,-4.4399,-4.4303,-4.3138,-4.2507,-4.2011,-4.0005,-3.7865,0.0,0.0,0.0,0.0,0.0,0.0,0.0,0.0,0.0,0.0,-3.8667,-4.1285,-4.4017,0.0,-4.8888,-5.0015,-5.2002,-5.3301,-5.418,-5.4486,-5.4753,-5.4791,-5.4218,-5.3187,-5.2537,-5.311,-5.3206,-5.4046,-5.6587,-5.7818,-5.8938,-6.0402,-6.0461,-6.0261,-5.9993,-6.0184,-6.0263,0.0,0.0,0.0,-6.2296,-6.3172,-6.4011,-6.4808,-6.5696,-6.6161,-6.6161,-6.6329,-6.6471,-6.656,-6.6552,-6.6552,-6.654,-6.6497,-6.6509,-6.6555,-6.6501,-6.6509,-6.654,-6.654,-6.656,-6.6548,-6.6504,-6.6536,-6.6602,-6.6599,-6.663,-6.6712,-6.6712,-6.6147,-6.5192,-1.4598,-1.5461,-1.5938,0.0,0.0,0.0,0.0,0.0,0.0,0.0,0.0,0.0,0.0,0.0,0.0,0.0,0.0,0.0,-2.6091,0.0,0.0,-3.0909,-3.1137,-3.1951,-3.3543,-3.3654,-3.4508,-3.6064,-3.6977,-3.8233,-3.9846,-4.0728,-4.1169,-4.1245,-4.2144,-4.2545,-4.2545,-4.2545,-4.2545,-4.2393,-4.0769,-3.9623,-3.861,-3.6146,0.0,0.0,0.0,0.0,0.0,0.0,0.0,0.0,0.0,0.0,0.0,0.0,0.0,-4.6959,-4.8735,-4.9843,-5.1085,-5.355,-5.4123,-5.4314,-5.5135,-5.4639,-5.3951,-5.3855,-5.2518,-5.1334,0.0,0.0,-5.2308,-5.4849,-5.6104,-5.7602,-6.0073,-5.9718,-5.9534,0.0,0.0,0.0,0.0,0.0,0.0,-6.2235,0.0,-6.3903,-6.4735,-6.5606,-6.607,-6.607,-6.607,-6.6212,-6.6458,-6.6228,-6.6088,-6.6109,-6.6109,-6.6109,-6.609,-6.6106,-6.6088,-6.6109,-6.6109,-6.609,-6.6108,-6.6108,-6.6205,-6.6377,-6.6377,-6.6503,-6.6671,-6.6671,-6.6146,-6.5289,0.0,0.0,0.0,0.0,0.0,0.0,0.0,0.0,0.0,0.0,0.0,0.0,0.0,0.0,0.0,0.0,0.0,0.0,0.0,0.0,0.0,0.0,0.0,0.0,-3.1838,-3.2443,0.0,0.0,0.0,-3.5626,-3.7318,-3.7564,-3.802,-3.8649,-3.8897,-3.8992,-3.8992,-3.8992,-3.8992,-3.8916,0.0,-3.7349,-3.7005,0.0,0.0,0.0,0.0,0.0,0.0,0.0,0.0,0.0,0.0,0.0,-4.0673,0.0,0.0,-4.799,-5.034,-5.2021,-5.3435,-5.4734,-5.4581,-5.4161,-5.4371,-5.3301,-5.1888,-5.0627,-4.9003,-4.7627,-4.7016,0.0,0.0,-5.3053,-5.5791,0.0,-6.0122,-6.0226,0.0,0.0,0.0,-6.1086,-6.1296,-6.1908,0.0,0.0,-6.2983,-6.3482,-6.432,-6.5172,-6.564,-6.564,-6.5847,-6.5983,-6.6046,-6.6069,-6.6109,-6.6109,-6.6109,-6.609,-6.6109,-6.6109,-6.6109,-6.6109,-6.6109,-6.6109,-6.6108,-6.6108,-6.6148,-6.6187,-6.6187,-6.6224,-6.6241,-6.6241,-6.6105,-6.5698,0.0,0.0,0.0,0.0,0.0,0.0,0.0,0.0,0.0,0.0,0.0,0.0,0.0,0.0,0.0,0.0,0.0,0.0,0.0,0.0,0.0,0.0,0.0,0.0,0.0,0.0,0.0,0.0,0.0,0.0,0.0,-3.3968,-3.442,-3.4912,-3.531,-3.5499,-3.5515,0.0,0.0,0.0,0.0,0.0,0.0,0.0,0.0,0.0,0.0,0.0,0.0,0.0,0.0,-3.8476,-4.0138,-4.1762,-4.3443,-4.5621,0.0,-4.9939,-5.2117,-5.3664,-5.4791,-5.5288,-5.4734,-5.3817,-5.269,-5.1429,-4.971,-4.6901,-4.5851,0.0,0.0,0.0,0.0,0.0,0.0,0.0,-5.9491,-6.016,-6.0389,0.0,-6.1115,0.0,-6.1593,-6.2395,-6.3064,0.0,-6.3523,-6.3733,-6.4172,-6.5015,-6.5454,-6.5454,-6.5589,-6.5671,-6.5671,-6.5823,-6.5874,-6.5784,-6.5799,-6.5799,-6.5784,-6.5799,-6.5793,-6.5793,0.0,-6.5793,-6.5793,-6.5793,-6.5847,-6.592,-6.592,-6.6005,-6.6108,-6.6108,-6.6108,-6.5915,0.0,0.0,0.0,0.0,0.0,0.0,0.0,0.0,0.0,0.0,0.0,0.0,0.0,0.0,0.0,0.0,0.0,0.0,0.0,0.0,0.0,0.0,0.0,0.0,0.0,0.0,0.0,0.0,0.0,0.0,0.0,0.0,0.0,0.0,0.0,0.0,0.0,0.0,0.0,0.0,0.0,0.0,0.0,0.0,0.0,0.0,0.0,0.0,0.0,0.0,-3.9775,-4.1246,-4.2794,-4.4857,-4.7016,-4.8754,-5.0378,-5.1983,-5.3645,-5.4734,-5.5365,-5.5269,-5.4486,-5.3129,-5.0703,-4.9175,-4.7188,-4.3405,0.0,0.0,-4.0501,0.0,-4.6003,-4.8659,0.0,-5.5269,-5.8631,-5.9759,-6.0313,-6.0523,-6.1287,-6.1822,-6.1936,-6.2739,-6.3541,-6.4286,-6.4344,-6.4344,-6.4344,-6.5012,-6.5394,-6.5394,-6.5394,-6.5394,-6.5394,-6.5559,-6.5559,-6.5394,-6.5394,-6.5394,-6.5394,-6.5394,-6.5394,-6.5394,-6.5394,0.0,-6.5394,-6.5394,-6.5485,-6.5673,-6.5673,-6.5779,-6.6024,-6.6024,-6.6024,-6.587,0.0,0.0,0.0,0.0,0.0,0.0,0.0,0.0,-2.0998,0.0,0.0,0.0,0.0,0.0,0.0,0.0,0.0,0.0,0.0,0.0,0.0,0.0,0.0,0.0,0.0,0.0,0.0,0.0,0.0,0.0,0.0,0.0,0.0,0.0,0.0,0.0,0.0,0.0,0.0,0.0,0.0,0.0,0.0,0.0,0.0,0.0,0.0,0.0,0.0,0.0,-4.0826,-4.459,-4.5564,-4.6653,-4.7914,-4.9595,-5.0818,-5.1983,-5.3645,-5.4734,-5.5231,-5.4505,-5.3168,-5.1563,-4.971,-4.65,0.0,0.0,0.0,-3.8877,-3.9164,-4.1972,0.0,-4.8563,0.0,0.0,0.0,0.0,-5.9835,0.0,0.0,0.0,0.0,0.0,0.0,0.0,0.0,-6.5184,-6.5184,-6.5318,-6.5394,-6.5394,-6.5394,-6.5394,-6.5394,-6.5435,-6.5435,-6.5394,-6.5394,-6.5394,-6.5394,-6.5394,-6.5394,-6.5394,-6.5394,0.0,-6.5394,-6.5394,-6.5425,-6.5465,-6.5465,-6.5475,-6.5532,-6.5532,-6.5532,-6.5322,0.0,0.0,0.0,0.0,0.0,0.0,0.0,-2.0093,-2.1358,-2.1813,-2.2249,-2.2584,-2.2797,-2.3116,-2.3566,0.0,0.0,0.0,0.0,0.0,0.0,0.0,0.0,0.0,0.0,0.0,0.0,0.0,0.0,0.0,0.0,0.0,0.0,0.0,0.0,0.0,0.0,0.0,0.0,0.0,0.0,0.0,0.0,0.0,0.0,0.0,0.0,0.0,0.0,0.0,-3.9794,-4.4284,-4.5965,-4.7111,-4.8143,-4.9805,-5.0932,-5.1983,-5.3645,-5.4734,-5.5193,-5.4314,-5.2843,-5.0703,-4.7226,0.0,0.0,0.0,0.0,-3.6948,-3.647,0.0,0.0,0.0,0.0,0.0,0.0,0.0,0.0,0.0,0.0,0.0,0.0,0.0,0.0,0.0,0.0,-6.5394,-6.5394,-6.5394,-6.5394,-6.5394,-6.5394,-6.5394,-6.5394,-6.5394,-6.5394,-6.5394,-6.5394,-6.5394,-6.5394,-6.5394,-6.5394,-6.5394,-6.5394,0.0,-6.5394,-6.5394,-6.5394,-6.5394,-6.5394,-6.5394,-6.5394,-6.5394,-6.5394,-6.5222,0.0,0.0,0.0,0.0,0.0,0.0,0.0,-2.0174,-2.1708,-2.2577,-2.3449,-2.3915,-2.3756,-2.3694,-2.3833,0.0,0.0,0.0,0.0,0.0,0.0,0.0,0.0,0.0,0.0,0.0,0.0,0.0,0.0,0.0,0.0,0.0,0.0,0.0,0.0,0.0,0.0,0.0,0.0,0.0,0.0,0.0,0.0,0.0,0.0,0.0,0.0,0.0,0.0,0.0,-3.7712,-4.1609,-4.4112,-4.6099,-4.7857,-4.9557,-5.0646,-5.1735,-5.3588,-5.4467,-5.4677,-5.3989,-5.2422,-4.9824,-4.5086,-4.2278,0.0,0.0,0.0,-3.519,-3.4407,0.0,0.0,0.0,0.0,0.0,0.0,0.0,0.0,0.0,0.0,0.0,0.0,0.0,0.0,0.0,0.0,0.0,-6.5394,-6.5394,-6.5394,-6.5394,-6.5394,-6.5394,-6.5394,-6.5394,-6.5394,-6.5394,-6.5394,-6.5394,-6.5394,-6.5394,-6.5394,-6.5394,-6.5394,0.0,0.0,-6.5394,-6.5394,-6.5394,-6.5394,-6.5394,-6.5394,-6.5394,-6.528,-6.5031,0.0,0.0,0.0,0.0,0.0,0.0,0.0,-2.0487,-2.2407,-2.3205,-2.4233,-2.4864,-2.485,-2.4685,-2.4598,0.0,0.0,0.0,0.0,0.0,0.0,0.0,0.0,0.0,0.0,0.0,0.0,0.0,0.0,0.0,0.0,0.0,0.0,0.0,0.0,0.0,0.0,0.0,0.0,0.0,0.0,0.0,0.0,0.0,0.0,0.0,0.0,0.0,0.0,0.0,0.0,-3.6337,-3.8897,-4.2889,-4.6959,-4.8697,0.0,0.0,-5.3435,-5.3569,-5.3015,-5.2938,-5.1104,-4.8391,-4.4819,0.0,0.0,0.0,-3.3414,-3.2611,-3.4694,-3.6107,0.0,0.0,0.0,0.0,0.0,0.0,0.0,0.0,0.0,0.0,0.0,0.0,0.0,0.0,0.0,0.0,-6.5394,-6.5394,-6.5394,-6.5394,-6.5394,-6.5394,-6.5394,-6.5394,-6.5394,-6.5394,-6.5394,-6.5394,-6.5394,-6.5394,-6.5394,-6.5394,-6.5394,0.0,0.0,-6.5394,-6.5394,-6.5394,-6.5394,-6.5394,-6.5394,-6.5394,-6.4936,-6.4191,0.0,0.0,0.0,0.0,0.0,0.0,-1.8098,-2.0015,-2.1863,-2.3281,-2.3823,-2.4327,-2.494,-2.4936,-2.4783,-2.4543,0.0,0.0,0.0,0.0,0.0,0.0,0.0,0.0,0.0,0.0,0.0,0.0,0.0,0.0,0.0,0.0,0.0,0.0,0.0,0.0,0.0,0.0,0.0,0.0,0.0,0.0,0.0,0.0,0.0,0.0,0.0,0.0,0.0,0.0,0.0,0.0,-3.5057,-3.798,0.0,0.0,-4.7341,-4.9251,-5.1257,-5.2308,-5.2556,-5.1544,-4.9786,-4.7302,-4.3386,0.0,0.0,-3.4159,-3.2516,-3.1962,-3.3433,-3.4808,-3.6871,0.0,0.0,0.0,0.0,0.0,0.0,0.0,0.0,0.0,0.0,0.0,0.0,0.0,0.0,0.0,-6.5394,-6.5394,-6.5394,-6.5394,-6.5394,-6.5394,-6.5394,-6.5394,-6.5394,-6.5394,-6.5394,-6.5394,-6.5394,-6.5394,-6.5394,-6.5394,-6.5394,0.0,0.0,-6.5394,-6.5394,-6.5394,-6.5394,-6.5394,-6.5337,-6.4859,-6.4458,-6.4,0.0,0.0,0.0,0.0,0.0,-1.6844,-1.7954,-1.9438,-2.1049,-2.2746,-2.3045,-2.347,-2.4374,-2.4261,-2.4163,-2.43,-2.4407,0.0,0.0,0.0,0.0,0.0,0.0,0.0,0.0,0.0,0.0,0.0,0.0,0.0,0.0,0.0,0.0,0.0,0.0,0.0,0.0,0.0,0.0,0.0,0.0,0.0,0.0,0.0,0.0,0.0,0.0,0.0,0.0,0.0,0.0,0.0,0.0,0.0,0.0,0.0,-4.4704,-4.7111,-4.9041,-5.0417,-5.1104,-5.0187,-4.8487,-4.608,0.0,0.0,-3.5766,-3.3226,-3.2057,-3.1752,-3.2539,-3.3891,-3.5763,0.0,0.0,0.0,0.0,0.0,0.0,0.0,0.0,0.0,0.0,0.0,0.0,0.0,0.0,0.0,0.0,-6.5394,-6.5394,-6.5394,-6.5394,-6.5394,-6.5394,-6.5394,-6.5394,-6.5394,-6.5394,-6.5394,-6.5394,-6.5394,-6.5394,-6.5394,-6.5394,0.0,0.0,-6.5394,-6.5394,-6.5394,-6.5394,-6.5242,-6.4974,-6.4401,-6.3866,-6.3255,0.0,0.0,0.0,0.0,0.0,0.0,-1.7672,-1.8886,-2.0121,-2.1541,-2.1999,-2.2468,-2.3154,-2.2505,-2.2576,-2.3988,-2.4459,0.0,0.0,0.0,0.0,0.0,0.0,0.0,0.0,0.0,0.0,0.0,0.0,0.0,0.0,0.0,0.0,0.0,0.0,0.0,0.0,0.0,0.0,0.0,0.0,0.0,-2.774,0.0,0.0,0.0,0.0,0.0,0.0,0.0,0.0,0.0,0.0,0.0,0.0,0.0,-4.2106,-4.4609,-4.715,-4.7857,-4.8048,-4.8888,-4.7188,-4.4647,0.0,-3.8916,-3.5766,-3.3226,-3.2057,-3.1752,-3.2539,-3.3414,-3.5114,-3.8457,0.0,0.0,0.0,0.0,0.0,0.0,0.0,0.0,0.0,0.0,0.0,0.0,0.0,0.0,0.0,-6.5394,-6.5394,-6.5394,-6.5394,-6.5394,-6.5394,-6.5394,-6.5394,-6.5394,-6.5394,-6.5394,-6.5394,-6.5394,-6.5394,0.0,0.0,0.0,0.0,-6.5394,-6.5394,-6.5394,-6.5394,-6.4898,-6.4191,-6.4191,-6.3102,-6.1612,0.0,0.0,0.0,0.0,0.0,0.0,0.0,-1.749,-1.8837,-1.9982,-2.0662,-2.1414,-2.2402,-2.2212,-2.243,-2.3526,-2.352,0.0,0.0,0.0,0.0,0.0,0.0,0.0,0.0,0.0,-2.5013,-2.5596,-2.5676,0.0,0.0,0.0,0.0,0.0,0.0,0.0,0.0,0.0,0.0,0.0,0.0,-2.6918,-2.7701,0.0,0.0,0.0,0.0,0.0,0.0,0.0,0.0,0.0,0.0,0.0,0.0,-3.3414,-3.7674,0.0,-4.2469,-4.3921,-4.4876,-4.3443,-4.2488,-4.1227,-3.8667,-3.6375,-3.4235,-3.2286,-3.1675,-3.1752,-3.2539,-3.3414,-3.5286,-3.926,-4.0119,0.0,0.0,0.0,0.0,0.0,0.0,0.0,0.0,0.0,0.0,0.0,0.0,0.0,0.0,-6.5394,-6.5394,-6.5394,-6.5394,-6.5394,-6.5394,-6.5394,-6.5394,-6.5394,-6.5394,-6.5394,-6.5394,-6.5394,-6.5394,0.0,0.0,0.0,0.0,-6.5394,-6.507,-6.4573,-6.4573,-6.4057,-6.3236,-6.2643,-6.207,-6.1516,0.0,0.0,0.0,0.0,0.0,0.0,0.0,-1.6391,-1.7486,-1.8679,-1.9271,-2.008,-2.135,-2.1139,-2.1496,-2.3004,-2.2684,0.0,0.0,0.0,0.0,0.0,0.0,0.0,0.0,-2.4749,-2.5205,-2.6099,-2.6162,-2.6332,-2.6601,-2.6726,0.0,0.0,0.0,0.0,0.0,0.0,0.0,0.0,-2.5944,-2.6269,-2.6765,0.0,0.0,0.0,0.0,0.0,0.0,0.0,0.0,0.0,0.0,0.0,0.0,0.0,-3.3089,-3.6852,0.0,-4.0463,-4.1743,-4.0196,-3.9565,-3.882,-3.6929,-3.4961,-3.3127,-3.179,-3.1484,-3.1732,-3.2539,-3.3414,-3.5171,-3.8744,-3.9871,0.0,0.0,0.0,0.0,0.0,0.0,0.0,0.0,0.0,0.0,0.0,0.0,0.0,0.0,-6.4458,-6.4458,-6.4458,-6.507,-6.5394,-6.5394,-6.5394,-6.5394,-6.5394,-6.5394,-6.5394,-6.5394,-6.5394,-6.5394,0.0,0.0,0.0,0.0,-6.4592,-6.4153,-6.3713,-6.3713,-6.3178,-6.2338,-6.1803,-6.1402,-6.1077,0.0,0.0,0.0,0.0,0.0,0.0,0.0,-1.5579,-1.6204,-1.7633,-1.7972,-1.8624,-2.0064,-1.9557,-2.0029,-2.2328,-2.1894,0.0,0.0,0.0,0.0,0.0,0.0,0.0,0.0,-2.451,-2.5051,-2.6284,-2.6155,-2.6635,-2.7589,-2.7665,-2.7222,-2.639,0.0,0.0,0.0,0.0,0.0,0.0,-2.5191,-2.5191,0.0,0.0,0.0,0.0,0.0,0.0,0.0,0.0,0.0,0.0,0.0,0.0,0.0,0.0,0.0,0.0,0.0,-3.7177,-3.8534,-3.8476,-3.7903,-3.7139,-3.6337,-3.4296,0.0,-3.158,-3.1408,-3.1713,-3.2691,-3.3547,-3.498,-3.7712,0.0,0.0,0.0,0.0,0.0,0.0,0.0,0.0,0.0,0.0,0.0,0.0,0.0,0.0,0.0,-6.2911,-6.2911,-6.2911,-6.442,-6.5222,-6.5222,-6.5222,-6.5222,-6.5222,-6.5222,-6.5222,-6.5222,-6.5222,-6.5222,0.0,0.0,0.0,0.0,-6.3236,-6.2873,-6.2815,-6.2815,-6.228,-6.1516,-6.1516,-6.1039,-6.0389,0.0,0.0,0.0,0.0,0.0,0.0,0.0,0.0,0.0,0.0,-1.7539,-1.8346,-1.9429,-1.9261,-1.9609,0.0,0.0,0.0,0.0,0.0,0.0,0.0,0.0,0.0,0.0,-2.4572,-2.519,-2.6306,-2.6925,-2.7338,-2.7597,-2.8232,-2.7742,-2.6333,-2.639,-2.5939,0.0,0.0,0.0,0.0,-2.5191,-2.5191,0.0,0.0,0.0,0.0,-2.5478,-2.5612,0.0,0.0,0.0,0.0,0.0,0.0,0.0,0.0,-2.6975,-2.7663,-2.9325,0.0,-3.4025,-3.3356,-3.3528,-3.3662,0.0,-3.2172,-3.1484,0.0,0.0,-3.2057,-3.4216,-3.4789,-3.6585,0.0,0.0,0.0,0.0,0.0,0.0,0.0,0.0,0.0,0.0,0.0,0.0,0.0,0.0,0.0,0.0,-6.2911,-6.2911,-6.2911,-6.3293,-6.3503,-6.3503,-6.3503,-6.3503,-6.3503,-6.3503,-6.3503,-6.3503,-6.3503,-6.3503,0.0,0.0,0.0,-6.3197,-6.2987,-6.251,-6.1917,-6.1917,-6.1402,-6.0676,-6.0676,-6.0561,-6.0389,0.0,0.0,0.0,0.0,0.0,0.0,0.0,0.0,0.0,0.0,0.0,-1.7684,-1.8559,-1.8917,0.0,0.0,0.0,0.0,0.0,0.0,0.0,0.0,0.0,-2.4098,-2.4389,-2.4508,-2.5329,-2.689,-2.7366,-2.8003,-2.8802,-2.9246,-2.8545,-2.6924,-2.6187,-2.5619,0.0,0.0,0.0,0.0,-2.5191,0.0,0.0,0.0,0.0,0.0,-2.5191,-2.5191,0.0,-2.5191,-2.5191,-2.5191,0.0,0.0,0.0,0.0,-2.586,-2.602,-2.688,-2.9841,-3.2577,-3.21,-3.2649,-3.3184,-3.2745,0.0,0.0,0.0,0.0,0.0,-3.4254,0.0,0.0,0.0,0.0,0.0,0.0,0.0,0.0,0.0,0.0,0.0,0.0,0.0,0.0,0.0,0.0,0.0,0.0,-6.1745,-6.1745,-6.1745,-6.1745,-6.2128,-6.2892,-6.2911,-6.2911,-6.2911,-6.2911,-6.2911,-6.2911,-6.2911,-6.2911,0.0,0.0,0.0,-6.228,-6.1917,-6.1478,-6.1039,-6.1039,-6.0771,-6.0389,-6.0389,-6.0389,-6.0389,0.0,0.0,0.0,0.0,0.0,0.0,0.0,0.0,0.0,0.0,0.0,0.0,0.0,0.0,0.0,0.0,0.0,0.0,0.0,0.0,0.0,0.0,0.0,-2.3981,-2.4389,-2.4407,-2.5349,-2.7227,-2.7608,-2.8488,-2.9822,-3.0223,-2.9421,-2.7625,-2.609,-2.5306,0.0,0.0,0.0,-2.5191,-2.5191,0.0,0.0,0.0,0.0,0.0,0.0,0.0,0.0,-2.5191,-2.5191,-2.5191,-2.5191,0.0,0.0,0.0,0.0,0.0,-2.6479,-2.9784,-3.2821,-3.2405,-3.3165,-3.3968,-3.3834,0.0,0.0,0.0,0.0,0.0,0.0,0.0,0.0,0.0,0.0,0.0,0.0,0.0,0.0,0.0,0.0,0.0,0.0,0.0,0.0,0.0,0.0,0.0,0.0,-6.0389,-6.0389,-6.0389,-6.0389,-6.1077,-6.251,-6.2529,-6.2529,-6.2529,-6.2529,-6.2529,-6.2529,-6.2529,-6.2529,-6.249,0.0,0.0,-6.1363,-6.0676,-6.0389,-6.0389,-6.0389,-6.0389,-6.0389,-6.0389,-6.0389,-6.0389,0.0,0.0,0.0,0.0,0.0,0.0,0.0,0.0,0.0,0.0,0.0,0.0,0.0,0.0,0.0,0.0,0.0,0.0,0.0,0.0,0.0,0.0,-2.3795,-2.3981,-2.4389,-2.4459,-2.482,-2.5482,-2.7655,-2.8483,-2.8141,-3.03,-3.0013,-2.7663,-2.6651,-2.5841,-2.5191,-2.5191,-2.5191,-2.5191,0.0,0.0,0.0,0.0,0.0,0.0,0.0,0.0,0.0,-2.5191,-2.5191,-2.5191,-2.5191,0.0,0.0,0.0,0.0,0.0,-2.7912,-3.1102,-3.328,-3.1121,-3.2306,-3.3815,0.0,0.0,0.0,0.0,0.0,0.0,0.0,0.0,0.0,0.0,0.0,0.0,0.0,0.0,0.0,0.0,0.0,0.0,0.0,0.0,0.0,0.0,0.0,0.0,0.0,-6.0389,-6.0389,-6.0389,-6.0389,-6.0504,-6.0771,-6.0771,-6.0771,-6.0771,-6.0771,-6.0771,-6.0771,-6.0771,-6.0771,-6.0771,0.0,-6.058,-6.0561,-6.0446,-6.0389,-6.0389,-6.0389,-6.0389,-6.0389,-6.0389,-6.0389,-6.0389,0.0,0.0,0.0,0.0,0.0,0.0,0.0,0.0,0.0,0.0,0.0,0.0,0.0,0.0,0.0,0.0,0.0,0.0,0.0,0.0,0.0,-2.3198,-2.368,-2.4117,-2.4442,-2.5024,-2.5695,-2.6441,-2.8107,-2.894,-2.9058,-2.9325,-2.858,-2.6956,-2.6116,-2.5554,-2.5191,-2.5191,-2.5191,-2.5191,0.0,0.0,0.0,0.0,0.0,0.0,0.0,0.0,0.0,0.0,-2.5191,-2.5191,-2.5191,0.0,0.0,0.0,0.0,0.0,-2.6593,-2.9707,-3.2477,-3.1732,-3.4503,-3.7177,0.0,0.0,0.0,0.0,0.0,0.0,0.0,0.0,0.0,0.0,0.0,0.0,0.0,0.0,0.0,0.0,0.0,0.0,0.0,0.0,0.0,0.0,0.0,0.0,0.0,0.0,-6.0389,-6.0389,-6.0389,-6.0389,-6.0389,-6.0389,-6.0389,-6.0389,-6.0389,-6.0389,-6.0389,-6.0389,-6.0389,-6.0389,0.0,-6.0389,-6.0389,-6.0389,-6.0389,-6.0389,-6.0389,-6.0389,-6.0389,-6.0389,-6.0389,-6.0389,0.0,0.0,0.0,0.0,0.0,0.0,0.0,0.0,0.0,0.0,0.0,0.0,0.0,0.0,0.0,0.0,0.0,0.0,0.0,0.0,-2.251,-2.2711,-2.3675,-2.4394,-2.4756,-2.5587,-2.6521,-2.7592,-2.8673,-2.9546,-3.0166,-2.8485,-2.7224,-2.6364,-2.5765,-2.5382,-2.5191,-2.5191,-2.5191,-2.5191,0.0,0.0,0.0,0.0,0.0,0.0,0.0,0.0,0.0,0.0,0.0,0.0,0.0,0.0,0.0,-2.5191,-2.5191,-2.5325,-2.5918,-2.8733,-3.179,-3.2993,0.0,-3.9393,-3.9317,0.0,0.0,0.0,0.0,0.0,0.0,0.0,0.0,0.0,0.0,0.0,0.0,0.0,0.0,0.0,0.0,0.0,0.0,0.0,0.0,0.0,0.0,0.0,0.0,0.0,-6.0389,-6.0389,-6.0389,-6.0389,-6.0389,-6.0389,-6.0389,-6.0389,-6.0389,-6.0389,-6.0389,-6.0389,-6.0389,-6.0389,-6.0389,-6.0389,-6.0389,-6.0389,-6.0389,-6.0389,-6.0389,-6.0389,-6.0389,-6.0389,-6.0389,-6.0389,0.0,0.0,0.0,0.0,0.0,0.0,0.0,0.0,0.0,0.0,0.0,0.0,0.0,0.0,0.0,0.0,0.0,0.0,0.0,0.0,-2.195,-2.2754,-2.3877,-2.483,-2.561,-2.5866,-2.6517,-2.7592,-2.9273,-3.0147,-3.0166,-2.8485,-2.7224,-2.6402,-2.6345,-2.5898,-2.5191,-2.5191,-2.5191,-2.5191,-2.5191,0.0,0.0,0.0,0.0,0.0,0.0,0.0,0.0,0.0,0.0,0.0,0.0,0.0,-2.5191,-2.5191,-2.5191,-2.5707,-2.8007,-3.0051,-3.2076,-3.4426,0.0,0.0,-3.968,0.0,0.0,0.0,0.0,0.0,0.0,0.0,0.0,0.0,0.0,0.0,0.0,0.0,0.0,0.0,0.0,0.0,0.0,0.0,0.0,0.0,0.0,0.0,0.0,0.0,0.0,-6.0389,-6.0389,-6.0389,-6.0389,-6.0389,-6.0389,-6.0389,-6.0389,-6.0389,-6.0389,-6.0389,-6.0389,-6.0389,-6.0389,-6.0389,-6.0389,-6.0389,-6.0389,-6.0389,-6.0389,-6.0389,-6.0389,-6.0389,-6.0389,-6.0389,0.0,0.0,0.0,0.0,0.0,0.0,0.0,0.0,0.0,0.0,0.0,0.0,0.0,0.0,0.0,0.0,0.0,0.0,0.0,0.0,-2.1206,-2.2205,-2.3219,-2.4441,-2.5916,-2.6631,-2.7461,-2.8401,-2.9063,-2.8867,-2.7816,-2.7186,-2.644,-2.565,-2.565,-2.5478,-2.5191,-2.5191,-2.5191,-2.5191,-2.5191,-2.5191,0.0,0.0,0.0,0.0,0.0,0.0,0.0,0.0,-2.5191,-2.5191,-2.5191,-2.5191,-2.5191,-2.5191,-2.5191,-2.5401,-2.6345,-2.9363,0.0,0.0,0.0,0.0,0.0,0.0,0.0,0.0,0.0,0.0,0.0,0.0,0.0,0.0,0.0,0.0,0.0,0.0,0.0,0.0,0.0,0.0,0.0,0.0,0.0,0.0,0.0,0.0,0.0,0.0,0.0,-6.0389,-6.0389,-6.0389,-6.0389,-6.0389,-6.0389,-6.0389,-6.0389,-6.0389,-6.0389,-6.0389,-6.0389,-6.0389,-6.0389,-6.0389,-6.0389,-6.0389,-6.0389,-6.0389,-6.0389,-6.0389,-6.0389,-6.0389,-6.0389,-6.0389,0.0,0.0,0.0,0.0,0.0,0.0,0.0,0.0,0.0,0.0,0.0,0.0,0.0,0.0,0.0,0.0,0.0,0.0,-1.9115,-1.9879,-2.0691,-2.1488,-2.2424,-2.3806,-2.5688,-2.6453,-2.7389,-2.851,-2.8242,-2.7529,-2.6383,-2.6135,-2.5726,-2.5191,-2.5191,-2.5191,-2.5191,-2.5191,-2.5191,-2.5191,-2.5191,-2.5191,0.0,0.0,0.0,0.0,0.0,0.0,0.0,0.0,-2.5191,-2.5191,-2.5191,-2.5191,-2.5191,-2.5191,-2.5573,-2.5994,-2.5994,-2.9077,-3.263,0.0,0.0,0.0,0.0,0.0,0.0,0.0,0.0,0.0,0.0,0.0,0.0,0.0,0.0,0.0,0.0,0.0,0.0,0.0,0.0,0.0,0.0,0.0,0.0,0.0,0.0,0.0,0.0,0.0,0.0,-6.0389,-6.0389,-6.0389,-6.0389,-6.0389,-6.0389,-6.0389,-6.0389,-6.0389,-6.0389,-6.0389,-6.0389,-6.0389,-6.0389,-6.0389,-6.0389,-6.0389,-6.0389,-6.0389,-6.0389,-6.0389,-6.0389,-6.0389,-6.0389,-6.0389,0.0,0.0,0.0,0.0,0.0,0.0,0.0,0.0,0.0,0.0,0.0,0.0,0.0,0.0,0.0,0.0,0.0,0.0,-1.9148,-1.9949,-2.0486,-2.0682,-2.1596,-2.2971,-2.4845,-2.5082,-2.6032,-2.7701,-2.6823,-2.6402,-2.6364,-2.5573,-2.5191,-2.5191,-2.5191,-2.5191,-2.5191,-2.5191,-2.5191,-2.5191,-2.5191,-2.5191,-2.5191,0.0,0.0,0.0,0.0,0.0,0.0,0.0,-2.5191,-2.5191,-2.5191,-2.521,-2.5229,-2.5191,-2.6383,-2.7701,-2.7701,-2.9516,0.0,0.0,0.0,0.0,0.0,0.0,0.0,0.0,0.0,0.0,0.0,0.0,0.0,0.0,0.0,0.0,0.0,0.0,0.0,0.0,0.0,0.0,0.0,0.0,0.0,0.0,0.0,0.0,0.0,0.0,-6.0389,-6.0389,-6.0389,-6.0389,-6.0389,-6.0389,-6.0389,-6.0389,-6.0389,-6.0389,-6.0389,-6.0389,-6.0389,-6.0389,-6.0389,-6.0389,-6.0389,-6.0389,-6.0389,-6.0389,-6.0389,-6.0389,-6.0389,-6.0389,-6.0389,-6.0389,0.0,0.0,0.0,0.0,0.0,0.0,0.0,0.0,0.0,0.0,0.0,0.0,0.0,0.0,0.0,0.0,0.0,0.0,-1.9184,-1.9497,-2.0033,-2.0821,-2.1789,-2.2893,-2.4167,-2.4862,-2.5726,-2.6784,-2.6536,-2.6097,-2.5554,-2.5306,-2.5191,-2.5191,-2.5191,-2.5191,-2.5191,-2.5191,-2.5191,-2.5191,-2.5191,-2.5191,-2.5191,0.0,0.0,0.0,0.0,0.0,0.0,0.0,0.0,0.0,-2.5191,-2.6013,-2.6727,-2.5554,-2.6383,-2.7568,-2.6956,-2.9937,0.0,0.0,0.0,0.0,0.0,0.0,0.0,0.0,0.0,0.0,0.0,0.0,0.0,0.0,0.0,0.0,0.0,0.0,0.0,0.0,0.0,0.0,0.0,0.0,0.0,0.0,0.0,0.0,0.0,0.0,-6.0389,-6.0389,-6.0389,-6.0389,-6.0389,-6.0389,-6.0389,-6.0389,-6.0389,-6.0389,-6.0389,-6.0389,-6.0389,-6.0389,-6.0389,-6.0389,-6.0389,-6.0389,-6.0389,-6.0389,-6.0389,-6.0389,-6.0389,-6.0389,-6.0389,-6.0389,0.0,0.0,0.0,0.0,0.0,0.0,0.0,0.0,0.0,0.0,0.0,-1.5157,0.0,0.0,0.0,0.0,0.0,0.0,0.0,-1.9383,-1.9755,-2.0477,-2.1417,-2.2528,-2.3869,-2.4415,-2.4912,-2.5409,-2.5753,-2.5688,-2.5191,-2.5191,-2.5191,-2.5191,-2.5191,-2.5191,-2.5191,-2.5191,-2.5191,-2.5191,-2.5191,-2.5191,-2.5191,0.0,0.0,0.0,0.0,0.0,0.0,0.0,0.0,0.0,-2.5191,-2.5898,-2.6632,-2.6288,-2.7377,-2.879,-2.9287,0.0,0.0,0.0,0.0,0.0,0.0,0.0,0.0,0.0,0.0,0.0,0.0,0.0,0.0,0.0,0.0,0.0,0.0,0.0,0.0,0.0,0.0,0.0,0.0,0.0,0.0,0.0,0.0,0.0,0.0,-6.0389,-6.0389,-6.0389,-6.0389,-6.0389,-6.0389,-6.0389,-6.0389,-6.0389,-6.0389,-6.0389,-6.0389,-6.0389,-6.0389,-6.0389,-6.0389,-6.0389,-6.0389,-6.0389,-6.0389,-6.0389,-6.0389,-6.0389,-6.0389,-6.0389,-6.0389,-6.0389,0.0,0.0,-1.4293,-1.4293,0.0,0.0,0.0,0.0,0.0,0.0,0.0,-1.4609,0.0,0.0,0.0,-1.7666,0.0,0.0,0.0,0.0,-1.9643,-1.9896,-2.0831,-2.2159,-2.3976,-2.3938,-2.39,-2.39,-2.4683,-2.5077,-2.5077,-2.5153,-2.5191,-2.5191,-2.5191,-2.5153,0.0,-2.5077,-2.5077,-2.5077,-2.5077,-2.5134,-2.5191,-2.5115,0.0,0.0,0.0,0.0,0.0,0.0,0.0,0.0,-2.5191,-2.5306,-2.5707,-2.7071,-2.8771,-3.0701,0.0,0.0,0.0,0.0,0.0,0.0,0.0,0.0,0.0,0.0,0.0,0.0,0.0,0.0,0.0,0.0,0.0,0.0,0.0,0.0,0.0,0.0,0.0,0.0,0.0,0.0,0.0,0.0,0.0,0.0,0.0,-6.0236,-6.0274,-6.0274,-6.0351,-6.0389,-6.0389,-6.0389,-6.0389,-6.0389,-6.0389,-6.0389,-6.0389,-6.0389,-6.0389,-6.0389,-6.0389,-6.0389,-6.0389,-6.0389,-6.0389,-6.0389,-6.0389,-6.0389,-6.0389,-6.0389,-6.0389,-6.0389,0.0,0.0,-1.4293,-1.4293,0.0,0.0,0.0,0.0,-1.4293,-1.4293,-1.4293,-1.4379,-1.4572,-1.5179,0.0,-1.6955,-1.7715,0.0,0.0,0.0,-1.9828,-1.9904,-2.1448,-2.3114,-2.4885,-2.4243,-2.39,-2.39,-2.4091,-2.4186,-2.4186,-2.4885,-2.5191,-2.5191,-2.5191,-2.4828,-2.4186,-2.4186,-2.4186,-2.4186,-2.4186,-2.4587,-2.5134,-2.4435,-2.4587,0.0,0.0,0.0,0.0,0.0,0.0,0.0,-2.5191,-2.6109,-2.6975,-2.6032,-2.7867,-3.0319,0.0,0.0,0.0,0.0,0.0,0.0,0.0,0.0,0.0,0.0,0.0,0.0,0.0,0.0,0.0,0.0,0.0,0.0,0.0,0.0,0.0,0.0,0.0,0.0,0.0,0.0,0.0,0.0,0.0,0.0,-5.844,-5.9033,-5.9376,-5.9376,-6.0045,-6.0389,-6.0389,-6.0389,-6.0389,0.0,-6.0389,-6.0389,-6.0389,-6.0389,-6.0389,-6.0389,-6.0389,-6.0389,-6.0389,-6.0389,-6.0389,-6.0389,-6.0389,-6.0389,-6.0389,-6.0389,-6.0389,-6.0389,0.0,0.0,0.0,0.0,0.0,0.0,0.0,0.0,-1.4293,-1.4293,-1.4324,-1.4349,-1.4356,-1.5121,0.0,0.0,-1.7117,-1.8029,0.0,0.0,-1.9679,-2.0581,-2.1519,-2.263,-2.393,-2.3135,-2.2887,-2.3288,-2.3288,-2.3498,-2.3938,-2.518,-2.5784,-2.5784,-2.5784,-2.5313,-2.4492,-2.4091,-2.39,-2.3861,-2.346,-2.3804,-2.4473,-2.3613,-2.3556,-2.3911,-2.3441,0.0,0.0,0.0,0.0,0.0,0.0,0.0,-2.6479,-2.6421,-2.7912,-3.0032,0.0,0.0,0.0,0.0,0.0,0.0,0.0,0.0,0.0,0.0,0.0,0.0,0.0,0.0,0.0,0.0,0.0,0.0,0.0,0.0,0.0,0.0,0.0,0.0,0.0,0.0,0.0,0.0,0.0,-5.7905,-5.7905,-5.8307,-5.8536,-5.8536,-5.8975,-5.9205,-5.9205,-5.9205,-5.9205,-5.9205,-5.9587,-5.9988,-6.0389,-6.0389,-6.0389,-6.0389,-6.0389,-6.0389,-6.0389,-6.0389,-6.0389,-6.0389,-6.0389,-6.0389,-6.0389,-6.0389,-6.0389,-6.0389,0.0,0.0,0.0,0.0,0.0,0.0,0.0,0.0,0.0,-1.4324,-1.4367,-1.4405,-1.4405,-1.5044,-1.5564,0.0,0.0,0.0,-1.8518,0.0,0.0,-2.133,-2.1407,-2.1789,-2.2581,-2.1808,-2.1789,-2.2601,-2.2467,0.0,0.0,0.0,0.0,-2.6402,-2.6402,-2.5791,-2.4694,-2.3976,-2.3594,-2.3403,-2.2677,-2.2906,-2.3575,-2.2715,-2.2486,-2.2581,-2.2448,-2.304,-2.39,-2.39,0.0,0.0,0.0,0.0,-2.5478,-2.6861,-2.795,-2.9483,0.0,0.0,0.0,0.0,0.0,0.0,0.0,0.0,0.0,0.0,0.0,0.0,0.0,0.0,0.0,0.0,0.0,0.0,0.0,0.0,0.0,0.0,0.0,0.0,0.0,0.0,0.0,0.0,0.0,-5.7466,-5.7466,-5.76,-5.7676,-5.7676,-5.781,-5.7905,-5.7905,-5.7905,-5.7905,-5.7905,-5.8574,-5.9281,-5.9969,-6.0102,-6.0255,-6.0389,-6.0389,-6.0389,-6.0389,-6.0389,-6.0389,-6.0389,-6.0389,-6.0389,-6.0389,-6.0389,-6.0389,-6.0389,0.0,0.0,0.0,0.0,0.0,0.0,0.0,0.0,0.0,0.0,-1.4398,-1.4405,-1.4405,-1.449,-1.4885,-1.5643,-1.5964,-1.6851,0.0,0.0,0.0,-2.1369,-2.1407,-2.1789,-2.2581,-2.1808,-2.1789,-2.2601,0.0,0.0,0.0,0.0,0.0,-2.6402,0.0,0.0,-2.2944,-2.2811,-2.2371,-2.1713,-2.1617,-2.2057,-2.2677,-2.1866,-2.1999,-2.2505,-2.1808,-2.2562,-2.39,-2.39,-2.4473,0.0,0.0,0.0,0.0,-2.5478,-2.6632,0.0,0.0,0.0,0.0,0.0,0.0,0.0,0.0,0.0,0.0,0.0,0.0,0.0,0.0,0.0,0.0,0.0,0.0,0.0,0.0,0.0,0.0,0.0,0.0,0.0,0.0,0.0,0.0,0.0,-5.567,-5.5728,-5.5728,-5.6396,-5.6759,-5.6759,-5.7504,-5.7905,-5.7905,-5.7905,-5.7905,-5.7905,-5.8001,-5.8116,-5.8249,-5.8956,-5.9682,-6.0389,-6.0389,-6.0389,-6.0389,-6.0389,-6.0389,-6.0389,-6.0389,-6.0389,-6.0389,-6.0389,-6.0389,-6.0389,0.0,0.0,0.0,0.0,0.0,0.0,0.0,0.0,0.0,0.0,0.0,-1.4453,-1.4459,-1.4511,-1.474,-1.5163,-1.5311,0.0,0.0,0.0,0.0,0.0,-2.0423,-2.0843,-2.1187,-2.0843,-2.1072,-2.1942,0.0,0.0,0.0,-2.7128,-2.7892,0.0,0.0,0.0,0.0,0.0,-2.239,-2.1989,-2.1053,-2.2027,-2.3815,-2.1531,-2.1779,-2.3097,-2.1301,-2.1454,-2.2562,-2.3021,-2.3747,-2.4549,-2.5057,0.0,0.0,0.0,0.0,0.0,0.0,0.0,0.0,0.0,0.0,0.0,0.0,0.0,0.0,0.0,0.0,0.0,0.0,0.0,0.0,0.0,0.0,0.0,0.0,0.0,0.0,0.0,0.0,0.0,0.0,0.0,0.0,0.0,-5.5403,-5.5403,-5.5403,-5.5747,-5.5938,-5.5938,-5.6301,-5.6511,-5.6511,-5.6511,-5.6721,-5.716,-5.716,-5.7428,-5.7905,-5.8268,-5.888,-5.9701,-6.0179,-6.0389,-6.0389,-6.0389,-6.0389,-6.0389,-6.0389,-6.0389,-6.0389,-6.0389,-6.0389,-6.0389,0.0,0.0,0.0,0.0,0.0,0.0,0.0,0.0,0.0,0.0,0.0,-1.4563,-1.4567,0.0,0.0,0.0,-1.4863,0.0,0.0,0.0,0.0,0.0,0.0,-1.9888,-2.0088,-2.0088,-2.0537,0.0,0.0,0.0,-2.7701,-2.7701,-2.9287,0.0,-3.0109,0.0,0.0,0.0,0.0,-2.3155,-2.1894,-2.2925,-2.5,-2.3078,-2.3392,-2.4587,-2.2467,0.0,0.0,0.0,0.0,0.0,0.0,0.0,0.0,0.0,0.0,0.0,0.0,0.0,0.0,0.0,0.0,0.0,0.0,0.0,0.0,0.0,0.0,0.0,0.0,0.0,0.0,0.0,0.0,0.0,0.0,0.0,0.0,0.0,0.0,0.0,0.0,0.0,0.0,0.0,-5.4944,-5.5078,-5.5078,-5.5288,-5.5403,-5.5403,-5.5403,-5.5403,-5.5403,-5.5403,-5.5708,-5.6301,-5.6301,-5.6645,-5.7275,-5.7485,-5.7905,-5.8517,-5.9606,-6.0064,-6.0083,-6.0313,-6.0389,-6.0389,-6.0389,-6.0389,-6.0389,-6.0389,-6.0389,-6.0389,0.0,0.0,0.0,0.0,0.0,0.0,0.0,0.0,0.0,0.0,0.0,-1.4709,-1.4785,-1.4794,-1.4812,-1.4887,-1.4896,0.0,0.0,0.0,0.0,0.0,0.0,0.0,-2.0069,-2.0088,0.0,0.0,0.0,0.0,-2.7701,-2.7701,-2.9917,-3.3757,-3.1255,-2.8771,-2.6402,0.0,0.0,-2.5057,-2.4962,-2.5038,-2.544,-2.7625,-2.8051,-2.7377,-2.6421,0.0,0.0,0.0,0.0,0.0,0.0,0.0,0.0,0.0,0.0,0.0,0.0,0.0,0.0,0.0,0.0,0.0,0.0,0.0,0.0,0.0,0.0,0.0,0.0,0.0,0.0,0.0,0.0,0.0,0.0,0.0,0.0,0.0,0.0,0.0,0.0,0.0,0.0,0.0,-5.3702,-5.418,-5.418,-5.4963,-5.5403,-5.5403,-5.5403,-5.5403,-5.5403,-5.5403,-5.5422,-5.546,-5.546,-5.5498,-5.5556,-5.632,-5.6683,-5.6816,-5.8459,-5.9185,-5.9243,-6.0064,-6.0389,-6.0389,-6.0389,-6.0389,-6.0389,-6.0389,-6.0389,-6.0389,0.0,0.0,0.0,0.0,0.0,0.0,0.0,0.0,0.0,0.0,0.0,0.0,0.0,-1.4747,-1.4841,-1.4887,-1.4989,0.0,0.0,0.0,0.0,0.0,0.0,0.0,0.0,0.0,0.0,0.0,0.0,-2.2467,-2.6109,-2.6109,-2.7472,-2.9937,-2.9535,-2.9478,-2.944,-2.5886,0.0,0.0,-2.5191,-2.6147,-2.7619,-2.7988,-2.9287,-3.0648,0.0,0.0,0.0,0.0,0.0,0.0,-2.5019,-2.4587,-2.3957,-2.4263,0.0,0.0,0.0,0.0,0.0,0.0,0.0,0.0,0.0,0.0,0.0,0.0,0.0,0.0,0.0,0.0,0.0,0.0,0.0,0.0,0.0,0.0,0.0,0.0,0.0,0.0,0.0,0.0,0.0,0.0,0.0,-5.3263,-5.3263,-5.355,-5.3989,-5.4543,-5.4581,-5.483,-5.5403,-5.5403,-5.5403,-5.5403,-5.5403,-5.5403,-5.5422,-5.5708,-5.5823,-5.588,-5.7008,-5.781,-5.8383,-5.9224,-5.9568,-5.9625,-6.0179,-6.0389,-6.0389,-6.0389,-6.0389,-6.0389,0.0,0.0,0.0,-1.59,0.0,-1.4767,-1.4767,-1.4861,-1.4908,-1.4931,0.0,0.0,0.0,0.0,-1.577,-1.5798,-1.5636,-1.5532,-1.5532,-1.6086,0.0,0.0,0.0,0.0,0.0,0.0,0.0,0.0,0.0,0.0,0.0,-2.4637,-2.581,-2.7701,-2.7364,-2.8351,0.0,0.0,0.0,-2.6479,0.0,0.0,-2.9841,0.0,-3.2267,0.0,0.0,0.0,0.0,0.0,0.0,0.0,0.0,-2.5256,-2.4282,-2.3995,-2.4511,0.0,0.0,0.0,0.0,0.0,0.0,0.0,0.0,0.0,0.0,0.0,0.0,0.0,0.0,0.0,0.0,0.0,0.0,0.0,0.0,0.0,0.0,0.0,0.0,0.0,0.0,0.0,0.0,0.0,0.0,0.0,-5.2403,-5.2652,-5.3072,-5.3645,-5.3951,-5.4371,-5.4963,-5.525,-5.5403,-5.5403,-5.5403,-5.5403,-5.5403,-5.5403,-5.5403,-5.5441,-5.5976,-5.6683,-5.7523,-5.8364,-5.8861,-5.9166,-5.9739,-6.0141,-6.0389,-6.0389,-6.0389,-6.0389,-1.6621,-1.6747,-1.6729,-1.6729,-1.6063,-1.5542,-1.5542,-1.5754,-1.5953,-1.6007,0.0,0.0,0.0,0.0,0.0,-1.7641,-1.6926,-1.6468,-1.6449,-1.6449,0.0,0.0,0.0,0.0,0.0,0.0,0.0,0.0,0.0,0.0,0.0,0.0,-2.516,-2.7434,-2.4989,-2.5275,-2.7644,0.0,-2.8815,-2.9082,0.0,-3.1446,-3.1962,0.0,0.0,0.0,-3.6568,-3.6012,0.0,-3.2382,0.0,0.0,0.0,-2.6517,-2.5038,-2.4167,-2.453,0.0,0.0,0.0,0.0,0.0,0.0,0.0,0.0,0.0,0.0,0.0,0.0,0.0,0.0,0.0,0.0,0.0,0.0,0.0,0.0,0.0,0.0,0.0,0.0,0.0,0.0,0.0,0.0,0.0,-5.1085,-5.1563,-5.1563,-5.2327,-5.2747,-5.2747,-5.3607,-5.4065,-5.4065,-5.4925,-5.5365,-5.5365,-5.5403,-5.5403,-5.5403,-5.5403,-5.5403,-5.5403,-5.5403,-5.5842,-5.6625,-5.7504,-5.8326,-5.9033,-5.9052,-5.9606,-6.0351,-6.0351,-6.037,-6.0389,-1.8288,-1.798,-1.7581,-1.7581,-1.6911,-1.6367,-1.6367,-1.6438,-1.6506,0.0,0.0,0.0,-1.735,-1.8051,-1.855,-1.8531,-1.834,-1.7939,-1.7317,-1.7278,-1.7661,-1.8502,-1.8761,-1.9276,-2.0069,0.0,0.0,0.0,0.0,0.0,0.0,0.0,0.0,0.0,-2.3938,-2.4301,-2.4969,-2.5199,0.0,0.0,-2.9058,-3.093,0.0,0.0,0.0,0.0,0.0,-3.7368,-3.6031,0.0,-3.3184,-3.0319,0.0,0.0,-2.5038,-2.4167,-2.4931,-2.5925,-2.5363,0.0,0.0,0.0,0.0,0.0,0.0,0.0,0.0,0.0,0.0,0.0,0.0,0.0,0.0,0.0,0.0,0.0,0.0,0.0,0.0,0.0,0.0,0.0,0.0,0.0,0.0,0.0,-5.0531,-5.0665,-5.0665,-5.1467,-5.1926,-5.1926,-5.2728,-5.3148,-5.3148,-5.4027,-5.4467,-5.4467,-5.5097,-5.5403,-5.5403,-5.5403,-5.5403,-5.5403,-5.5403,-5.5536,-5.5804,-5.6625,-5.7084,-5.7351,-5.7982,-5.8727,-5.9472,-5.9472,-5.9854,-6.0389,-1.8942,-1.8707,-1.8524,-1.8833,-1.8252,-1.7817,-1.8161,-1.8261,-1.8304,0.0,0.0,0.0,-1.9462,-2.0371,-2.0833,-2.048,-1.9792,-1.9181,-1.8684,-1.833,-1.8368,-1.8875,-1.9219,-1.962,-2.0088,-2.0088,0.0,0.0,0.0,-2.0365,-2.0862,-2.0862,-2.1301,-2.2104,-2.2257,-2.2906,-2.3881,-2.3518,0.0,0.0,-2.9478,0.0,0.0,-3.5592,-3.7292,0.0,0.0,0.0,-3.8591,-3.8591,-3.6126,0.0,0.0,-2.7377,-2.6911,-2.4989,-2.5867,0.0,0.0,0.0,0.0,0.0,0.0,0.0,0.0,0.0,0.0,0.0,0.0,0.0,0.0,0.0,0.0,0.0,0.0,0.0,0.0,0.0,0.0,0.0,0.0,0.0,0.0,-4.9595,-4.9805,-4.9805,-5.0111,-5.0302,-5.0302,-5.0779,-5.1066,-5.1066,-5.1868,-5.2308,-5.2308,-5.3129,-5.355,-5.3569,-5.4448,-5.4868,-5.4868,-5.5231,-5.5403,-5.5403,-5.5403,-5.5403,-5.5441,-5.5919,-5.6301,-5.6645,-5.716,-5.7867,-5.8651,-5.8994,-5.9415,-5.9911,0.0,-1.9232,-1.9485,-2.0282,-1.9829,-1.9611,-2.0336,-2.0566,-2.0629,0.0,-2.1622,-2.2499,-2.3042,-2.3648,-2.3721,-2.2934,-2.1359,-2.0346,-2.0251,-1.9486,-1.9028,-1.9028,-1.9716,-2.0088,-2.0088,-2.0088,-2.0088,-2.0088,-2.0088,-2.0088,-2.0088,-2.0088,-2.0518,-2.1216,-2.0442,-2.1473,-2.3709,-2.304,0.0,-2.7014,-3.0777,-3.2672,0.0,0.0,-3.903,0.0,-4.1074,-4.1628,-4.1628,-4.1533,-3.8877,0.0,0.0,-3.007,-2.9975,-2.672,-2.7453,0.0,-2.7281,-2.7529,0.0,0.0,0.0,0.0,-3.4445,-3.4655,0.0,0.0,0.0,0.0,0.0,0.0,0.0,0.0,0.0,0.0,0.0,0.0,0.0,0.0,0.0,0.0,0.0,-4.8506,-4.8945,-4.8945,-4.971,-5.0206,-5.0302,-5.0302,-5.0302,-5.0302,-5.1047,-5.1467,-5.1467,-5.227,-5.2671,-5.2671,-5.3531,-5.3951,-5.3989,-5.4868,-5.5269,-5.5269,-5.5365,-5.5403,-5.5403,-5.5403,-5.5823,-5.6473,-5.6473,-5.6988,-5.7848,-5.8555,-5.888,-5.909,-1.9902,-2.0065,-2.0318,-2.1133,-2.1151,-2.1116,-2.1385,-2.1455,-2.1489,-2.1541,-2.236,-2.3754,-2.5899,-2.528,-2.4676,-2.4605,-2.3076,-2.1836,-2.1197,-2.0346,-1.9869,-1.9869,-2.0012,-2.0088,-2.0088,-2.0088,-2.0088,-2.0088,-2.0088,-2.0088,-2.0088,-2.0088,-2.0193,-2.0346,-2.0193,-2.1129,-2.2887,-2.3422,0.0,-2.8479,-2.9306,0.0,-3.6814,-3.7636,-3.9221,-4.1151,-4.2183,-4.2545,-4.2431,-4.1743,-4.0062,-3.7769,0.0,0.0,-3.2726,-3.0013,-3.0529,-3.1584,-2.9917,-3.0567,-3.1336,-2.9789,0.0,0.0,-2.9937,-3.1255,0.0,0.0,0.0,0.0,0.0,0.0,0.0,0.0,0.0,0.0,0.0,0.0,0.0,0.0,0.0,0.0,-4.7799,-4.7952,-4.8048,-4.8048,-4.885,-4.9614,-5.0264,-5.0302,-5.0302,-5.0302,-5.0455,-5.055,-5.055,-5.141,-5.183,-5.1849,-5.2652,-5.3053,-5.3072,-5.3951,-5.4352,-5.439,-5.5097,-5.5403,-5.5403,-5.5403,-5.5498,-5.5632,-5.5632,-5.6129,-5.6855,-5.7027,-5.7523,-5.8154,-2.0228,-2.0626,-2.1151,-2.1966,-2.2111,-2.2259,-2.2683,-2.2757,-2.3049,-2.3888,-2.5318,-2.6505,-2.7229,-2.6702,-2.6148,-2.5787,-2.4221,-2.2887,-2.2046,-2.1206,-2.0556,-2.0108,-2.0088,-2.0308,-2.0747,-2.0327,-2.0308,-2.0747,-2.0308,-2.0088,-2.0088,-2.0088,-2.0556,-2.134,-2.0938,-2.1913,-2.3911,0.0,-2.56,-2.8485,-3.0586,0.0,-3.7846,-3.9107,-4.0654,-4.2259,-4.31,-4.3673,-4.3711,-4.1609,-4.0616,0.0,0.0,-3.5802,-3.5821,0.0,-3.2955,-3.4028,-3.1484,-3.1732,-3.2501,-3.1656,0.0,0.0,0.0,0.0,-3.2057,0.0,0.0,0.0,0.0,0.0,0.0,0.0,0.0,0.0,0.0,0.0,0.0,0.0,0.0,0.0,-4.6557,-4.692,-4.7341,-4.778,-4.82,-4.864,-4.9041,-4.9461,-4.9691,-4.9691,-5.0092,-5.0302,-5.0302,-5.0741,-5.0951,-5.0971,-5.1811,-5.2193,-5.2231,-5.3072,-5.3683,-5.4123,-5.4562,-5.5002,-5.5403,-5.5403,-5.5403,-5.5403,-5.5403,-5.5651,-5.6052,-5.6454,-5.6874,-5.7313,-2.0499,-2.1188,-2.1984,-2.2781,-2.2926,-2.3146,-2.3767,-2.3858,-2.4514,-2.6322,-2.8373,-2.9401,-2.8802,-2.8641,-2.8384,-2.7837,-2.5837,-2.4297,-2.3621,-2.2494,-2.1473,-2.0633,-2.0442,-2.0671,-2.1388,-2.0556,-2.0442,-2.1158,-2.0442,-2.0088,-2.0088,-2.0088,-2.0919,-2.2352,-2.1846,0.0,0.0,0.0,0.0,-2.944,0.0,-3.5095,-3.7063,-4.01,-4.1705,-4.2488,-4.3787,-4.4704,-4.4857,-4.1991,-4.1437,-4.1304,-3.7406,-3.7827,0.0,0.0,0.0,0.0,0.0,0.0,0.0,0.0,0.0,-3.2477,0.0,0.0,0.0,-3.4732,0.0,0.0,0.0,0.0,0.0,0.0,0.0,0.0,0.0,0.0,0.0,0.0,0.0,0.0,0.0,-4.5354,-4.6099,-4.7455,-4.7111,-4.7131,-4.778,-4.8468,-4.8926,-4.9079,-4.9729,-5.0149,-5.0302,-5.0302,-5.0302,-5.0302,-5.1009,-5.1353,-5.1391,-5.2193,-5.2957,-5.3645,-5.3951,-5.4505,-5.5174,-5.5326,-5.5403,-5.5403,-5.5403,-5.5403,-5.5479,-5.6129,-5.6358,-5.6473,-2.1224,-2.2021,-2.2799,-2.3542,-2.3668,-2.3749,-2.402,-2.4078,-2.4982,-2.7544,-2.9431,-3.1104,0.0,0.0,0.0,0.0,0.0,0.0,-2.7026,0.0,-2.316,-2.2352,-2.1636,-2.1292,-2.1407,-2.0556,-2.0146,-2.0251,-2.0146,-2.0088,-2.0088,-2.0088,-2.0614,-2.156,-2.218,0.0,0.0,0.0,-2.9306,0.0,-3.4082,-3.3719,0.0,-3.861,-4.0501,-4.0998,-4.4055,-4.522,-4.5125,0.0,-4.3654,-4.3252,0.0,-4.0941,-4.1686,-3.8151,0.0,0.0,0.0,0.0,0.0,0.0,-3.6604,0.0,0.0,0.0,-3.3929,-3.1427,0.0,0.0,0.0,0.0,0.0,0.0,0.0,0.0,0.0,0.0,0.0,0.0,0.0,0.0,0.0,-4.2889,-4.3348,-4.6424,-4.4609,-4.4666,-4.7646,-4.7895,-4.8296,-4.9079,-4.9175,-4.9576,-5.0283,-5.0302,-5.0302,-5.0302,-5.0397,-5.0455,-5.0474,-5.1353,-5.1792,-5.1983,-5.3454,-5.4161,-5.4314,-5.5078,-5.5403,-5.5403,-5.5403,-5.5403,-5.5422,-5.5498,-5.5536,-5.5556,-2.1532,-2.2165,-2.2944,-2.3668,-2.3795,-2.3837,-2.3919,-2.5903,-2.7689,-2.8507,-3.1017,0.0,0.0,0.0,0.0,0.0,0.0,-2.9311,0.0,0.0,-2.4866,-2.4041,-2.2745,-2.228,-2.2775,-2.1479,-2.0803,-2.0804,-2.0337,-2.0098,-2.0108,-2.0614,-2.1559,-2.2904,-2.4171,0.0,-2.8515,0.0,0.0,0.0,0.0,0.0,0.0,-3.9451,-4.2354,-4.3386,-4.4781,-4.5297,-4.501,0.0,-4.2889,0.0,0.0,0.0,0.0,0.0,0.0,0.0,0.0,0.0,0.0,0.0,0.0,0.0,-3.2707,0.0,-3.3032,0.0,0.0,0.0,0.0,0.0,0.0,0.0,0.0,0.0,0.0,0.0,0.0,0.0,0.0,0.0,0.0,0.0,0.0,0.0,-4.2928,-4.308,-4.5488,-4.6519,-4.7207,-4.757,-4.8563,-4.9251,-4.9595,-5.0073,-5.0302,-5.0302,-5.0302,-5.0302,-5.0302,-5.0684,-5.1123,-5.1639,-5.2346,-5.2919,-5.3416,-5.4295,-5.4613,-5.4645,-5.5186,-5.5403,-5.5403,-5.5403,-5.5403,-5.5403,-2.1912,0.0,-2.318,-2.3705,-2.3795,-2.394,-2.4393,-2.7198,-2.9381,-2.9715,0.0,0.0,-3.5499,-3.4733,0.0,0.0,-3.428,-3.226,0.0,0.0,-2.73,-2.6749,-2.4677,-2.3833,-2.4473,-2.2837,-2.1877,-2.1632,-2.105,-2.0755,0.0,-2.1405,-2.2492,-2.3988,0.0,-2.8074,-3.0414,0.0,0.0,-3.2985,-3.3696,-3.4687,-3.6228,-4.0731,-4.3634,-4.5297,-4.5275,-4.5275,-4.4951,-4.2869,-4.2583,0.0,-4.2125,0.0,0.0,0.0,0.0,0.0,-3.9202,0.0,0.0,0.0,0.0,0.0,0.0,0.0,0.0,0.0,0.0,0.0,0.0,0.0,0.0,0.0,0.0,0.0,0.0,0.0,0.0,0.0,0.0,0.0,0.0,0.0,0.0,0.0,0.0,-4.1227,-4.3864,-4.5163,-4.6042,-4.65,-4.7723,-4.8621,-4.9098,-4.9671,-5.0073,-5.0302,-5.0302,-5.0302,-5.0302,-5.0302,-5.0646,-5.1257,-5.1505,-5.1926,-5.2556,-5.3645,-5.4078,-5.4123,-5.5033,-5.5403,-5.5403,-5.5403,-5.5403,-5.5403,-2.2528,-2.327,0.0,0.0,-2.3795,-2.432,-2.5896,-2.7118,-2.8798,0.0,0.0,0.0,0.0,0.0,0.0,0.0,0.0,-3.644,-3.6719,0.0,-3.079,-3.1083,-2.7942,-2.6205,0.0,-2.4575,-2.3308,-2.2452,-2.2433,-2.2414,0.0,0.0,0.0,0.0,-2.6466,-2.896,-3.1409,-3.2162,-3.5303,-3.966,-3.8061,-3.9849,-4.3297,0.0,-4.31,-4.5297,-4.5233,0.0,0.0,-4.4143,-4.3836,0.0,0.0,0.0,0.0,0.0,0.0,0.0,0.0,0.0,0.0,-3.6489,0.0,0.0,0.0,0.0,-3.4636,0.0,0.0,0.0,0.0,0.0,-3.5859,-3.4254,0.0,0.0,0.0,0.0,0.0,0.0,0.0,0.0,0.0,0.0,0.0,0.0,0.0,0.0,-4.3729,-4.4055,-4.4819,-4.6462,-4.6557,-4.7398,-4.9079,-4.9117,-4.9519,-5.0302,-5.0302,-5.0302,-5.0302,-5.0302,-5.0321,-5.0397,-5.1238,-5.162,-5.1773,-5.3416,-5.4104,-5.418,-5.5059,-5.5403,-5.5403,-5.5403,-5.5403,-5.5403,0.0,0.0,0.0,0.0,0.0,-2.452,-2.6675,-2.8651,0.0,0.0,0.0,0.0,0.0,-3.9741,-4.0244,0.0,0.0,-3.8758,-3.8282,-3.5082,0.0,0.0,0.0,-2.8704,0.0,-2.6541,-2.4714,-2.3372,-2.2783,-2.2498,-2.2509,0.0,0.0,0.0,0.0,-2.9772,0.0,0.0,0.0,0.0,0.0,-4.1388,-4.4543,0.0,0.0,-4.517,-4.5192,-4.5192,0.0,-4.4868,-4.4391,-4.3971,-4.4298,-4.3802,-4.3191,-4.35,-4.3424,0.0,0.0,0.0,-4.2794,-3.9431,0.0,0.0,0.0,0.0,0.0,0.0,0.0,0.0,0.0,0.0,-3.6146,-3.498,-3.3872,0.0,0.0,0.0,0.0,0.0,0.0,0.0,0.0,0.0,0.0,0.0,-3.844,0.0,0.0,-4.4265,-4.5104,-4.5636,-4.6192,-4.6784,-4.7373,-4.8503,-4.9232,-4.95,-4.9988,-5.0255,-5.0302,-5.0236,-5.0255,-5.0321,-5.0608,-5.0741,-5.0837,-5.1983,-5.2742,-5.3245,-5.4174,-5.4842,-5.5275,-5.5275,-5.5275,-5.5275,-2.385,0.0,0.0,0.0,0.0,0.0,0.0,0.0,0.0,0.0,-3.6888,0.0,-4.0744,0.0,-4.1218,0.0,-4.1724,-4.0574,-3.9298,-3.7336,0.0,-3.6602,-3.3614,0.0,0.0,-2.9544,-2.7333,-2.5404,-2.4655,-2.3974,-2.3398,0.0,0.0,0.0,0.0,0.0,0.0,0.0,-3.671,0.0,0.0,-4.3092,0.0,0.0,-4.5057,-4.5103,0.0,-4.5125,-4.5125,-4.5125,-4.4763,-4.4383,-4.4976,-4.4426,-4.3664,-4.4219,-4.4012,-4.3554,-4.3229,-4.3535,0.0,-4.0845,-3.9376,0.0,-3.5024,0.0,0.0,0.0,0.0,0.0,0.0,0.0,0.0,-3.5806,-3.4238,0.0,0.0,0.0,0.0,0.0,0.0,0.0,0.0,0.0,-3.442,-3.7013,0.0,0.0,0.0,0.0,-4.4624,-4.5235,-4.5729,-4.6148,-4.6492,-4.7602,-4.8483,-4.9098,-4.9544,-4.9945,-5.0278,-5.0212,-5.0212,-5.0278,-5.0302,-5.0302,-5.0378,-5.1238,-5.1882,-5.2425,-5.362,-5.4377,-5.4802,-5.5153,-5.5248,-5.5183,0.0,0.0,0.0,0.0,-2.5932,0.0,0.0,0.0,-3.5242,0.0,-3.8151,-3.92,-4.0815,-4.1285,-4.1848,-4.283,-4.2791,-4.194,-4.0084,-3.9723,0.0,0.0,-3.6789,-3.5829,-3.5791,0.0,0.0,-2.8409,-2.7749,-2.6622,-2.5067,0.0,0.0,0.0,-2.7551,0.0,-3.2707,-3.5932,-3.9267,-4.2564,-4.4232,-4.4895,-4.4895,-4.4895,-4.4967,-4.508,-4.5014,-4.4991,-4.4991,-4.4991,-4.4991,-4.4991,-4.5061,-4.5103,-4.5103,-4.5103,-4.5103,-4.4912,-4.4094,-4.3866,-4.3295,-4.0954,-4.025,0.0,0.0,0.0,-3.8537,0.0,0.0,0.0,0.0,0.0,0.0,-3.6687,-3.5005,-3.3054,0.0,0.0,0.0,0.0,0.0,0.0,0.0,0.0,-3.1792,-3.5799,-3.4808,0.0,0.0,0.0,-4.3439,-4.5182,-4.5151,-4.5532,-4.6421,-4.6473,-4.7312,-4.8965,-4.8991,-4.9406,-5.013,-5.0169,-5.0188,-5.0188,-5.0278,-5.0302,-5.0359,-5.12,-5.1563,-5.1773,-5.3397,-5.4034,-5.4173,-5.5071,-5.5294,-5.5203,-2.4737,-2.6149,-2.7562,0.0,-2.7779,-2.863,0.0,0.0,0.0,0.0,-3.9509,-4.0598,-4.2196,-4.2468,-4.2596,-4.2884,-4.2869,0.0,0.0,0.0,0.0,-4.1188,-3.9202,-3.7809,-3.7195,-3.4386,0.0,-3.0169,0.0,0.0,-2.5882,0.0,0.0,0.0,0.0,0.0,-3.2558,-3.4661,-3.8205,-4.2564,-4.4232,-4.4895,0.0,0.0,-4.4919,-4.4962,-4.501,-4.4991,-4.4991,-4.4991,-4.4991,-4.4991,-4.5014,-4.5033,-4.5033,-4.5103,-4.5103,-4.5045,-4.4836,-4.476,-4.4608,-4.398,-4.24,-4.0762,0.0,0.0,0.0,0.0,0.0,0.0,0.0,0.0,0.0,0.0,0.0,0.0,0.0,0.0,0.0,0.0,0.0,0.0,0.0,0.0,-3.2374,-3.3405,-3.4902,0.0,0.0,0.0,0.0,-4.4129,-4.4779,-4.5198,-4.5384,-4.6119,-4.6694,-4.711,-4.8324,-4.9028,-4.9257,-4.9797,-5.0108,-5.0188,-5.0231,-5.0236,-5.0321,-5.055,-5.1028,-5.1716,-5.2728,-5.3913,-5.5045,-5.5138,-5.5168,-5.5121,-2.6512,0.0,0.0,-3.1763,0.0,0.0,-3.457,0.0,0.0,-3.955,-4.0564,0.0,-4.2285,-4.2814,-4.305,-4.292,-4.3178,0.0,-4.1941,0.0,0.0,-4.1699,-4.0817,-3.997,-3.9169,-3.6451,0.0,-3.1666,0.0,0.0,-2.6186,0.0,0.0,0.0,0.0,-2.9128,0.0,-3.6007,-3.9721,-4.3076,-4.4383,0.0,0.0,-4.4895,-4.4895,-4.4895,-4.4943,-4.4943,-4.4943,-4.4943,-4.4943,-4.4943,-4.4943,-4.4943,-4.4943,-4.4991,-4.5014,-4.5014,-4.5014,-4.5014,-4.5014,-4.5014,-4.3927,-4.2693,-4.1974,-4.1803,-4.1556,0.0,-4.1635,-4.2455,0.0,0.0,0.0,0.0,0.0,0.0,0.0,0.0,0.0,0.0,0.0,0.0,0.0,0.0,-3.1032,-3.1377,-3.3441,0.0,0.0,0.0,0.0,-4.3232,-4.4406,-4.5014,-4.5038,-4.5578,-4.6016,-4.6416,-4.7686,-4.8479,-4.8878,-4.9651,-5.0038,-5.0133,-5.0163,-5.0212,-5.0255,-5.0278,-5.0588,-5.1162,-5.2303,-5.3601,-5.4842,-5.5061,-5.5149,-5.5149,0.0,0.0,0.0,0.0,0.0,0.0,0.0,-3.8699,0.0,-4.0854,0.0,-4.2176,-4.2176,-4.305,-4.3524,-4.3228,0.0,-4.321,-4.1107,-4.2815,-4.3139,-4.1317,-4.1941,-4.1941,-4.1115,-3.8768,-3.6029,0.0,-3.0684,-2.8404,-2.6143,0.0,0.0,0.0,0.0,0.0,0.0,-3.8485,-4.2143,-4.3777,-4.4573,-4.4895,-4.4895,-4.4895,-4.4895,-4.4895,-4.4895,-4.4895,-4.4895,-4.4895,-4.4895,-4.4895,-4.4895,-4.4895,-4.4895,-4.4895,-4.4895,-4.4895,-4.4895,-4.4895,-4.4895,-4.4895,-4.4895,-4.4516,-4.3122,-4.2822,-4.2822,-4.2822,-4.2278,-4.2354,0.0,0.0,0.0,0.0,0.0,0.0,0.0,0.0,0.0,0.0,0.0,0.0,0.0,0.0,-2.9131,-2.9791,-3.1282,0.0,0.0,0.0,0.0,-4.2531,-4.3976,-4.4849,-4.5061,0.0,-4.5413,-4.6202,-4.7086,-4.7897,-4.8656,-4.9587,-5.0005,-5.0005,-5.0114,-5.0163,-5.0188,-5.0255,-5.0378,-5.0627,-5.2119,-5.329,-5.4199,-5.4969,-5.5229,-5.5229,0.0,0.0,0.0,0.0,0.0,-3.9967,-4.0763,-4.0564,-4.1071,-4.319,-4.4168,-4.4675,-4.4675,-4.4862,-4.4935,-4.4874,-4.4974,0.0,0.0,0.0,0.0,-4.2595,-4.2704,-4.2395,-4.1615,-3.9436,-3.6728,0.0,-3.0838,-2.8295,-2.5938,0.0,0.0,0.0,0.0,0.0,-3.5571,-3.9274,0.0,-4.3777,-4.4573,-4.4895,-4.4895,-4.4895,-4.4895,-4.4895,-4.4895,-4.4895,-4.4895,-4.4895,-4.4895,-4.4895,-4.4895,-4.4895,-4.4895,-4.4895,-4.4895,-4.4895,-4.4895,-4.4895,-4.4895,-4.4895,-4.4895,-4.4819,-4.4535,-4.4459,-4.4459,-4.4459,-4.4369,-4.399,-4.3084,0.0,0.0,0.0,0.0,0.0,0.0,0.0,0.0,0.0,0.0,0.0,0.0,0.0,-2.9472,0.0,0.0,0.0,0.0,0.0,0.0,0.0,-4.3379,0.0,0.0,0.0,-4.5043,-4.5166,-4.6752,-4.7549,-4.7707,-4.9224,-4.9952,-5.0005,-5.0012,-5.0082,-5.0133,-5.0188,-5.0675,-5.1467,-5.2398,-5.332,-5.4199,-5.5033,-5.5358,-5.5358,0.0,0.0,0.0,0.0,0.0,0.0,0.0,-4.3607,0.0,-4.4059,-4.444,-4.4675,-4.4675,-4.5055,-4.5291,-4.5291,-4.5291,-4.5146,-4.4747,-4.4331,-4.3914,-4.3534,-4.3118,-4.252,-4.1704,-3.989,-3.7653,-3.4934,-3.1494,-2.8845,-2.6971,-2.541,-2.4898,-2.5442,0.0,-3.2156,0.0,0.0,0.0,-4.3523,-4.4524,-4.4895,-4.4895,-4.4895,-4.4895,-4.4895,-4.4895,-4.4895,-4.4895,-4.4895,-4.4895,-4.4895,-4.4895,-4.4895,-4.4895,-4.4895,-4.4895,-4.4895,-4.4895,-4.4895,-4.4895,-4.4895,-4.4895,-4.4895,-4.4895,-4.4895,-4.4895,-4.4895,-4.4895,-4.4402,-4.2739,-4.107,0.0,0.0,0.0,0.0,0.0,0.0,0.0,0.0,0.0,0.0,0.0,0.0,0.0,0.0,0.0,0.0,0.0,0.0,0.0,0.0,0.0,0.0,0.0,0.0,0.0,-4.4914,-4.6626,-4.7422,-4.7453,-4.914,-4.9925,-4.9952,-4.9959,-5.0031,-5.0057,-5.0158,-5.0503,-5.1047,-5.2308,-5.3053,-5.3588,-5.4906,-5.5403,-5.5403,0.0,-4.0057,0.0,0.0,-4.2755,0.0,-4.511,-4.6142,-4.6305,-4.5037,-4.4874,-4.4874,-4.4874,-4.5436,-4.5816,-4.5816,-4.5816,-4.5743,-4.5562,-4.4965,-4.453,-4.4349,-4.357,-4.2864,-4.223,-4.0691,-3.871,0.0,-3.2838,-3.0123,0.0,-2.6302,-2.595,-2.7026,0.0,0.0,0.0,0.0,-4.1771,-4.3418,-4.4339,-4.4681,-4.4681,-4.4681,-4.4681,-4.4681,-4.4681,-4.4681,-4.4681,-4.4681,-4.4777,-4.4895,-4.4895,-4.4895,-4.4895,-4.4895,-4.4895,-4.4895,-4.4895,-4.4895,-4.4895,-4.4895,-4.4895,-4.4895,-4.4895,-4.4895,-4.4895,-4.4895,-4.4895,-4.4383,-4.2716,-4.1616,0.0,0.0,0.0,0.0,0.0,0.0,0.0,0.0,0.0,0.0,0.0,0.0,0.0,0.0,0.0,0.0,0.0,0.0,0.0,0.0,0.0,-4.3815,-4.4649,0.0,-4.4895,-4.4914,-4.6601,-4.7397,-4.7453,-4.914,-4.9898,-4.9879,-4.9952,-5.0005,-5.0005,-5.0114,-5.0207,-5.0407,-5.1921,-5.2627,-5.2971,-5.4518,-5.5224,-5.5403,0.0,0.0,0.0,0.0,0.0,0.0,-4.5273,-4.6613,-4.7536,-4.7391,-4.7373,-4.7373,-4.7373,-4.7446,-4.7482,-4.7482,-4.7482,-4.7174,-4.645,-4.6323,-4.5943,-4.5218,-4.4421,-4.3951,-4.3878,-4.2303,-3.9967,0.0,0.0,-3.2535,0.0,-2.8769,-2.9558,-3.1094,0.0,0.0,0.0,-4.0357,-4.2063,-4.3831,-4.3937,-4.4004,-4.4004,-4.4004,-4.4004,-4.4004,-4.4004,-4.4004,-4.4004,-4.4004,-4.4402,-4.4895,-4.4895,-4.4895,-4.4895,-4.4895,-4.4895,-4.4895,-4.4895,-4.4895,-4.4895,-4.4895,-4.4895,-4.4895,-4.4895,-4.4895,-4.4895,-4.4895,-4.4895,-4.4383,-4.2716,-4.3512,-4.3436,0.0,0.0,0.0,0.0,0.0,0.0,0.0,0.0,0.0,0.0,0.0,0.0,0.0,0.0,0.0,0.0,0.0,0.0,-4.1086,0.0,-4.2943,-4.3796,-4.4535,-4.4895,-4.4914,-4.6601,-4.7397,-4.7453,-4.914,-4.9898,-4.9898,-4.9925,-4.9933,-5.0005,-5.0012,-5.0057,-5.0228,-5.1161,-5.2005,-5.2819,-5.3779,-5.4664,-5.5403,0.0,0.0,0.0,0.0,0.0,0.0,0.0,-4.7301,-4.7717,-4.7717,-4.7717,-4.7717,-4.7717,-4.7717,-4.7717,-4.7717,-4.7717,-4.7572,-4.7246,-4.6776,-4.6359,-4.6033,-4.5254,-4.4584,-4.4095,-4.2991,-4.1325,0.0,0.0,0.0,-3.2301,-3.0907,-3.1396,-3.3497,0.0,-3.7694,-3.9959,-4.1189,-4.2459,-4.3623,-4.3818,-4.3912,-4.3912,-4.3912,-4.3912,-4.3912,-4.3912,-4.3912,-4.3912,-4.3912,-4.4065,-4.4318,-4.4318,-4.4318,-4.4318,-4.4318,-4.443,-4.461,-4.461,-4.461,-4.4655,-4.4846,-4.4751,-4.4636,-4.4846,-4.4895,-4.4827,-4.4636,-4.443,-4.4168,-4.3691,-4.3321,-4.3052,-4.292,0.0,0.0,0.0,0.0,0.0,0.0,0.0,0.0,0.0,0.0,0.0,0.0,0.0,-2.895,-3.2109,0.0,0.0,-4.0287,0.0,-4.2829,-4.3682,-4.4497,-4.4895,-4.4914,-4.6601,-4.7397,-4.7453,-4.914,-4.9898,-4.9898,-4.9898,-4.9952,-5.0005,-5.0005,-5.0057,-5.0203,-5.1059,-5.1903,-5.2748,-5.3625,-5.4516,-5.5294,-4.5617,0.0,-4.5236,0.0,-4.6377,-4.6395,-4.7536,-4.7717,-4.7717,-4.7717,-4.7717,-4.7717,-4.7717,-4.7717,-4.7717,-4.7717,-4.7717,-4.7717,-4.7717,-4.7174,-4.6866,-4.6866,-4.6087,0.0,-4.482,-4.4023,-4.281,-4.1216,-3.8753,0.0,-3.562,-3.3665,-3.3918,0.0,-3.8011,-3.9604,-4.0908,-4.1956,-4.2736,-4.3266,-4.349,-4.359,-4.359,-4.359,-4.359,-4.359,-4.359,-4.359,-4.359,-4.359,-4.359,-4.3623,-4.3849,-4.3912,-4.3912,-4.3912,-4.4065,-4.4242,-4.4242,-4.4242,-4.4299,-4.4557,-4.443,-4.4299,-4.4557,-4.4602,-4.453,-4.4299,-4.4046,-4.3974,-4.4213,-4.3287,-4.2781,-4.3728,0.0,0.0,0.0,-3.8949,0.0,0.0,-3.4168,-3.2713,-3.2335,0.0,0.0,0.0,0.0,0.0,-3.2746,0.0,0.0,0.0,0.0,0.0,-4.3682,-4.4497,-4.4895,-4.4914,-4.6354,-4.7169,-4.7453,-4.914,-4.9898,-4.9898,-4.9898,-4.9925,-4.9978,-4.9978,-5.0005,-5.0114,-5.0722,-5.149,-5.2308,-5.3164,-5.4055,-5.4852,-4.6341,-4.6486,-4.6739,-4.7554,-4.7681,-4.7681,-4.7717,-4.7717,-4.7717,-4.7717,-4.7717,-4.7717,-4.7717,-4.7717,-4.7717,-4.7717,-4.7717,-4.7717,-4.7717,-4.7699,-4.7699,0.0,0.0,-4.6486,-4.6468,-4.5689,-4.4476,-4.2864,0.0,0.0,-3.8138,-3.7286,-3.7775,-3.9369,-4.0148,-4.0944,-4.1759,-4.2538,-4.2882,-4.292,-4.292,-4.292,-4.292,-4.292,-4.292,-4.292,-4.292,-4.292,-4.292,-4.292,-4.292,-4.3014,-4.3689,-4.3912,-4.3912,-4.3912,-4.3912,-4.3912,-4.3912,-4.3912,-4.3912,-4.3912,-4.3912,-4.3912,-4.3912,-4.3912,-4.3912,-4.3912,-4.3912,-4.3912,-4.3912,-4.3893,-4.3324,-4.1698,0.0,0.0,0.0,0.0,0.0,-3.5773,-3.2814,-3.1165,-3.2012,0.0,0.0,0.0,0.0,0.0,0.0,0.0,0.0,-4.1063,-4.281,0.0,-4.3701,-4.4497,-4.4895,-4.4914,-4.5786,-4.662,-4.7453,-4.914,-4.9898,-4.9898,-4.9898,-4.9898,-4.9898,-4.9898,-4.9879,-4.9879,-4.9898,-5.0483,-5.141,-5.2208,-5.3117,-5.4028,-4.7283,-4.7319,-4.7409,-4.7663,-4.7717,-4.7717,-4.7717,-4.7717,-4.7717,-4.7717,-4.7717,-4.7717,-4.7717,-4.7717,-4.7717,0.0,-4.7717,-4.7717,0.0,-4.7717,-4.7717,-4.7717,-4.7464,-4.7065,-4.6504,-4.625,-4.5599,-4.453,0.0,0.0,0.0,-4.0075,-4.0492,-4.1017,-4.1796,-4.2285,-4.252,-4.2774,-4.2882,-4.2882,-4.2882,-4.2882,-4.2882,-4.2882,-4.2882,-4.2882,-4.2882,-4.2882,-4.2882,-4.2882,-4.2882,-4.292,-4.3142,-4.3213,-4.3213,-4.3213,-4.3371,-4.3557,-4.3557,-4.3557,-4.3623,-4.3849,-4.3721,-4.3623,-4.3849,-4.3721,-4.3557,-4.3557,-4.3371,-4.3266,-4.3523,-4.3557,-4.3273,-4.2402,-4.185,0.0,-4.0048,0.0,-3.6526,-3.6342,-3.4926,-3.3846,0.0,-3.2575,0.0,0.0,0.0,0.0,0.0,0.0,0.0,0.0,-4.2526,0.0,-4.3701,-4.4497,-4.4895,-4.4914,-4.5549,-4.66,-4.7994,-4.9286,-4.9898,-4.9898,-4.9898,-4.9898,-4.9898,-4.9898,-4.9898,-4.9898,-4.9898,-5.0456,-5.1328,-5.2144,-5.3034,-5.3945,-4.7717,-4.7717,-4.7717,-4.7717,-4.7717,-4.7808,-4.8116,-4.817,-4.8261,-4.8568,-4.8351,-4.817,-4.817,-4.7898,0.0,-4.7717,-4.7717,-4.7717,-4.7717,-4.7717,-4.7717,-4.7717,-4.7717,-4.7464,-4.6975,-4.6957,0.0,-4.5743,-4.444,-4.3281,-4.2321,-4.2828,-4.3063,-4.3081,-4.357,-4.3788,-4.3788,-4.3788,-4.3788,-4.3788,-4.3788,-4.3788,-4.3788,-4.3788,-4.3788,-4.3751,-4.3444,-4.3335,-4.3299,-4.2991,-4.2882,-4.2882,-4.2882,-4.2882,-4.2882,-4.2882,-4.305,-4.3213,-4.3213,-4.3213,-4.3266,-4.3456,-4.3371,-4.3284,-4.3474,-4.3371,-4.3213,-4.3213,-4.305,-4.2957,-4.3178,-4.3213,-4.301,-4.2423,-4.1646,-4.0743,-3.9669,0.0,-3.6537,0.0,0.0,0.0,0.0,-3.442,-3.4431,0.0,0.0,0.0,0.0,0.0,0.0,-4.0904,-4.2791,-4.3796,-4.3796,-4.4267,-4.4584,-4.4726,-4.5825,-4.7061,-4.8419,-4.9446,-4.9898,-4.9898,-4.9898,-4.9898,-4.9898,-4.9898,-4.9898,-4.9898,-4.9898,-5.022,-5.0808,-5.1642,-5.2504,-5.3395,-4.7717,-4.7753,-4.779,0.0,-4.7844,0.0,-4.8876,-4.9003,-4.9257,-4.9981,-4.9456,-4.9003,-4.9003,-4.8333,-4.788,-4.788,0.0,0.0,0.0,-4.7717,-4.7717,-4.7717,-4.7717,-4.7717,-4.7717,-4.7717,-4.7319,-4.6504,-4.5743,-4.5345,-4.5291,-4.5291,-4.5291,-4.5291,-4.5291,-4.5291,-4.5291,-4.5291,-4.5291,-4.5291,-4.5291,-4.5291,-4.5291,-4.5291,-4.5291,-4.52,-4.444,-4.4168,-4.4059,-4.3317,-4.3063,-4.3063,-4.3063,-4.3063,-4.3027,-4.2918,-4.2882,-4.2882,-4.2882,-4.2882,-4.2882,-4.2882,-4.2882,-4.2882,-4.2882,-4.2882,-4.2882,-4.2882,-4.2882,-4.2882,-4.2882,-4.2882,-4.2611,-4.1778,-4.0999,-3.9967,-3.8409,-3.7486,-3.6513,0.0,0.0,0.0,-3.4082,-3.5418,-3.6225,0.0,0.0,0.0,0.0,0.0,-3.9257,-4.26,-4.3472,-4.3912,-4.3912,-4.3912,-4.4102,-4.4468,-4.6426,-4.7825,-4.8678,-4.9519,-4.9898,-4.9898,-4.9898,-4.9898,-4.9898,-4.9898,-4.9898,-4.9898,-4.9898,-4.9898,-4.9993,-5.0884,-5.1717,-5.2532,0.0,0.0,-4.8641,-4.8641,-4.913,-4.9582,-4.9782,-4.9818,-4.9872,-5.0071,-4.9927,-4.9818,-4.9818,-4.9637,-4.9528,-4.9528,-4.8405,-4.7717,-4.7717,-4.7717,-4.7717,-4.7717,-4.7717,-4.7717,-4.7717,-4.7717,-4.7319,-4.6504,-4.6305,-4.5906,-4.5291,-4.5291,-4.5291,-4.5291,-4.5291,-4.5291,-4.5291,-4.5291,-4.5291,-4.5291,-4.5291,-4.5291,-4.5291,-4.5291,-4.5291,-4.5273,-4.5073,-4.5019,-4.4983,-4.4802,-4.4729,-4.4729,-4.4729,-4.4729,-4.4476,-4.3244,-4.2882,-4.2882,-4.2882,-4.2882,-4.2882,-4.2882,-4.2882,-4.2882,-4.2882,-4.2882,-4.2882,-4.2882,-4.2882,-4.2882,-4.2882,-4.2882,-4.2429,-4.1017,-4.0637,-3.9967,-3.8409,-3.7486,-3.7102,0.0,-3.7421,-3.733,-3.7148,-3.802,-3.8077,0.0,0.0,0.0,0.0,-3.9688,-4.0668,-4.2625,-4.3472,-4.3912,-4.3912,-4.3912,-4.4259,-4.5053,-4.6363,-4.7466,-4.8342,-4.9418,-4.9898,-4.9898,-4.9898,-4.9898,-4.9898,-4.9898,-4.9898,-4.9898,-4.9898,-4.9898,-4.9993,-5.0884,-5.1717,-5.2532,-4.7717,-4.8061,-4.8478,-4.8858,-4.9275,-4.98,-5.0524,-5.0633,-5.076,-5.114,-5.0868,-5.0633,-5.0633,-5.0307,-4.9945,-4.9582,-4.8749,-4.8261,-4.8261,-4.7916,-4.7717,-4.7717,-4.7717,-4.7717,-4.7717,-4.7717,-4.75,-4.7065,-4.7065,-4.683,-4.6413,-4.6413,-4.6413,-4.6413,-4.6413,-4.6413,-4.6413,-4.6413,-4.6413,-4.6413,-4.6413,-4.6413,-4.6413,-4.6413,-4.6413,-4.6359,-4.5979,-4.5852,-4.5798,-4.5417,-4.5291,-4.5291,-4.5291,-4.5291,-4.5128,-4.424,-4.3733,-4.3371,-4.2991,-4.2882,-4.2882,-4.2882,-4.2882,-4.2882,-4.2882,-4.2882,-4.2882,-4.2882,-4.2882,-4.2882,-4.2882,-4.2882,-4.2357,-4.0763,-4.051,-3.984,-3.7902,-3.7576,-3.7703,-3.8138,-3.8518,-3.888,-3.9224,-3.9985,-3.9948,-3.8681,-3.9677,0.0,-4.0456,-4.118,-4.1959,-4.2763,-4.322,-4.3422,-4.3422,-4.359,-4.4299,-4.5552,-4.6464,-4.7537,-4.8769,-4.9561,-4.9898,-4.9898,-4.9898,-4.9898,-4.9898,-4.9898,-4.9898,-4.9898,-4.9898,-4.9898,-4.9955,-5.0429,-5.113,-5.1983,-4.7657,-4.7747,-4.8073,-4.8743,-4.8978,-4.9582,-5.1067,-5.1285,-5.1574,-5.2389,-5.1792,-5.1339,-5.1466,-5.0741,-4.9999,-4.9329,-4.9166,-4.8985,-4.8749,-4.8098,-4.7717,-4.7717,-4.7717,-4.7717,-4.7717,-4.7717,-4.7717,-4.7717,-4.7717,-4.7717,-4.7717,-4.7717,-4.7717,-4.7717,-4.7717,-4.7717,-4.7717,-4.7717,-4.7717,-4.7717,-4.7717,-4.7717,-4.7717,-4.7717,-4.7717,-4.7627,-4.6939,-4.6685,-4.6576,-4.5888,-4.5653,-4.5653,-4.5653,-4.5653,-4.5635,-4.5526,-4.5001,-4.4258,-4.3317,-4.2973,-4.2882,-4.2882,-4.2882,-4.2882,-4.2882,-4.2882,-4.2882,-4.2882,-4.2882,-4.2882,-4.2882,-4.2882,-4.2357,-4.0763,-4.051,-3.9731,-3.7486,0.0,-3.8409,-3.8518,-3.926,-4.0039,-4.08,-4.1379,-4.1488,-4.0908,-4.2013,-4.2466,-4.1922,-4.252,-4.2882,-4.2882,-4.2882,-4.2882,-4.2882,-4.3178,-4.4196,-4.5901,-4.648,-4.7641,-4.9334,-4.9683,-4.9824,-4.9824,-4.9898,-4.9898,-4.9898,-4.9898,-4.9898,-4.9898,-4.9898,-4.9898,-4.9898,-4.9898,-5.0448,-5.13,-4.7363,-4.8009,-4.8558,-4.8702,-4.9412,-5.0216,-5.1158,-5.1285,-5.1574,-5.2389,-5.1792,-5.1556,-5.2226,-5.1593,-5.1049,-5.0941,-5.0307,-4.9329,-4.7989,-4.7772,-4.7717,-4.7717,-4.7717,-4.7717,-4.7717,-4.7717,-4.7717,-4.7717,-4.7717,-4.7717,-4.7717,-4.7717,-4.7717,-4.7717,-4.7717,-4.7717,-4.7717,-4.7717,-4.7717,-4.7717,-4.7717,-4.7717,-4.7717,-4.7717,-4.7717,-4.7681,-4.7572,-4.7518,-4.75,-4.7373,-4.7337,-4.7337,-4.7337,-4.7337,-4.7192,-4.6522,-4.6232,-4.5798,-4.4313,-4.3407,-4.2882,-4.2882,-4.2882,-4.2882,-4.2882,-4.2882,-4.2882,-4.2882,-4.2882,-4.2882,-4.2882,-4.2882,-4.2357,-4.0763,-4.051,-3.993,-3.8246,0.0,-3.9441,-4.0075,-4.0854,-4.1651,-4.2448,-4.2031,-4.194,-4.2484,-4.214,-4.214,-4.2683,-4.2828,-4.2882,-4.2882,-4.2882,-4.2882,-4.2882,-4.2957,-4.398,-4.5901,-4.599,-4.7032,-4.8885,-4.9283,-4.9476,-4.9488,-4.9769,-4.9898,-4.9898,-4.9898,-4.9898,-4.9898,-4.9898,-4.9898,-4.9898,-4.9898,-5.0448,-5.1225,-4.7302,-4.7713,-4.8171,-4.8542,-4.8666,-4.9133,-5.0344,-5.0543,-5.0715,-5.114,-5.1249,-5.143,-5.181,-5.19,-5.1593,-5.0723,-5.0289,-4.942,-4.7826,-4.7717,-4.7717,-4.7717,-4.7717,-4.7717,-4.7717,-4.7717,-4.7717,-4.7717,-4.7717,-4.7717,-4.7717,-4.7717,-4.7717,-4.7717,-4.7717,-4.7717,-4.7717,-4.7717,-4.7717,-4.7717,-4.7717,-4.7717,-4.7717,-4.7717,-4.7717,-4.7717,-4.7717,-4.7717,-4.7717,-4.7717,-4.7717,-4.7717,-4.7717,-4.7717,-4.7645,-4.7265,-4.654,-4.5599,-4.4421,-4.3824,-4.3425,-4.3009,-4.2882,-4.2882,-4.2882,-4.2882,-4.2882,-4.2882,-4.2882,-4.2882,-4.2882,-4.2882,-4.252,-4.1361,-4.08,0.0,-3.955,-3.9423,-3.9822,-4.1017,-4.1451,-4.2031,-4.281,-4.2556,-4.2502,-4.2864,-4.2556,-4.2502,-4.2864,-4.2882,-4.2882,-4.2882,-4.2882,-4.2882,-4.2882,-4.2882,-4.3794,-4.5585,-4.5792,-4.6819,-4.8532,-4.8903,-4.9188,-4.9415,-4.9548,-4.9741,-4.9898,-4.9898,-4.9898,-4.9898,-4.9898,-4.9898,-4.9898,-4.9898,-5.0144,-5.0561,-4.7232,-4.7338,-4.7597,-4.8102,-4.7795,-4.7955,-4.9343,-4.9604,-4.9721,-5.0009,-5.047,-5.0796,-5.0995,-5.1411,-5.1176,-4.9927,-4.9818,-4.922,-4.7808,-4.7717,-4.7717,-4.7717,-4.7717,-4.7717,-4.7717,-4.7717,-4.7717,-4.7717,-4.7717,-4.7717,-4.7717,-4.7717,-4.7717,-4.7717,-4.7717,-4.7717,-4.7717,-4.7717,-4.7717,-4.7717,-4.7717,-4.7717,-4.7717,-4.7717,-4.7717,-4.7717,-4.7717,-4.7717,-4.7717,-4.7717,-4.7717,-4.7717,-4.7717,-4.7717,-4.7717,-4.7717,-4.683,-4.5635,-4.4639,-4.424,-4.3896,-4.3081,-4.2882,-4.2882,-4.2882,-4.2882,-4.2882,-4.2882,-4.2882,-4.2882,-4.2882,-4.2882,-4.2629,-4.185,0.0,-4.0727,-4.0546,-4.0184,-4.0365,-4.1578,-4.1886,-4.223,-4.2828,-4.2882,-4.2882,-4.2882,-4.2882,-4.2882,-4.2882,-4.2882,-4.2882,-4.2882,-4.2882,-4.2882,-4.2882,-4.2882,-4.3697,-4.5291,-4.5623,-4.6615,-4.8151,-4.8513,-4.8834,-4.9141,-4.9239,-4.9457,-4.9769,-4.9769,-4.9824,-4.9898,-4.9898,-4.9898,-4.9898,-4.9898,-4.9898,-4.9993,-4.7025,-4.7133,-4.7259,-4.7313,-4.7285,-4.7607,-4.8452,-4.8704,-4.9063,-4.983,-4.9404,-4.9365,-5.009,-4.9582,-4.913,-4.9003,-4.9003,-4.8641,-4.7772,-4.7717,-4.7717,-4.7717,-4.7717,-4.7717,-4.7717,-4.7717,-4.7717,-4.7717,-4.7717,-4.7717,-4.7717,-4.7717,-4.7717,-4.7717,-4.7717,-4.7717,-4.7717,-4.7717,-4.7717,-4.7717,-4.7717,-4.7717,-4.7717,-4.7717,-4.7717,-4.7717,-4.7717,-4.7717,-4.7717,-4.7717,-4.7717,-4.7717,-4.7717,-4.7717,-4.7717,-4.7717,-4.7627,-4.7192,-4.5635,-4.4675,-4.3896,-4.3081,-4.2882,-4.2882,-4.2882,-4.2882,-4.2882,-4.2882,-4.2882,-4.2882,-4.2882,-4.2882,-4.2629,-4.185,0.0,0.0,-4.0619,-4.1107,-4.1578,-4.1705,-4.2357,-4.2828,-4.2882,-4.2882,-4.2882,-4.2882,-4.2882,-4.2882,-4.2882,-4.2882,-4.2882,-4.2882,-4.2882,-4.2882,-4.2882,-4.2882,-4.3697,-4.5291,-4.533,-4.6182,-4.7741,-4.8151,-4.8326,-4.8402,-4.873,-4.9071,-4.9446,-4.9446,-4.9625,-4.9898,-4.9898,-4.9898,-4.9898,-4.9898,-4.9898,-4.9898,-4.6998,-4.7043,-4.7088,-4.7088,-4.7116,-4.7268,-4.7617,-4.7716,-4.7895,-4.8227,-4.8487,-4.8828,-4.9179,-4.9422,-4.9332,-4.8967,-4.8912,-4.8568,-4.7753,-4.7717,-4.7717,-4.7717,-4.7717,-4.7717,-4.7717,-4.7717,-4.7717,-4.7717,-4.7717,-4.7717,-4.7717,-4.7717,-4.7717,-4.7717,-4.7717,-4.7717,-4.7717,-4.7717,-4.7717,-4.7717,-4.7717,-4.7717,-4.7717,-4.7717,-4.7717,-4.7717,-4.7717,-4.7717,-4.7717,-4.7717,-4.7717,-4.7717,-4.7717,-4.7717,-4.7717,-4.7717,-4.7717,-4.7464,-4.6359,-4.5454,-4.4639,-4.3842,-4.3262,-4.2882,-4.2882,-4.2882,-4.2882,-4.2882,-4.2882,-4.2882,-4.2882,-4.2882,-4.2792,-4.2484,0.0,-4.1778,-4.1959,-4.1832,-4.1904,-4.2375,-4.2701,-4.2882,-4.2882,-4.2882,-4.2882,-4.2882,-4.2882,-4.2882,-4.2882,-4.2882,-4.2882,-4.2882,-4.2882,-4.2882,-4.2882,-4.2882,-4.3697,-4.5291,-4.5291,-4.6142,-4.7717,-4.7866,-4.8032,-4.8306,-4.8421,-4.8694,-4.9038,-4.9038,-4.9085,-4.9246,-4.9469,-4.9596,-4.9625,-4.9824,-4.9898,-4.9898,-4.6998,-4.6998,-4.6998,-4.6998,-4.6998,-4.7043,-4.7133,-4.7178,-4.7223,-4.7232,-4.7805,-4.8235,-4.8323,-4.8854,-4.9007,-4.8586,-4.8532,-4.8297,-4.7753,-4.7717,-4.7717,-4.7717,-4.7717,-4.7717,-4.7717,-4.7717,-4.7717,-4.7717,-4.7717,-4.7717,-4.7717,-4.7717,-4.7717,-4.7717,-4.7717,-4.7717,-4.7717,-4.7717,-4.7717,-4.7717,-4.7717,-4.7717,-4.7717,-4.7717,-4.7717,-4.7717,-4.7717,-4.7717,-4.7717,-4.7717,-4.7717,-4.7717,-4.7717,-4.7717,-4.7717,-4.7717,-4.7717,-4.7591,-4.7029,-4.6287,-4.5417,-4.4349,-4.3679,-4.3208,-4.2955,-4.2882,-4.2882,-4.2882,-4.2882,-4.2882,-4.2882,-4.2882,-4.2882,-4.2882,-4.2448,-4.2266,-4.281,-4.2411,-4.2285,-4.2828,-4.2882,-4.2882,-4.2882,-4.2882,-4.2882,-4.2882,-4.2882,-4.2882,-4.2882,-4.2882,-4.2882,-4.2882,-4.2882,-4.2882,-4.2882,-4.3136,-4.3951,-4.5291,-4.5562,-4.6395,-4.7717,-4.7717,-4.7866,-4.8111,-4.8111,-4.8326,-4.8658,-4.8658,-4.873,-4.8816,-4.9104,-4.922,-4.9252,-4.9607,-4.9741,-4.9769,-4.6998,-4.6998,-4.6998,-4.6998,-4.6998,-4.6998,-4.6998,-4.7088,-4.7196,-4.7196,-4.7381,-4.7511,-4.7511,-4.7615,-4.7717,-4.7717,-4.7717,-4.7717,-4.7717,-4.7717,-4.7717,-4.7717,-4.7717,-4.7717,-4.7717,-4.7717,-4.7717,-4.7717,-4.7717,-4.7717,-4.7717,-4.7717,-4.7717,-4.7717,-4.7717,-4.7717,-4.7717,-4.7717,-4.7717,-4.7717,-4.7717,-4.7717,-4.7717,-4.7717,-4.7717,-4.7717,-4.7717,-4.7717,-4.7717,-4.7717,-4.7717,-4.7717,-4.7717,-4.7717,-4.7717,-4.7717,-4.7717,-4.7717,-4.7717,-4.712,-4.6124,-4.4512,-4.4095,-4.3878,-4.3063,-4.2882,-4.2882,-4.2882,-4.2882,-4.2882,-4.2882,-4.2882,-4.2882,-4.2882,-4.2882,-4.2882,-4.2882,-4.2882,-4.2882,-4.2882,-4.2882,-4.2882,-4.2882,-4.2882,-4.2882,-4.2882,-4.2882,-4.2882,-4.2882,-4.2882,-4.2882,-4.2882,-4.2882,-4.2882,-4.2882,-4.3697,-4.4494,-4.5309,-4.6124,-4.692,-4.7717,-4.7717,-4.7717,-4.7717,-4.7717,-4.7929,-4.8306,-4.8306,-4.8495,-4.8781,-4.8781,-4.8816,-4.885,-4.927,-4.9415,-4.9446,-4.6998,-4.6998,-4.6998,-4.6998,-4.6998,-4.6998,-4.6998,-4.7043,-4.7043,-4.7043,-4.7178,-4.7312,-4.7363,-4.7468,-4.7615,-4.7699,-4.7717,-4.7717,-4.7717,-4.7717,-4.7717,-4.7717,-4.7717,-4.7717,-4.7717,-4.7717,-4.7717,-4.7717,-4.7717,-4.7717,-4.7717,-4.7717,-4.7717,-4.7717,-4.7717,-4.7717,-4.7717,-4.7717,-4.7717,-4.7717,-4.7717,-4.7717,-4.7717,-4.7717,-4.7717,-4.7717,-4.7717,-4.7717,-4.7717,-4.7717,-4.7717,-4.7717,-4.7717,-4.7717,-4.7717,-4.7717,-4.7717,-4.7717,-4.7717,-4.7536,-4.6975,-4.5345,-4.4512,-4.3878,-4.3063,-4.2882,-4.2882,-4.2882,-4.2882,-4.2882,-4.2882,-4.2882,-4.2882,-4.2882,-4.2882,-4.2882,-4.2882,-4.2882,-4.2882,-4.2882,-4.2882,-4.2882,-4.2882,-4.2882,-4.2882,-4.2882,-4.2882,-4.2882,-4.2882,-4.2882,-4.2882,-4.2882,-4.2882,-4.2882,-4.2882,-4.3697,-4.4494,-4.5309,-4.6124,-4.692,-4.7717,-4.7717,-4.7717,-4.7717,-4.7717,-4.7783,-4.7888,-4.7888,-4.7929,-4.8053,-4.8364,-4.8458,-4.8495,-4.8869,-4.9155,-4.9396,-4.6998,-4.6998,-4.6998,-4.6998,-4.6998,-4.6998,-4.6998,-4.6998,-4.6998,-4.6998,-4.7133,-4.7223,-4.7249,-4.7381,-4.745,-4.7615,-4.7657,-4.7717,-4.7717,-4.7717,-4.7717,-4.7717,-4.7717,-4.7717,-4.7717,-4.7717,-4.7717,-4.7717,-4.7717,-4.7717,-4.7717,-4.7717,-4.7717,-4.7717,-4.7717,-4.7717,-4.7717,-4.7717,-4.7717,-4.7717,-4.7717,-4.7717,-4.7717,-4.7717,-4.7717,-4.7717,-4.7717,-4.7717,-4.7717,-4.7717,-4.7717,-4.7717,-4.7717,-4.7717,-4.7717,-4.7717,-4.7717,-4.7717,-4.7717,-4.7717,-4.7391,-4.6106,-4.5417,-4.4747,-4.3625,-4.3371,-4.3262,-4.2955,-4.2882,-4.2882,-4.2882,-4.2882,-4.2882,-4.2882,-4.2882,-4.2882,-4.2882,-4.2882,-4.2882,-4.2882,-4.2882,-4.2882,-4.2882,-4.2882,-4.2882,-4.2882,-4.2882,-4.2882,-4.2882,-4.2882,-4.2882,-4.2882,-4.2882,-4.3045,-4.3371,-4.4168,-4.482,-4.5309,-4.645,-4.7228,-4.7717,-4.7717,-4.7717,-4.7717,-4.7717,-4.7717,-4.7717,-4.7717,-4.7783,-4.797,-4.819,-4.8364,-4.8532,-4.8711,-4.9038,-4.9415,-4.6998,-4.6998,-4.6998,-4.6998,-4.6998,-4.6998,-4.6998,-4.6998,-4.6998,-4.6998,-4.7133,-4.7196,-4.7196,-4.7249,-4.7363,-4.7468,-4.7615,-4.7675,-4.7717,-4.7717,-4.7717,-4.7717,-4.7717,-4.7717,-4.7717,-4.7717,-4.7717,-4.7717,-4.7717,-4.7717,-4.7717,-4.7717,-4.7717,-4.7717,-4.7717,-4.7717,-4.7717,-4.7717,-4.7717,-4.7717,-4.7717,-4.7717,-4.7717,-4.7717,-4.7717,-4.7717,-4.7717,-4.7717,-4.7717,-4.7717,-4.7717,-4.7717,-4.7717,-4.7717,-4.7717,-4.7717,-4.7717,-4.7717,-4.7717,-4.7717,-4.7536,-4.6794,-4.6613,-4.6178,-4.4476,-4.4095,-4.386,-4.3063,-4.2882,-4.2882,-4.2882,-4.2882,-4.2882,-4.2882,-4.2882,-4.2882,-4.2882,-4.2882,-4.2882,-4.2882,-4.2882,-4.2882,-4.2882,-4.2882,-4.2882,-4.2882,-4.2882,-4.2882,-4.2882,-4.2882,-4.2882,-4.2882,-4.2882,-4.3281,-4.4077,-4.4892,-4.5345,-4.5436,-4.6975,-4.7717,-4.7717,-4.7717,-4.7717,-4.7717,-4.7717,-4.7717,-4.7699,-4.7741,-4.797,-4.8306,-4.8344,-4.8532,-4.8816,-4.8816,-4.9038,-4.9396,-4.6998,-4.6998,-4.6998,-4.6998,-4.6998,-4.6998,-4.6998,-4.6998,-4.6998,-4.6998,-4.7133,-4.7196,-4.7196,-4.7249,-4.7302,-4.7363,-4.7468,-4.7615,-4.7699,-4.7717,-4.7717,-4.7717,-4.7717,-4.7717,-4.7717,-4.7717,-4.7717,-4.7717,-4.7717,-4.7717,-4.7717,-4.7717,-4.7717,-4.7717,-4.7717,-4.7717,-4.7717,-4.7717,-4.7717,-4.7717,-4.7717,-4.7717,-4.7717,-4.7717,-4.7717,-4.7717,-4.7717,-4.7717,-4.7717,-4.7717,-4.7717,-4.7717,-4.7717,-4.7717,-4.7717,-4.7717,-4.7717,-4.7717,-4.7717,-4.7717,-4.7663,-4.7482,-4.7446,-4.6866,-4.4603,-4.4095,-4.386,-4.3063,-4.2882,-4.2882,-4.2882,-4.2882,-4.2882,-4.2882,-4.2882,-4.2882,-4.2882,-4.2882,-4.2882,-4.2882,-4.2882,-4.2882,-4.2882,-4.2882,-4.2882,-4.2882,-4.2882,-4.2882,-4.2882,-4.2882,-4.2882,-4.2882,-4.2882,-4.3281,-4.4077,-4.4892,-4.5617,-4.625,-4.7246,-4.7717,-4.7717,-4.7717,-4.7717,-4.7717,-4.7717,-4.7717,-4.7699,-4.805,-4.8229,-4.8344,-4.8586,-4.8746,-4.8816,-4.8816,-4.9038,-4.9446,-4.6998,-4.6998,-4.6998,-4.6998,-4.6998,-4.6998,-4.6998,-4.6998,-4.6998,-4.6998,-4.7043,-4.7088,-4.7088,-4.7116,-4.7187,-4.7302,-4.7407,-4.7572,-4.7699,-4.7717,-4.7717,-4.7717,-4.7717,-4.7717,-4.7717,-4.7717,-4.7717,-4.7717,-4.7717,-4.7717,-4.7717,-4.7717,-4.7717,-4.7717,-4.7717,-4.7717,-4.7717,-4.7717,-4.7717,-4.7717,-4.7717,-4.7717,-4.7717,-4.7717,-4.7717,-4.7717,-4.7717,-4.7717,-4.7717,-4.7717,-4.7717,-4.7717,-4.7717,-4.7717,-4.7717,-4.7717,-4.7717,-4.7717,-4.7717,-4.7717,-4.7717,-4.7717,-4.7717,-4.7283,-4.5617,-4.4947,-4.444,-4.3625,-4.3154,-4.2882,-4.2882,-4.2882,-4.2882,-4.2882,-4.2882,-4.2882,-4.2882,-4.2882,-4.2882,-4.2882,-4.2882,-4.2882,-4.2882,-4.2882,-4.2882,-4.2882,-4.2882,-4.2882,-4.2882,-4.2882,-4.2882,-4.2882,-4.3262,-4.386,-4.4657,-4.5472,-4.6287,-4.7083,-4.7518,-4.7717,-4.7717,-4.7717,-4.7717,-4.7717,-4.7717,-4.7717,-4.7717,-4.7929,-4.813,-4.8344,-4.8658,-4.8816,-4.8816,-4.9005,-4.922,-4.9446,-4.6998,-4.6998,-4.6998,-4.6998,-4.6998,-4.6998,-4.6998,-4.6998,-4.6998,-4.6998,-4.6998,-4.6998,-4.6998,-4.6998,-4.707,-4.7258,-4.7407,-4.7511,-4.7699,-4.7717,-4.7717,-4.7717,-4.7717,-4.7717,-4.7717,-4.7717,-4.7717,-4.7717,-4.7717,-4.7717,-4.7717,-4.7717,-4.7717,-4.7717,-4.7717,-4.7717,-4.7717,-4.7717,-4.7717,-4.7717,-4.7717,-4.7717,-4.7717,-4.7717,-4.7717,-4.7717,-4.7717,-4.7717,-4.7717,-4.7717,-4.7717,-4.7717,-4.7717,-4.7717,-4.7717,-4.7717,-4.7717,-4.7717,-4.7717,-4.7717,-4.7717,-4.7717,-4.7717,-4.7536,-4.6866,-4.6087,-4.5273,-4.4458,-4.3769,-4.3262,-4.3118,-4.3099,-4.3045,-4.29,-4.2882,-4.2882,-4.2882,-4.2882,-4.2882,-4.2882,-4.2882,-4.2882,-4.2882,-4.2882,-4.2882,-4.2882,-4.2882,-4.2882,-4.2882,-4.2882,-4.2882,-4.2882,-4.3679,-4.4476,-4.5291,-4.6106,-4.6902,-4.7717,-4.7717,-4.7717,-4.7717,-4.7717,-4.7717,-4.7717,-4.7717,-4.7717,-4.7717,-4.7783,-4.801,-4.8344,-4.8658,-4.8816,-4.885,-4.9252,-4.9365,-4.9365,-4.6998,-4.6998,-4.6998,-4.6998,-4.6998,-4.6998,-4.6998,-4.6998,-4.6998,-4.6998,-4.6998,-4.6998,-4.6998,-4.6998,-4.707,-4.7258,-4.732,-4.7407,-4.7657,-4.7717,-4.7717,-4.7717,-4.7717,-4.7717,-4.7717,-4.7717,-4.7717,-4.7717,-4.7717,-4.7717,-4.7717,-4.7717,-4.7717,-4.7717,-4.7717,-4.7717,-4.7717,-4.7717,-4.7717,-4.7717,-4.7717,-4.7717,-4.7717,-4.7717,-4.7717,-4.7717,-4.7717,-4.7717,-4.7717,-4.7717,-4.7717,-4.7717,-4.7717,-4.7717,-4.7717,-4.7717,-4.7717,-4.7717,-4.7717,-4.7717,-4.7717,-4.7717,-4.7717,-4.7681,-4.7572,-4.692,-4.6106,-4.5291,-4.5055,-4.4765,-4.4059,-4.3932,-4.3697,-4.3009,-4.2882,-4.2882,-4.2882,-4.2882,-4.2882,-4.2882,-4.2882,-4.2882,-4.2882,-4.2882,-4.2882,-4.2882,-4.2882,-4.2882,-4.2882,-4.2882,-4.2882,-4.2882,-4.3679,-4.4476,-4.5291,-4.6106,-4.6902,-4.7717,-4.7717,-4.7717,-4.7717,-4.7717,-4.7717,-4.7717,-4.7717,-4.7717,-4.7741,-4.809,-4.8267,-4.8344,-4.8658,-4.8816,-4.885,-4.9252,-4.9188,-4.8937,-4.6998,-4.6998,-4.6998,-4.6998,-4.6998,-4.6998,-4.6998,-4.6998,-4.6998,-4.6998,-4.6998,-4.6998,-4.6998,-4.6998,-4.707,-4.7258,-4.7302,-4.7407,-4.7657,-4.7717,-4.7717,-4.7717,-4.7717,-4.7717,-4.7717,-4.7717,-4.7717,-4.7717,-4.7717,-4.7717,-4.7717,-4.7717,-4.7717,-4.7717,-4.7717,-4.7717,-4.7717,-4.7717,-4.7717,-4.7717,-4.7717,-4.7717,-4.7717,-4.7717,-4.7717,-4.7717,-4.7717,-4.7717,-4.7717,-4.7717,-4.7717,-4.7717,-4.7717,-4.7717,-4.7717,-4.7717,-4.7717,-4.7717,-4.7717,-4.7717,-4.7717,-4.7717,-4.7717,-4.7717,-4.7717,-4.7446,-4.6939,-4.6142,-4.5617,-4.5182,-4.4838,-4.4403,-4.3969,-4.3625,-4.3172,-4.2882,-4.2882,-4.2882,-4.2882,-4.2882,-4.2882,-4.2882,-4.2882,-4.2882,-4.2882,-4.2882,-4.2882,-4.2882,-4.2882,-4.2882,-4.2882,-4.2882,-4.3679,-4.4476,-4.5291,-4.6106,-4.6902,-4.7717,-4.7717,-4.7717,-4.7717,-4.7717,-4.7717,-4.7717,-4.7717,-4.7717,-4.7699,-4.7888,-4.797,-4.801,-4.8383,-4.8623,-4.8781,-4.8783,-4.88,-4.8816]}]]